GFSSGP_500_spd_000.txt.gz
Wind_Speed
10 11 11 12 12 11 10 11 11 10 9 9 8 9 9 9 8 9 9 10 7 7 7 6 4 5 6 3 2 4 5 6 7 8 9 10 9 9 10 10 8 5 5 3 2 3 3 3 4
8 9 10 9 10 10 10 9 9 9 8 6 8 10 10 10 9 9 9 10 12 10 8 9 8 6 6 6 4 3 4 4 5 6 6 7 8 8 7 7 6 5 4 5 3 2 2 2 1
8 9 9 9 10 11 11 11 10 10 8 8 8 8 8 10 10 10 9 9 11 12 11 11 11 9 9 9 8 6 5 6 6 6 6 7 6 7 7 6 5 4 3 2 2 3 3 4 5
9 9 9 10 10 10 11 13 13 13 12 11 10 10 9 9 10 10 10 8 9 11 12 13 13 13 12 11 11 10 10 9 7 6 7 7 7 7 7 7 7 6 5 4 4 5 5 7 7
11 10 10 9 10 11 13 13 13 13 13 15 13 12 10 11 10 8 9 8 6 7 10 12 14 15 15 15 15 14 13 12 11 10 10 10 8 8 8 8 9 9 9 8 9 8 8 9 9
12 13 13 13 12 11 12 13 13 14 15 13 14 14 14 13 13 12 9 7 7 6 6 7 10 14 17 18 18 17 17 17 16 15 14 13 13 11 12 12 12 12 12 10 10 11 11 10 11
18 18 18 18 18 16 13 15 14 15 16 17 15 16 15 14 14 14 13 12 9 8 8 8 8 9 11 15 18 20 20 21 20 19 19 18 18 17 17 16 16 15 15 15 15 16 15 14 14
21 21 22 21 21 21 19 19 18 17 19 18 19 17 19 16 15 15 15 15 14 15 14 12 11 10 10 11 14 16 20 21 22 23 23 23 23 22 20 20 20 20 19 19 21 22 21 21 20
25 24 22 25 25 23 24 23 21 20 21 19 23 24 21 19 19 17 17 18 17 17 15 16 16 15 14 13 14 16 18 19 21 23 25 26 26 25 25 24 23 23 23 24 25 25 25 25 24
27 25 24 28 27 27 26 25 25 24 24 23 26 26 23 21 22 23 22 22 22 22 20 21 19 19 18 18 18 19 20 20 21 23 24 25 26 28 28 28 28 27 27 27 28 28 28 28 28
27 26 27 28 31 30 27 27 27 28 24 26 26 27 28 25 24 27 29 27 27 27 25 26 26 23 22 22 22 22 23 24 25 25 25 26 27 28 30 31 32 32 32 31 31 31 31 32 32
30 27 29 27 32 31 31 28 29 30 26 30 30 32 31 31 28 30 31 32 32 31 31 32 30 28 27 27 26 25 26 26 25 26 27 28 28 28 30 31 33 33 33 33 33 33 34 33 33
33 30 29 27 30 32 33 28 35 26 26 32 35 31 30 30 28 29 30 33 35 35 36 36 35 34 32 30 30 29 29 30 29 27 27 29 30 30 30 31 31 31 32 32 33 34 34 34 35
37 35 32 30 30 32 36 30 40 25 35 32 34 34 32 28 27 25 27 28 31 35 37 39 39 37 35 34 33 33 32 33 33 31 30 30 31 31 32 32 31 31 31 32 32 31 31 32 33
42 42 36 29 32 39 43 42 33 32 36 34 33 35 33 32 30 28 28 29 31 33 37 39 40 38 36 35 35 35 36 37 35 35 33 31 30 32 34 34 34 33 32 32 33 31 32 32 33
46 48 41 31 35 41 48 50 31 36 41 39 36 35 36 34 34 33 33 33 34 36 36 36 36 36 37 36 37 38 38 37 36 36 35 34 33 33 35 36 35 33 32 31 32 32 35 36 36
45 52 51 45 32 42 48 49 38 35 39 42 41 39 41 40 39 36 39 41 40 38 37 35 36 36 38 37 38 39 37 36 35 37 36 37 36 36 37 37 36 35 34 34 35 36 38 40 41
49 51 51 50 37 43 52 51 46 43 43 36 35 34 37 40 38 39 42 43 44 42 39 38 40 39 40 39 37 36 35 35 37 39 39 40 40 39 37 38 37 37 36 36 36 38 40 41 41
52 52 53 50 46 52 51 52 48 42 38 32 33 36 34 30 29 31 38 41 43 46 43 40 39 39 40 40 38 38 37 36 40 43 41 42 42 41 40 38 39 37 37 35 37 39 41 41 41
52 53 54 53 52 54 54 52 50 46 39 36 30 26 31 34 33 33 38 39 39 42 43 42 41 42 42 43 42 40 38 39 40 41 41 41 41 39 38 41 41 39 36 36 38 38 39 39 40
48 51 50 56 54 54 56 53 51 44 37 31 34 37 34 34 36 31 35 40 42 42 44 43 44 45 45 46 45 44 42 42 40 37 40 42 43 43 44 44 41 39 39 40 39 39 38 39 39
52 45 50 51 54 56 53 53 49 46 43 38 38 39 34 31 31 30 33 36 39 40 40 41 40 42 45 46 46 45 46 45 44 43 45 43 43 43 42 41 42 42 42 40 41 41 41 41 40
54 54 50 52 55 58 60 60 53 54 55 55 48 44 45 46 50 41 36 42 43 44 45 41 42 41 43 46 47 48 48 47 48 49 49 48 47 46 46 45 45 44 43 42 43 44 42 44 45
52 55 59 57 57 61 61 60 54 56 60 62 58 61 62 60 60 62 58 45 45 48 45 45 46 46 44 41 44 47 49 48 49 50 51 51 48 45 44 44 44 45 44 44 45 48 50 50 49
51 52 58 63 65 63 61 65 57 62 61 64 63 65 66 66 64 63 62 57 50 50 51 52 50 49 45 47 46 45 46 48 50 49 46 49 50 46 44 46 45 46 47 48 49 51 52 52 49
58 59 62 63 64 65 63 70 65 60 60 61 66 67 68 66 62 59 58 58 56 50 50 55 57 55 50 47 48 49 47 46 47 41 41 43 44 45 46 47 48 50 51 50 51 53 52 52 51
64 65 57 61 61 65 66 69 69 63 61 59 64 65 62 60 63 69 60 56 43 39 38 41 44 48 54 53 47 49 52 43 41 45 47 49 50 47 46 49 52 52 52 52 54 56 56 56 55
70 68 69 68 69 72 75 73 72 62 59 62 62 62 62 60 60 61 60 56 58 58 46 49 49 47 49 53 54 52 49 46 46 49 54 54 56 57 58 60 60 58 55 54 54 55 55 57 58
76 75 73 69 65 70 74 73 65 64 58 63 64 64 65 59 54 52 52 54 60 57 54 51 51 47 53 56 61 63 61 56 55 57 60 65 66 67 69 67 64 60 55 53 52 54 57 60 61
72 72 69 70 74 72 70 68 57 58 60 62 66 67 66 68 63 61 64 59 59 62 57 57 51 56 59 61 61 67 67 58 63 66 66 68 70 69 69 69 65 61 59 59 59 58 59 61 62

GFSSGP_500_spd_003.txt.gz
Wind_Speed
11 11 10 11 13 13 13 11 10 10 11 10 9 9 9 8 7 7 8 8 6 4 1 2 1 1 2 2 4 7 6 9 11 10 12 13 14 14 16 14 13 13 13 14 13 13 13 11 9
10 11 10 12 13 13 13 13 13 13 11 9 9 9 9 9 10 8 5 7 9 9 7 5 3 3 3 3 1 4 5 5 5 8 9 11 13 14 14 14 13 12 11 11 10 10 9 8 6
10 11 12 12 12 12 12 12 13 14 14 13 11 10 9 10 10 9 7 4 6 9 11 9 8 6 6 6 7 6 5 7 7 6 8 8 9 11 12 12 13 12 12 9 8 7 8 8 6
10 10 11 12 13 12 12 12 13 13 13 13 13 13 12 12 11 11 9 6 4 5 8 11 12 12 10 9 9 9 11 9 8 8 9 9 10 11 11 13 13 12 11 10 10 9 8 7 7
10 10 12 11 12 12 13 13 13 13 12 13 12 13 13 13 13 11 10 9 7 5 5 7 11 12 13 14 13 13 13 13 13 12 10 10 10 11 13 13 12 11 11 10 10 10 11 10 10
14 13 14 14 13 14 13 13 13 14 13 12 12 14 13 12 11 11 9 9 9 8 7 7 7 10 12 14 16 16 16 16 15 15 15 14 13 13 12 12 12 13 13 12 11 11 10 10 9
16 15 16 16 16 17 16 17 16 15 16 16 15 16 17 15 13 11 10 9 9 10 11 10 9 10 11 13 14 16 17 18 19 19 18 18 18 17 16 16 16 16 15 15 14 13 13 12 11
20 19 17 19 20 20 19 18 20 19 19 19 22 18 19 17 17 16 14 13 12 12 11 11 11 12 12 13 13 14 16 17 19 20 22 22 21 21 21 21 20 20 20 19 19 18 18 18 17
23 22 20 23 23 21 21 20 22 21 20 22 26 23 21 19 20 21 20 19 17 17 16 14 15 13 13 15 16 16 16 17 19 19 21 22 23 24 23 24 24 23 22 23 23 24 24 24 24
25 23 23 25 26 25 24 22 25 24 22 24 25 28 24 24 22 23 25 26 24 24 22 21 22 21 19 18 18 19 20 20 21 21 22 23 24 25 26 26 26 27 27 26 26 27 27 27 26
27 26 25 25 28 27 24 22 25 27 22 26 28 27 28 27 27 26 27 30 31 30 28 27 27 27 26 24 23 23 24 23 23 24 25 25 25 25 27 28 28 29 30 30 31 31 31 30 30
28 25 26 25 28 29 28 25 27 30 23 30 29 29 29 31 31 29 27 28 33 34 35 35 33 33 31 30 29 29 28 27 26 27 26 24 27 28 28 28 30 32 33 34 34 34 33 33 33
32 31 29 28 29 29 32 27 35 26 29 29 30 28 30 30 29 28 25 25 29 30 34 38 39 38 36 34 33 34 32 31 31 30 29 29 28 27 28 30 31 32 32 33 34 34 34 35 36
38 36 32 32 33 35 38 31 35 24 38 35 33 30 32 32 31 27 27 27 27 29 31 34 37 40 39 38 37 36 35 34 34 34 33 33 32 30 30 32 34 34 34 33 33 32 32 33 34
43 42 36 31 35 43 45 38 32 31 39 39 35 34 34 33 32 31 31 32 33 32 33 35 38 38 38 38 35 36 37 38 38 38 37 36 34 34 32 33 35 37 37 37 36 34 35 36 36
44 45 42 34 38 43 48 46 32 36 38 37 36 35 38 37 37 35 38 40 40 39 38 37 36 36 35 33 32 32 33 37 39 39 40 38 37 36 36 35 36 37 38 37 38 37 37 38 37
45 51 48 43 34 44 50 49 39 36 39 36 34 35 34 34 34 36 40 43 44 42 41 39 37 35 35 35 33 33 34 37 38 38 39 39 39 39 39 39 39 38 39 39 38 39 40 40 40
51 54 52 50 38 43 51 52 43 39 39 35 35 35 33 33 32 35 40 40 41 42 40 38 39 38 39 37 36 37 36 37 36 36 37 39 40 41 41 42 41 39 37 39 41 41 41 41 41
53 55 56 48 45 52 46 51 47 41 40 36 36 34 36 37 27 29 34 36 38 38 37 36 36 38 39 40 38 38 36 40 39 38 38 38 41 43 44 45 45 42 41 42 41 41 41 41 43
53 55 54 53 49 51 51 51 48 48 42 38 35 30 33 33 32 35 34 35 37 38 36 36 34 35 38 41 43 45 43 41 41 39 40 42 42 44 45 47 45 42 42 45 43 42 42 42 43
49 52 51 55 50 51 54 57 54 48 45 37 41 42 41 38 37 33 29 28 25 28 31 33 33 31 34 38 43 48 48 47 44 43 46 47 47 45 46 47 45 44 46 47 44 43 43 43 44
50 48 52 52 53 56 53 55 53 56 52 50 49 48 44 35 33 36 37 37 32 42 43 40 37 38 36 37 39 41 46 48 50 49 50 50 48 47 46 46 46 44 42 44 44 44 43 44 43
57 56 55 58 58 62 61 60 58 58 61 56 53 48 45 47 50 50 44 45 44 43 47 47 45 43 39 39 39 40 41 47 49 51 52 52 52 49 49 48 47 46 45 47 47 46 46 45 44
55 57 58 62 64 64 62 62 61 63 63 61 47 23 48 56 54 56 58 56 54 49 47 49 51 50 48 43 43 43 43 44 48 53 56 57 56 54 50 49 48 47 48 48 48 49 48 46 47
51 53 58 62 61 63 65 67 68 66 63 63 60 60 57 57 58 61 60 61 58 53 48 50 51 54 58 56 52 48 47 47 48 51 54 55 54 53 51 50 50 50 50 51 51 51 50 49 48
59 60 63 64 67 68 64 70 66 66 66 61 65 67 63 63 63 66 65 61 58 59 59 57 54 55 59 62 61 60 55 54 54 54 55 59 59 55 52 50 51 48 50 51 51 51 51 52 52
68 66 60 65 66 68 74 76 71 64 67 69 68 67 65 66 66 63 62 62 64 63 59 56 52 46 51 55 57 60 60 56 56 58 61 62 61 59 51 50 49 50 50 50 50 50 50 53 54
63 62 64 63 64 68 71 74 75 68 67 68 70 74 75 73 70 69 70 70 69 65 65 55 51 49 51 56 61 66 63 60 59 61 66 67 66 65 61 56 55 56 56 54 54 52 55 55 55
67 67 68 69 70 69 67 71 70 67 65 67 69 68 68 68 68 67 67 66 66 64 64 65 57 52 56 58 63 65 64 65 59 56 62 62 59 58 60 60 60 60 62 64 66 68 62 61 60
74 71 64 59 55 68 70 65 61 60 63 66 65 64 68 69 68 67 66 66 66 68 69 64 64 60 61 66 65 68 65 58 58 62 63 65 61 61 63 66 65 63 68 74 74 72 67 64 61

GFSSGP_500_spd_006.txt.gz
Wind_Speed
10 11 10 11 12 12 13 12 12 11 11 11 10 9 9 8 7 6 5 3 4 3 2 2 2 3 3 2 5 6 6 6 8 9 10 12 13 13 14 14 14 15 16 17 18 18 20 19 17
11 11 11 11 11 12 12 11 11 12 11 11 10 10 10 10 11 9 6 4 5 6 6 5 4 5 5 4 4 5 5 5 5 7 8 10 12 14 15 16 16 16 16 17 16 15 16 16 17
8 8 9 10 11 11 10 10 10 10 10 10 9 9 10 10 10 10 9 6 4 5 7 9 9 8 7 8 8 6 7 8 6 6 7 9 10 12 14 15 16 16 17 16 15 15 16 15 14
9 8 8 9 9 10 11 10 10 10 11 9 9 8 7 8 10 10 9 8 7 4 6 9 11 11 11 10 10 11 11 9 9 10 10 10 11 12 13 14 13 15 15 15 16 15 16 16 15
10 9 9 10 10 10 9 10 10 8 8 9 10 10 7 8 7 7 7 7 7 6 5 5 8 10 12 14 14 13 14 14 15 14 13 13 14 14 14 15 15 14 14 14 13 13 14 14 13
11 11 12 12 12 13 13 13 13 12 11 11 12 14 12 10 8 9 9 8 8 8 7 7 7 8 10 12 15 16 17 16 17 18 18 18 17 17 18 18 19 18 18 17 16 17 17 15 13
14 13 14 14 15 16 16 17 17 16 17 17 17 17 18 15 13 13 12 12 11 10 10 9 10 10 10 11 12 14 17 18 19 19 20 21 21 20 20 20 20 20 20 19 19 18 17 15 14
17 17 16 17 18 18 19 20 21 20 21 22 21 21 21 20 20 18 17 16 15 15 13 11 11 12 12 12 13 13 14 16 17 19 21 22 23 23 24 25 24 24 23 21 21 20 20 21 20
18 18 19 20 20 19 19 20 23 21 21 23 24 23 23 22 23 23 22 22 21 20 20 18 17 17 15 15 15 16 16 16 16 18 20 20 22 24 26 27 27 27 27 25 24 25 25 25 25
20 20 20 21 21 19 18 19 23 22 21 25 24 27 24 24 25 25 25 25 26 27 25 25 24 23 22 22 20 19 19 19 19 20 21 21 22 23 25 26 27 29 30 30 29 28 28 28 28
24 24 25 24 24 21 19 21 22 24 19 26 25 27 27 25 25 26 27 28 29 30 32 32 30 30 28 28 27 25 24 24 24 24 23 23 25 26 26 27 28 29 30 32 33 33 32 31 31
30 27 29 27 28 27 26 24 24 25 20 28 25 23 25 26 26 26 27 27 29 29 31 33 35 34 35 34 32 32 31 30 29 29 27 27 27 27 27 29 30 30 30 32 33 34 35 34 34
33 31 31 32 32 33 35 27 34 24 29 31 29 27 28 28 28 28 26 27 29 29 30 32 32 33 34 35 37 37 36 36 35 33 32 32 31 32 31 29 29 30 32 32 33 35 36 37 36
32 30 30 30 32 39 40 32 35 27 37 34 33 32 32 30 32 29 30 29 30 31 33 34 32 33 30 32 34 38 38 39 38 37 37 37 37 36 35 33 32 31 32 33 34 35 36 37 36
37 36 33 30 35 40 43 35 34 36 39 38 35 34 32 32 33 34 35 36 36 33 34 36 38 37 33 31 32 33 35 37 38 39 40 40 41 40 39 38 37 36 34 34 35 36 37 38 37
39 41 39 31 35 45 47 42 31 38 40 37 35 32 33 34 36 39 38 37 37 35 34 37 39 40 38 35 32 30 29 31 33 34 36 40 41 42 42 41 41 40 38 37 38 38 40 41 41
43 49 46 36 32 46 52 49 35 35 39 33 33 33 33 35 38 41 39 38 36 35 33 33 35 37 39 39 35 32 29 30 32 33 36 38 40 42 43 43 43 43 42 41 40 41 42 42 42
49 50 48 47 37 44 47 50 43 35 36 32 30 31 36 39 39 37 37 40 41 38 33 29 28 32 36 38 39 37 35 32 34 35 38 40 40 41 42 43 44 45 45 44 43 42 42 44 44
53 52 53 48 49 52 45 51 49 42 36 32 31 34 35 38 35 37 38 36 35 36 40 37 33 31 30 32 36 38 38 39 38 36 40 43 41 42 43 43 44 44 46 48 48 45 45 46 47
53 57 50 50 45 50 52 50 49 47 40 38 37 36 36 37 37 33 34 36 37 38 37 38 35 34 31 32 36 38 38 40 43 42 44 44 44 46 48 49 48 48 49 51 51 49 49 51 51
46 49 52 53 47 46 51 52 53 49 42 44 41 43 43 42 42 43 43 43 40 38 35 31 31 30 34 35 34 38 40 41 43 44 46 46 49 49 51 52 51 50 50 50 51 50 50 52 53
52 49 51 55 56 54 51 56 53 58 53 55 54 54 50 50 47 44 41 39 41 42 41 40 42 42 41 40 41 43 43 43 44 46 47 48 50 49 50 50 52 52 52 49 47 49 51 53 51
50 51 49 50 56 58 55 55 57 59 60 57 59 55 55 51 39 40 45 55 50 49 50 48 48 49 48 46 44 44 47 49 50 50 50 50 50 50 49 50 51 52 53 53 53 51 49 49 49
47 49 52 52 52 60 57 56 59 55 56 49 53 57 48 36 40 42 45 55 55 59 58 57 53 55 57 55 52 53 51 50 53 53 53 54 55 55 54 54 53 54 53 54 55 55 54 52 52
54 55 57 61 60 59 61 61 65 61 59 58 57 58 60 58 60 61 58 59 61 60 59 60 60 57 55 56 54 54 56 55 55 57 58 57 58 59 61 60 58 56 54 55 55 57 57 55 54
62 61 60 62 65 68 65 69 64 68 67 69 67 66 67 68 69 71 72 68 66 63 60 57 55 48 47 53 53 55 59 63 62 61 63 64 65 66 66 64 64 62 60 56 56 57 60 59 58
64 63 59 61 63 67 73 75 75 67 71 73 71 73 72 71 73 73 70 70 72 71 67 64 59 58 54 54 61 61 59 62 66 68 69 71 72 72 71 70 69 67 65 63 60 60 60 59 59
52 62 63 64 66 70 71 72 73 67 67 67 65 64 65 67 69 72 73 71 70 69 71 68 63 61 63 63 65 61 59 61 64 71 71 72 74 74 72 71 69 70 68 67 63 59 59 60 60
61 65 66 63 65 69 70 69 64 63 68 68 66 66 67 65 63 64 67 70 70 68 66 68 67 64 63 67 62 62 64 65 67 70 71 75 78 77 73 70 65 66 68 68 69 63 59 61 60
59 55 53 57 63 64 63 66 59 49 48 60 68 68 68 69 68 68 68 63 63 65 67 69 70 68 64 65 63 66 68 68 70 72 72 72 73 73 70 70 67 62 63 68 69 67 62 64 66

GFSSGP_500_spd_009.txt.gz
Wind_Speed
9 9 9 10 10 11 11 10 10 9 9 8 8 8 8 9 10 9 5 4 7 5 4 4 3 3 2 1 3 6 5 5 6 7 9 11 11 11 10 13 16 16 14 16 15 17 15 17 16
8 8 8 8 8 9 8 8 7 7 8 8 7 7 6 7 7 7 8 6 6 9 8 7 6 7 7 6 6 4 5 6 6 7 7 8 10 12 14 15 14 16 16 18 16 18 19 19 18
6 7 7 8 8 7 6 6 6 7 6 6 6 5 6 6 8 7 6 6 5 6 10 11 10 10 10 9 8 8 8 8 7 6 8 10 10 12 14 15 17 17 17 20 19 19 19 19 17
8 8 8 9 8 8 7 7 6 7 9 9 7 5 7 7 7 7 6 5 5 4 6 10 12 13 13 12 12 12 11 10 10 10 10 10 10 11 12 14 15 15 15 18 17 18 18 19 19
10 10 11 12 11 11 11 10 10 11 11 12 13 12 8 8 8 8 8 8 7 6 5 6 8 11 14 16 15 14 14 15 15 13 12 13 13 13 13 13 14 15 17 17 16 16 16 17 17
13 13 13 14 15 16 16 15 14 14 14 15 16 18 17 14 12 13 12 11 10 10 9 7 7 8 9 12 16 18 18 18 18 18 17 17 16 16 16 16 16 16 16 16 16 15 16 17 17
15 14 14 15 17 19 19 19 20 21 20 19 20 21 22 20 18 16 16 16 15 13 12 11 11 11 11 11 12 14 17 20 20 20 21 21 21 20 19 20 20 21 21 21 20 20 20 19 19
17 16 15 16 18 20 20 21 21 22 23 23 22 23 25 22 23 22 20 20 19 19 18 16 15 14 13 12 13 12 14 16 19 21 22 23 23 24 24 24 24 24 24 24 24 24 22 21 21
17 16 16 18 18 20 18 21 19 22 22 25 22 25 25 24 24 24 24 23 23 23 22 23 22 21 19 17 16 15 15 16 16 16 18 20 22 25 27 28 29 29 29 29 27 26 26 25 25
18 18 22 21 22 21 22 21 21 21 22 23 24 25 24 23 23 23 25 25 25 26 27 28 26 26 26 25 23 21 19 19 19 19 19 19 20 21 23 26 29 31 32 33 33 31 30 29 29
21 24 27 25 26 26 26 26 25 25 22 27 28 26 25 21 20 21 24 25 27 28 30 31 31 29 28 29 30 29 27 25 24 24 24 23 22 23 23 25 26 27 29 32 34 35 35 34 33
30 30 29 29 29 29 30 29 30 29 24 31 29 29 27 26 26 26 26 28 27 28 28 29 30 29 29 30 33 33 32 32 31 31 30 29 28 27 27 28 27 27 29 30 30 32 35 37 38
31 28 28 29 28 31 33 31 35 26 34 33 32 31 31 31 30 31 31 30 29 28 28 30 30 30 29 29 30 31 33 35 36 35 35 35 34 33 34 33 32 31 30 30 31 32 33 34 36
32 31 30 29 31 34 33 28 33 31 34 33 34 34 34 35 35 36 34 29 30 29 29 31 30 33 33 31 29 29 30 32 34 35 36 38 38 38 38 38 38 36 35 34 33 33 34 34 35
36 36 34 32 34 38 40 29 33 35 35 33 33 34 36 37 38 40 37 34 33 31 31 32 34 37 37 36 34 33 31 31 31 32 33 36 38 39 40 42 41 40 40 39 38 37 35 35 36
40 42 38 35 36 45 47 34 32 35 38 33 34 34 36 37 40 41 39 36 37 36 34 34 34 37 39 39 38 36 35 33 31 31 31 32 34 35 38 39 41 42 42 42 42 41 39 38 38
45 48 45 41 37 47 51 44 34 36 39 33 31 36 35 37 41 39 38 39 39 38 35 33 34 36 38 39 39 37 35 33 33 32 31 32 35 37 39 40 41 41 42 43 44 44 43 42 40
48 50 51 51 39 46 49 54 45 39 38 33 31 33 36 35 35 39 39 38 40 38 37 35 34 32 34 35 36 37 37 36 37 37 35 37 39 42 43 42 42 42 42 42 42 44 46 46 44
50 53 54 52 52 52 47 51 48 45 34 35 36 37 37 38 37 37 38 37 35 35 33 34 32 33 35 37 39 41 41 40 40 41 40 41 42 43 46 45 44 44 43 43 44 45 45 46 46
52 56 57 57 56 56 54 49 46 50 44 40 38 39 40 38 38 38 37 38 39 39 39 37 37 41 37 33 36 36 39 42 43 42 42 42 44 45 47 48 47 48 50 49 49 48 48 49 49
52 54 55 56 55 55 58 57 54 49 47 45 45 43 40 43 43 41 40 41 43 40 38 37 35 36 36 32 30 33 36 38 38 40 43 44 48 51 53 55 54 52 53 53 53 51 50 49 49
51 51 53 56 56 57 57 59 50 50 51 52 47 46 48 45 47 48 47 44 42 42 42 39 37 39 41 43 45 44 43 43 44 44 43 45 46 48 51 55 57 56 56 55 55 55 53 52 49
51 50 48 49 52 54 52 57 57 55 57 58 56 52 52 50 44 40 42 39 36 34 38 40 48 53 52 54 52 51 51 52 50 49 50 50 49 50 52 54 55 54 53 55 56 55 55 56 53
50 51 53 54 55 59 58 59 62 60 63 63 63 59 55 52 53 50 47 48 42 44 42 49 55 59 55 54 55 57 58 55 53 53 54 56 55 55 55 56 58 58 55 55 56 57 59 60 59
50 53 57 61 62 63 60 65 65 64 65 65 64 63 62 62 59 59 58 58 56 56 60 66 65 66 62 61 63 63 63 65 63 60 58 58 59 60 62 61 61 61 61 60 61 61 62 65 64
59 59 59 62 64 68 67 72 69 68 69 71 72 70 69 69 69 68 69 67 66 68 70 70 69 70 70 69 67 67 70 68 69 67 65 66 64 65 68 69 68 69 69 66 66 66 64 64 66
62 59 60 61 61 62 68 69 63 69 69 68 69 70 72 72 72 73 71 69 68 67 68 69 70 70 69 68 68 62 61 64 68 69 70 72 69 69 71 74 74 75 74 74 71 67 64 66 66
59 57 56 52 51 55 63 66 70 61 65 64 64 65 65 68 69 69 70 72 69 66 68 69 69 69 70 70 68 70 68 68 71 73 77 80 70 74 78 75 75 79 81 78 74 73 71 65 66
57 58 57 58 61 66 68 66 62 60 60 60 62 65 68 66 68 70 70 67 71 71 72 72 72 71 68 68 66 69 74 74 78 80 80 80 74 76 82 76 73 74 75 80 82 79 74 72 66
59 57 53 52 60 61 61 60 51 56 63 68 68 68 66 68 66 66 68 71 74 78 76 74 73 71 70 71 71 69 70 77 82 85 83 83 77 79 78 79 78 75 74 75 78 78 78 77 72

GFSSGP_500_spd_012.txt.gz
Wind_Speed
8 8 8 8 8 9 12 9 9 8 7 7 8 8 7 8 9 9 7 3 6 6 4 3 4 4 2 3 3 3 3 4 6 9 10 11 11 13 14 15 16 15 17 18 19 18 15 13 12
7 7 7 6 6 9 9 7 6 6 7 6 6 7 7 7 7 6 8 7 5 7 9 8 6 6 7 6 5 4 4 5 6 6 7 8 11 12 12 12 14 12 14 15 15 15 14 14 14
8 8 9 9 9 8 6 6 8 8 8 7 7 6 7 7 8 8 6 6 6 5 8 11 11 9 8 9 9 7 7 7 7 6 7 8 9 10 13 14 13 13 15 16 17 16 16 16 17
10 10 11 11 11 9 8 8 9 10 12 12 10 8 9 8 8 9 9 8 6 6 6 7 10 12 12 12 12 12 11 10 10 10 9 8 9 9 10 13 15 16 16 16 16 17 18 18 18
11 12 13 14 15 14 13 12 12 14 15 14 16 17 12 11 10 10 11 10 9 8 7 8 7 8 11 14 14 15 14 15 14 13 12 11 11 11 10 12 13 13 14 16 16 17 17 17 17
13 13 14 15 17 16 16 17 17 17 18 18 19 20 21 18 16 14 14 14 13 12 10 10 10 9 8 9 12 15 17 17 17 18 17 15 14 14 13 13 13 13 14 14 16 16 16 14 15
15 13 15 14 16 17 15 18 19 20 20 21 20 22 23 19 21 19 19 17 17 16 15 13 12 12 13 12 11 11 13 16 20 20 20 20 19 18 17 17 17 18 17 17 18 19 17 17 18
16 14 14 13 17 18 17 19 19 19 20 20 21 22 22 21 21 22 21 21 20 20 20 19 18 16 15 14 13 13 13 13 14 17 20 22 22 21 21 21 21 21 21 21 22 22 22 22 22
17 15 15 17 20 21 20 17 21 19 20 22 20 22 23 19 21 20 21 21 21 22 21 22 22 22 21 20 18 17 16 15 16 15 15 16 19 22 23 24 25 25 25 26 26 26 26 26 25
19 17 18 21 23 25 25 24 24 22 24 25 25 24 23 23 22 20 20 19 19 21 23 24 25 25 25 24 24 24 23 21 20 19 19 18 17 19 19 21 23 24 26 29 30 30 31 30 29
21 23 25 26 28 27 28 28 28 27 24 30 28 25 26 26 23 22 24 24 21 21 22 24 26 27 28 28 27 28 27 27 26 25 24 24 21 21 22 23 22 23 23 25 27 30 33 34 35
24 27 30 28 29 25 27 27 29 25 25 31 30 29 28 29 32 30 28 28 27 25 23 22 25 24 26 28 27 27 28 29 31 31 29 29 28 27 28 26 27 26 26 26 27 28 29 31 34
29 28 29 30 29 30 29 29 30 25 26 26 29 30 30 32 35 37 32 30 30 28 27 24 22 25 25 27 28 27 27 27 29 31 31 31 32 32 33 33 33 32 31 29 30 29 29 30 31
32 32 30 31 33 33 29 28 33 29 27 28 29 32 34 35 37 38 38 33 29 28 28 28 28 27 29 28 29 30 30 29 27 29 29 30 31 33 34 35 36 36 37 34 35 33 32 32 31
34 37 35 35 38 38 35 29 35 35 32 26 29 34 35 38 39 35 33 35 34 33 31 31 30 30 32 34 34 35 34 34 32 32 31 30 31 32 34 36 37 38 39 39 39 37 37 36 35
39 40 39 39 40 42 42 33 32 37 38 32 35 34 36 40 39 36 36 35 36 36 33 32 32 31 30 33 34 33 34 36 37 36 36 34 33 34 33 35 37 38 39 39 39 40 40 40 39
40 45 45 46 40 44 47 45 34 37 37 38 37 37 38 37 35 36 35 35 36 35 35 36 34 33 33 32 35 37 34 34 35 37 39 38 38 38 36 37 38 39 39 40 40 40 42 43 43
45 46 48 49 46 46 48 48 50 41 39 39 38 37 38 31 32 34 36 36 34 34 33 34 33 32 34 36 33 33 33 33 33 34 36 39 40 43 42 41 42 42 41 42 42 43 44 45 45
50 54 54 50 49 51 47 50 53 51 41 36 38 44 40 34 34 35 35 36 37 35 31 32 33 31 31 34 35 36 36 37 38 36 37 36 38 41 45 45 46 46 46 46 46 45 45 45 47
54 57 56 55 52 53 50 50 45 47 48 51 41 37 39 40 37 36 37 38 39 38 39 37 36 37 39 37 39 40 40 39 36 37 35 36 36 36 39 44 48 48 49 51 49 47 48 49 48
54 53 53 53 52 51 53 56 53 45 44 45 42 38 35 36 37 38 35 36 38 38 40 39 37 38 38 40 40 36 36 38 35 36 36 39 38 38 38 40 43 46 49 53 54 54 53 53 53
47 47 47 47 49 54 55 58 51 46 52 53 49 46 43 43 43 43 44 44 42 43 43 41 37 36 38 40 41 40 38 42 44 46 48 46 46 46 44 44 47 47 48 51 52 53 53 56 57
47 46 48 50 51 52 53 52 53 53 57 58 55 54 48 45 45 40 42 45 45 46 48 48 46 39 42 44 48 49 54 51 52 51 53 54 55 55 54 53 52 52 52 52 52 52 52 52 53
50 51 50 50 52 56 53 56 60 55 56 60 56 52 54 49 44 38 37 43 50 48 47 48 48 47 50 50 54 57 60 65 62 60 57 56 59 61 62 63 62 62 60 59 58 57 55 54 55
47 48 50 54 55 55 57 60 58 60 61 62 60 60 58 53 52 45 51 55 57 54 55 55 55 58 55 59 60 65 68 73 70 67 65 64 66 66 65 66 67 68 68 67 65 64 62 61 61
49 50 50 54 55 57 56 60 58 56 58 62 57 56 58 63 65 63 62 61 59 60 58 59 61 61 62 64 68 73 78 77 75 72 72 73 74 73 71 70 72 74 73 73 72 71 69 67 67
55 55 55 59 60 60 56 57 58 59 59 59 61 62 63 67 69 66 66 65 65 65 65 65 66 65 66 67 68 68 68 68 69 69 71 73 72 75 75 75 76 79 79 79 79 77 76 72 73
52 55 57 59 60 61 58 55 54 54 57 60 63 65 65 65 65 66 67 66 68 69 71 68 67 69 71 73 71 68 68 71 72 73 75 78 76 76 78 80 77 75 78 80 81 80 79 76 73
51 52 52 55 56 59 59 58 51 57 58 60 60 63 66 65 64 67 70 72 72 71 70 71 71 71 74 73 73 76 77 75 74 76 76 79 80 82 83 85 85 82 77 77 78 79 77 77 78
51 51 53 58 59 60 61 60 51 51 58 62 65 67 67 69 72 75 75 70 71 70 70 69 71 72 75 75 78 81 82 80 79 81 78 76 76 84 90 90 90 88 87 87 86 84 83 78 78

GFSSGP_500_spd_015.txt.gz
Wind_Speed
8 7 7 9 10 9 13 12 10 9 9 8 8 8 9 10 10 9 8 5 4 4 4 4 2 3 3 4 5 3 2 2 6 10 12 14 14 14 12 14 15 14 16 15 15 15 15 14 14
8 8 7 8 9 10 12 10 9 8 9 8 8 8 8 8 8 8 7 7 7 5 5 6 6 5 5 4 4 3 2 2 4 5 7 9 11 12 13 12 12 12 14 12 13 14 14 14 12
7 8 8 10 11 12 11 10 9 10 10 10 9 9 9 8 9 9 9 8 8 8 6 5 8 9 8 8 7 7 6 6 5 4 5 6 7 10 12 11 11 11 12 14 12 12 13 14 15
10 9 10 10 12 13 12 12 12 12 13 13 11 10 11 12 12 11 10 9 8 9 9 8 6 7 10 11 11 10 10 10 9 8 8 8 7 8 9 11 14 13 13 13 14 14 15 15 16
12 12 14 12 11 11 12 12 13 14 14 16 17 16 14 13 14 14 14 13 11 9 10 9 8 7 7 9 12 13 13 13 13 13 11 10 9 9 10 9 10 12 14 14 14 14 15 15 15
13 13 14 15 13 10 11 14 15 15 16 16 18 19 17 16 15 14 15 15 15 13 12 11 10 9 9 8 8 11 14 16 17 16 15 15 14 12 12 12 12 12 12 14 14 14 15 14 14
15 14 16 16 13 13 12 16 16 16 16 16 16 18 18 16 18 17 15 15 15 16 15 15 13 12 11 10 10 10 11 12 14 17 18 19 18 18 17 16 15 15 16 15 15 16 17 16 16
17 14 16 16 14 16 16 15 18 16 19 16 19 20 19 17 16 16 16 15 16 16 17 18 18 17 16 15 14 12 12 13 13 13 14 17 20 20 21 20 19 19 18 18 19 19 20 20 19
18 15 18 17 18 19 20 20 20 19 20 23 20 22 24 19 18 16 16 15 15 17 18 18 20 21 20 20 20 19 18 16 15 15 15 14 15 16 19 21 22 22 23 23 23 23 23 24 24
17 18 20 22 22 24 28 26 22 22 21 24 22 24 25 23 22 21 18 17 16 17 18 19 20 22 24 23 23 23 23 22 21 20 19 18 17 17 17 17 19 20 21 23 26 28 28 28 28
19 21 23 25 26 26 25 25 23 20 21 26 22 23 27 30 25 21 22 21 20 20 22 22 23 22 23 25 26 26 25 25 25 26 25 24 23 21 22 21 21 21 21 22 24 24 27 29 31
22 24 25 27 28 28 26 26 24 22 22 22 26 26 27 30 32 30 26 24 24 22 21 21 24 24 23 23 24 24 25 25 24 25 26 29 28 27 26 27 26 26 26 25 26 26 27 28 29
25 25 27 29 30 28 27 29 28 25 22 25 29 29 31 33 31 32 31 29 28 27 25 25 23 23 25 24 25 26 27 28 27 26 25 26 30 32 32 32 31 31 32 31 31 30 30 29 29
28 29 29 30 31 32 31 29 29 30 27 27 30 32 34 35 33 33 33 32 31 29 28 27 24 25 27 27 27 29 29 30 31 31 30 28 28 29 32 34 33 34 35 35 36 35 35 33 33
32 34 31 34 37 35 35 32 33 33 31 27 32 33 37 34 33 33 34 35 33 31 30 30 29 27 28 31 32 32 32 32 32 34 34 33 32 31 32 33 32 34 37 38 39 39 37 37 37
36 39 36 36 38 38 40 35 29 36 34 31 34 37 36 35 33 31 33 34 33 33 32 30 30 31 29 30 33 33 34 34 33 32 35 36 37 37 38 38 36 37 37 38 39 40 39 39 39
40 43 41 41 39 39 42 41 38 33 36 35 37 35 34 33 32 31 33 32 31 32 32 30 28 31 32 33 35 36 36 36 35 35 36 37 37 39 41 42 41 40 40 41 42 41 40 40 41
43 42 43 44 43 47 46 43 44 41 36 38 38 32 31 34 36 36 33 33 33 30 32 32 29 28 31 31 31 34 36 37 37 34 34 34 34 35 39 42 44 44 43 43 45 46 44 42 41
42 44 47 46 47 53 50 48 47 44 41 42 37 35 35 36 35 34 35 33 33 32 32 31 31 30 31 32 34 34 35 36 38 40 38 39 40 39 38 38 40 45 46 47 49 50 48 47 46
46 50 51 53 51 53 49 46 43 39 45 46 47 38 32 30 32 33 34 34 33 32 31 31 31 31 34 35 36 38 41 42 40 42 42 42 38 36 38 40 41 40 42 46 51 53 52 51 48
49 50 50 52 50 48 49 51 42 37 45 44 42 43 40 37 36 38 39 40 40 39 37 36 34 33 32 32 35 41 42 43 44 42 40 42 42 39 37 40 42 43 43 45 47 50 53 54 51
45 45 46 45 47 48 49 53 49 48 49 44 44 47 47 45 42 40 40 42 43 44 45 45 42 41 38 38 39 38 43 46 46 47 45 44 45 47 49 48 49 49 49 47 49 51 52 53 54
47 48 48 46 47 51 50 53 50 52 51 51 51 50 48 46 42 41 40 37 37 40 45 47 49 48 48 44 45 45 44 48 51 54 52 50 51 55 55 55 55 57 58 57 56 55 55 56 56
45 45 47 48 50 52 49 52 51 53 52 51 51 49 45 42 38 41 45 38 35 37 43 48 53 52 52 54 52 51 51 54 57 57 62 64 63 62 63 62 59 61 62 64 64 64 64 63 63
43 45 47 50 51 52 51 53 52 50 51 53 53 51 46 43 45 50 49 44 42 44 48 55 59 59 57 54 55 57 59 63 62 65 65 69 73 72 70 70 71 68 68 69 69 70 71 72 71
46 47 44 49 51 53 55 56 53 55 58 53 51 51 50 48 48 52 51 52 56 60 62 61 61 62 61 59 60 61 63 65 72 70 74 77 78 78 81 81 81 77 76 76 76 75 76 78 78
48 53 59 64 61 56 56 53 50 49 51 51 52 53 54 56 58 60 63 64 68 63 63 64 65 66 67 67 67 67 67 68 70 71 73 76 80 82 82 81 77 75 77 81 82 82 80 82 82
56 57 57 55 55 56 54 49 49 50 48 49 51 54 56 59 61 65 66 68 68 67 66 66 67 68 72 74 75 73 69 68 71 74 76 78 78 78 77 77 76 75 78 81 84 84 84 84 87
53 53 51 50 53 55 55 53 50 53 53 55 55 55 58 60 64 67 70 71 71 71 72 74 75 74 75 74 74 75 71 73 73 73 74 78 80 81 82 80 79 77 79 84 87 87 88 87 85
49 47 49 52 54 56 58 58 51 54 54 55 58 60 64 67 69 71 74 78 78 80 83 82 73 67 75 83 79 78 76 75 76 79 79 80 84 86 86 88 89 88 84 84 83 85 92 93 92

GFSSGP_500_spd_021.txt.gz
Wind_Speed
7 8 8 9 10 11 10 9 9 7 7 7 10 11 11 10 12 13 12 10 10 7 3 2 2 3 3 3 4 4 4 2 1 6 9 10 10 12 14 15 17 16 13 13 14 16 20 21 21
6 7 8 8 8 9 11 11 10 9 7 8 8 10 10 10 9 9 9 9 8 8 7 4 3 4 3 4 3 2 1 1 1 2 4 5 7 8 10 13 12 13 13 11 11 11 15 14 15
7 9 9 10 9 10 11 12 13 11 11 11 10 9 9 10 9 9 9 8 7 7 6 6 5 3 6 6 4 4 4 3 3 3 3 4 5 7 7 9 10 12 12 12 10 10 11 12 14
9 11 12 11 12 11 11 10 11 13 13 11 11 11 10 10 10 11 11 10 9 8 7 7 6 6 5 5 7 7 7 7 7 7 6 7 6 6 7 8 9 11 12 11 11 11 13 14 15
12 14 14 13 12 13 10 10 11 13 14 13 10 9 8 10 11 12 12 12 12 11 10 9 8 7 7 7 5 6 8 10 10 10 10 10 10 9 9 9 9 10 12 12 13 13 13 14 15
14 16 15 14 11 12 11 13 13 14 14 16 15 12 9 8 8 9 9 11 12 12 13 12 11 10 10 9 8 9 8 9 10 12 13 14 14 13 13 12 12 12 12 13 13 14 15 16 16
15 17 16 13 9 10 11 15 16 17 18 18 18 17 14 11 11 10 11 12 13 13 14 14 14 14 13 13 13 12 11 12 12 12 13 13 16 18 18 17 18 17 16 16 16 16 16 17 18
19 19 16 15 12 11 13 16 18 21 21 19 21 20 18 15 13 13 13 12 13 12 12 13 14 16 16 16 16 16 16 16 16 15 15 15 16 18 20 21 22 21 22 21 21 20 20 20 20
21 20 17 16 14 15 16 18 19 20 20 20 18 20 18 16 15 16 17 16 15 15 15 15 14 15 16 17 18 19 20 21 21 21 20 18 18 19 19 20 22 24 25 25 24 24 24 23 23
23 21 19 18 18 19 19 20 21 20 18 21 22 19 17 17 16 15 15 17 18 17 17 18 18 18 18 19 19 21 22 23 24 25 25 25 23 23 23 23 24 24 24 26 27 27 27 27 27
22 19 19 21 21 22 22 24 23 23 21 21 21 25 23 20 20 18 17 18 18 19 20 21 22 23 22 22 22 23 23 24 25 27 28 28 28 28 29 28 28 28 28 27 27 27 27 28 28
18 19 21 25 24 24 24 24 24 26 27 28 25 23 25 27 26 25 21 19 19 21 23 23 25 26 27 27 28 27 27 28 27 28 28 29 30 30 32 33 33 32 32 32 32 31 30 31 30
18 24 25 26 28 27 26 26 26 28 29 29 30 28 25 25 26 27 27 26 24 22 22 24 26 27 29 29 30 32 31 31 31 30 30 30 31 31 32 33 34 36 37 37 37 37 36 35 34
25 25 26 27 29 27 28 28 27 29 29 28 27 27 29 29 28 29 30 31 31 30 27 26 27 28 29 31 32 33 33 33 33 34 34 33 33 34 35 35 35 36 37 40 41 41 41 40 40
29 27 26 28 28 31 30 28 29 30 30 29 29 31 31 30 30 31 30 30 30 30 29 27 26 29 30 31 33 34 35 35 35 35 36 37 37 37 38 39 39 40 40 38 39 41 43 45 45
30 29 29 31 30 31 32 26 27 32 31 32 33 33 33 33 32 32 31 30 29 28 27 29 31 30 29 32 34 34 36 37 38 38 38 38 38 40 41 42 43 45 46 44 43 43 42 43 44
31 32 28 27 29 33 34 28 26 30 34 35 37 37 34 32 31 31 30 30 33 33 31 29 29 32 33 32 32 34 37 37 38 39 40 41 41 41 41 43 45 47 49 50 49 49 49 48 48
33 33 33 29 29 35 37 35 34 33 35 36 35 34 32 32 34 34 33 32 33 32 32 31 27 28 31 34 35 35 36 40 41 39 40 41 42 42 42 42 45 46 49 51 54 53 54 54 54
38 37 37 32 34 36 37 39 37 38 34 33 33 32 31 31 33 37 38 37 37 35 34 34 33 34 32 32 34 36 40 40 42 44 45 44 44 44 45 44 44 45 48 49 51 53 55 56 56
40 40 37 37 36 38 37 36 32 34 37 35 33 33 35 36 35 36 36 37 38 39 39 40 40 37 38 38 37 38 40 43 45 47 48 50 51 50 49 49 49 49 50 51 52 54 55 56 56
38 35 35 37 33 37 41 42 35 35 37 36 35 37 38 39 40 40 39 39 39 40 41 43 44 45 44 43 44 44 45 45 46 48 50 52 52 53 54 53 51 50 51 53 53 53 52 54 57
37 35 37 38 41 43 43 46 44 37 37 37 39 39 39 40 41 41 41 42 41 40 40 41 42 45 47 47 47 48 48 49 50 50 52 53 55 56 56 56 56 57 56 55 55 56 57 56 55
35 36 37 40 42 46 44 43 45 43 39 40 42 42 40 40 41 42 48 51 52 52 50 50 50 51 52 52 52 51 52 54 55 55 56 57 57 59 60 62 62 62 63 65 65 64 63 61 59
38 37 41 45 45 48 38 42 53 47 44 45 44 44 41 44 50 56 58 54 54 54 53 53 53 53 53 53 54 53 57 59 60 61 62 64 65 64 64 65 69 70 68 67 70 72 73 73 74
43 45 45 48 46 47 44 47 49 45 46 47 46 47 52 58 61 59 58 56 56 57 56 55 55 56 56 59 58 59 62 63 65 68 71 71 73 73 73 73 72 73 76 77 76 74 74 75 77
45 45 46 46 47 45 47 53 53 55 55 55 55 58 62 64 64 60 59 59 58 56 56 56 58 59 60 62 63 64 65 67 67 70 73 74 76 76 76 76 76 76 76 78 81 83 84 83 81
41 43 42 46 48 52 55 58 56 56 55 57 59 61 61 59 59 58 58 58 59 58 58 59 63 62 64 65 68 71 73 73 73 73 76 82 80 80 79 80 81 82 83 82 83 84 84 86 88
43 45 49 52 53 57 57 57 57 53 53 53 55 57 58 59 60 61 59 58 60 62 64 66 67 68 69 69 72 74 75 74 77 78 81 83 84 84 84 85 88 88 88 89 90 88 87 87 88
46 47 48 48 53 56 57 58 56 54 55 57 58 59 61 62 62 62 63 63 64 65 66 68 70 70 71 72 73 75 77 78 79 79 80 84 89 90 91 90 89 91 91 93 96 94 93 87 84
46 45 47 51 54 56 60 61 60 58 59 59 59 61 62 65 66 68 69 69 69 68 68 68 69 71 74 76 78 79 81 82 83 85 87 88 90 92 93 93 93 93 93 94 97 96 96 97 91

GFSSGP_500_spd_024.txt.gz
Wind_Speed
9 10 10 11 12 13 12 11 12 11 10 11 10 10 10 10 10 12 12 12 10 10 7 3 3 3 3 4 5 4 4 4 1 4 5 5 6 7 9 8 9 11 11 10 10 11 13 16 18
7 8 9 12 12 13 13 12 12 13 12 11 11 11 10 10 10 9 10 9 10 10 9 9 5 4 4 4 3 2 2 2 2 1 0 1 3 5 6 7 8 9 11 10 9 9 9 11 14
7 9 11 12 13 12 13 12 12 13 13 11 10 10 10 11 11 10 9 8 8 8 8 7 8 8 6 6 5 4 3 3 2 2 2 2 2 3 4 5 7 8 8 7 8 9 10 11 13
8 10 11 11 11 11 11 9 11 13 14 12 11 12 12 11 10 9 9 8 8 8 8 8 6 6 7 6 6 7 7 6 6 6 6 6 6 6 5 6 7 8 10 10 9 9 11 11 12
10 12 13 13 11 10 8 9 10 12 14 14 13 12 12 11 9 9 8 8 8 8 8 8 9 9 7 6 7 7 8 9 9 10 10 10 10 9 10 10 10 10 10 11 12 13 13 13 14
13 15 15 12 12 10 9 10 11 12 15 17 15 14 12 12 12 11 11 12 11 9 9 10 10 10 10 10 9 8 9 9 10 11 12 14 14 14 14 14 13 13 14 13 14 14 15 15 16
14 16 17 14 11 12 11 12 14 16 18 19 14 11 12 13 15 16 16 15 14 14 12 12 12 11 12 13 13 12 11 10 11 12 13 13 16 18 18 19 19 18 18 17 17 17 17 18 18
17 18 18 15 12 12 13 14 16 18 20 18 17 14 12 10 10 12 14 14 14 13 13 12 11 12 13 14 16 17 17 17 15 15 15 15 16 19 17 20 22 22 23 23 22 21 21 21 21
19 21 20 16 15 14 14 16 17 20 21 18 15 15 15 13 12 11 12 13 14 14 15 15 15 15 14 13 14 17 19 20 22 22 21 20 19 21 20 19 21 22 25 26 26 26 25 25 24
21 23 21 17 16 16 17 19 20 20 21 19 18 16 15 15 14 14 14 15 15 15 17 19 19 19 20 20 19 18 19 21 23 25 26 26 26 27 26 24 23 25 24 25 25 27 28 29 29
24 24 20 16 16 18 19 21 21 22 21 19 20 20 18 18 18 18 18 18 18 20 20 20 22 23 24 25 25 26 26 25 25 26 27 28 29 30 31 31 30 29 28 27 27 27 27 29 30
25 22 19 20 21 20 20 21 22 24 21 22 20 18 19 21 22 23 21 20 18 20 22 23 25 25 25 26 28 30 30 30 31 30 29 28 29 30 33 34 34 34 35 34 32 31 30 30 30
19 21 21 24 24 23 22 22 24 27 26 24 22 21 19 19 21 25 26 24 23 23 21 22 24 27 28 28 28 29 31 34 34 33 34 32 31 31 32 34 35 35 37 38 38 38 36 35 35
20 22 25 26 26 23 22 24 27 28 28 25 24 23 22 23 25 25 26 26 26 26 25 24 24 25 26 29 31 31 33 34 35 37 36 36 36 35 34 34 35 37 38 38 39 40 40 41 42
26 25 25 26 26 26 25 24 28 27 26 24 24 24 25 27 29 29 29 28 26 26 26 26 24 25 27 28 29 32 33 36 37 37 39 40 41 42 39 38 38 39 40 41 42 42 42 42 43
27 26 26 26 26 28 26 22 26 27 28 27 28 30 30 30 31 30 29 28 30 32 31 30 30 30 30 31 33 32 32 34 37 39 40 41 42 43 45 45 44 44 45 45 45 45 45 47 46
26 26 24 25 26 29 30 23 26 29 29 30 30 30 31 31 31 29 27 27 29 33 35 36 37 35 32 30 33 36 36 34 35 38 40 41 44 45 46 46 47 48 50 49 50 50 50 49 48
31 30 29 27 30 34 35 32 27 30 30 31 32 30 29 28 29 30 30 30 30 33 35 37 38 37 36 36 35 34 36 37 38 39 41 44 44 45 46 48 48 49 51 51 53 54 52 53 52
33 34 36 32 34 35 34 34 31 28 28 29 31 31 31 30 31 30 31 32 33 35 36 37 38 40 42 42 40 40 39 40 41 42 43 45 47 48 47 48 50 50 50 50 51 53 55 56 57
37 40 37 35 34 34 32 32 28 28 32 33 32 31 31 30 30 32 34 35 36 34 37 38 40 41 43 46 48 47 47 45 45 46 47 48 49 50 53 54 54 55 54 55 55 55 55 55 57
43 39 35 35 33 34 36 38 29 32 35 35 34 32 33 33 36 36 37 38 38 38 35 38 40 41 43 44 47 49 50 50 50 51 53 54 54 53 54 54 56 56 57 57 57 56 55 56 58
39 36 37 35 36 37 39 47 42 36 37 35 34 32 34 37 38 40 41 42 43 39 40 44 48 51 51 51 51 54 55 55 57 57 57 58 59 59 59 59 59 58 58 58 58 59 60 59 60
36 37 37 38 40 43 40 41 45 44 37 34 34 34 33 35 37 40 40 45 45 46 52 56 56 56 57 57 58 59 61 62 62 61 62 62 64 65 65 65 63 63 62 62 61 60 61 62 66
37 37 39 42 44 46 37 42 43 43 40 38 38 38 39 41 41 42 43 49 55 58 61 62 58 58 58 59 59 59 60 61 62 63 65 65 66 67 68 68 70 72 73 72 72 71 71 71 70
38 38 41 45 44 46 44 45 43 45 45 46 45 46 46 48 49 50 53 57 60 63 62 61 61 61 60 59 60 62 64 65 65 66 68 69 70 71 72 71 73 74 75 76 80 80 80 80 80
41 42 42 45 46 45 44 50 52 50 50 51 49 47 48 51 54 55 57 59 60 60 60 61 61 62 64 63 63 65 65 67 68 69 70 71 72 74 76 79 78 78 81 84 83 86 82 81 80
42 44 41 44 47 49 49 52 52 54 52 50 48 48 49 51 55 57 58 60 62 61 61 62 64 66 66 68 67 66 67 71 73 72 74 75 78 79 79 82 84 84 86 86 87 90 89 88 87
44 47 49 48 50 56 56 55 57 54 51 51 53 53 53 57 59 60 63 65 65 65 65 67 68 67 68 67 69 70 72 73 74 72 73 74 75 77 79 81 84 87 88 90 91 92 94 94 95
46 51 52 49 53 58 62 64 63 61 56 56 56 55 57 58 60 63 64 65 66 68 70 70 70 70 70 70 70 70 70 72 74 75 77 80 82 84 86 88 89 91 92 92 93 95 95 96 98
51 50 52 54 53 56 62 66 64 59 57 56 56 57 59 62 64 66 67 68 70 72 72 72 71 69 69 69 70 72 74 75 77 79 81 82 84 86 88 89 91 92 93 94 95 96 97 97 97

GFSSGP_500_spd_027.txt.gz
Wind_Speed
11 12 14 14 15 15 15 14 14 14 14 12 11 11 10 10 11 11 12 13 12 11 11 7 4 4 4 4 5 4 5 4 2 5 7 7 6 6 6 9 9 9 11 11 11 11 12 13 16
9 10 12 14 13 13 13 11 12 15 15 14 13 13 11 10 10 10 9 9 10 10 9 8 7 4 3 1 1 1 1 2 3 3 2 3 4 4 5 6 7 7 8 8 9 10 9 11 13
9 11 11 12 11 11 9 8 9 13 15 15 15 14 14 12 9 8 7 6 6 6 6 7 6 7 7 6 4 3 2 2 2 2 3 4 4 5 6 7 7 8 8 9 9 9 9 11 13
9 11 12 11 10 9 8 8 9 11 13 13 13 13 12 12 11 10 9 7 6 5 5 6 6 6 6 7 8 7 6 5 5 6 5 5 6 6 7 8 9 9 10 10 11 11 11 13 13
8 10 12 13 10 8 7 6 8 10 12 14 10 9 10 11 11 10 11 11 12 10 8 7 8 8 8 7 6 7 7 7 8 10 9 10 9 10 10 10 10 11 11 12 13 14 15 15 16
9 11 14 14 12 9 7 7 8 11 13 14 11 7 7 8 10 10 10 9 9 10 10 9 7 8 9 11 11 10 9 9 9 9 10 12 14 14 15 15 15 14 13 13 14 15 16 17 18
10 13 15 15 12 10 8 8 8 11 13 11 8 9 8 8 9 10 11 11 9 9 8 9 8 7 7 9 11 13 14 14 14 13 13 13 15 14 15 19 18 18 19 18 17 17 18 18 19
13 14 16 17 13 11 10 10 11 12 13 12 9 8 8 8 8 9 10 12 13 12 11 11 12 12 11 10 10 12 14 16 17 18 18 18 19 19 16 18 19 20 22 23 22 22 21 21 21
16 16 17 17 14 11 11 12 13 14 13 12 10 10 9 7 6 7 8 11 12 13 15 17 17 16 16 17 17 17 16 17 18 20 21 22 23 24 24 21 22 23 23 22 22 24 25 25 25
18 19 19 18 14 10 12 14 15 15 14 14 10 10 10 9 9 10 12 13 13 13 14 16 18 20 21 22 21 22 22 23 23 23 23 24 26 27 28 28 27 28 27 26 25 25 24 25 27
21 22 22 17 12 13 15 16 16 16 15 15 15 12 11 11 11 11 12 13 14 13 14 15 15 18 20 22 24 26 26 26 27 27 26 25 26 27 30 31 32 32 32 32 31 30 28 28 28
24 22 18 15 15 16 16 16 16 17 16 17 16 14 15 15 14 14 16 16 17 16 17 18 19 19 21 22 23 24 27 29 29 30 30 30 30 29 29 30 31 32 34 36 36 35 35 34 33
20 17 17 17 18 18 17 17 17 19 18 18 16 14 14 15 16 18 19 19 17 17 17 18 20 23 25 26 27 27 28 29 31 32 34 34 34 34 33 34 34 32 32 34 35 37 38 38 39
18 22 21 22 21 19 18 19 20 18 18 17 16 16 16 17 18 20 21 20 19 17 17 18 18 18 19 22 25 28 29 30 32 34 36 38 38 38 39 38 38 39 38 36 36 37 38 39 39
23 22 23 25 23 21 21 21 23 20 20 19 19 19 20 21 22 23 23 21 20 18 19 21 22 23 25 25 26 28 29 32 34 35 36 37 39 41 42 42 44 42 42 42 43 43 42 41 42
25 23 22 22 23 24 22 23 24 24 23 22 22 22 24 25 23 23 24 23 22 22 22 23 23 26 29 30 31 31 31 31 32 35 38 40 38 39 43 44 45 46 47 48 48 46 47 47 47
25 21 19 21 23 25 26 23 27 27 27 26 25 25 25 24 23 25 26 24 24 25 27 28 28 29 28 33 34 33 33 34 35 36 38 39 43 43 42 42 44 47 48 49 51 50 52 52 51
25 24 23 22 26 29 30 27 25 29 30 28 26 25 25 25 25 25 25 25 25 27 28 30 32 34 36 35 37 39 40 41 40 40 40 42 43 44 47 47 46 47 49 51 52 53 53 55 54
29 29 27 25 30 32 31 29 23 28 26 27 26 26 27 29 29 27 27 26 25 27 26 28 31 36 39 42 43 43 44 45 46 47 48 49 49 49 50 51 52 52 52 53 54 55 54 53 54
30 32 30 31 34 34 30 29 24 24 24 26 25 28 32 32 31 28 28 29 28 32 32 30 33 35 38 40 41 43 43 46 46 49 50 51 52 53 55 55 56 56 57 58 59 58 58 57 58
34 34 35 38 36 33 31 30 26 25 25 26 28 30 32 32 30 31 30 30 31 34 36 37 37 37 40 41 44 46 48 51 53 54 56 58 59 59 58 60 60 60 59 60 60 61 61 61 60
40 37 38 38 36 34 34 36 27 25 26 26 29 30 31 33 33 31 30 33 35 38 42 45 46 42 43 47 51 55 56 55 59 61 62 64 65 62 60 61 62 62 61 61 61 62 63 63 62
38 37 37 38 38 38 34 37 37 31 25 29 30 31 32 32 33 35 38 42 43 44 47 49 50 51 53 57 59 61 60 58 59 62 64 66 66 66 66 64 64 64 65 64 66 65 64 65 65
37 38 40 41 42 42 35 38 44 39 35 32 30 28 28 34 38 41 43 46 48 48 50 53 55 58 59 59 59 58 58 59 60 62 65 66 67 68 70 72 72 72 72 72 72 72 73 72 72
38 40 42 44 43 43 40 42 40 40 38 35 34 35 38 43 46 48 49 50 50 50 52 54 58 60 60 60 62 60 61 62 62 64 66 69 71 73 74 75 76 76 77 77 76 76 76 78 78
40 41 42 42 44 45 41 40 41 40 41 41 40 43 44 46 47 49 51 52 53 55 56 58 61 63 63 63 63 63 64 65 66 68 69 71 74 76 77 75 79 78 78 79 80 81 81 81 81
42 42 39 43 45 43 42 41 41 43 46 48 45 46 50 49 51 54 56 57 58 59 61 62 63 66 68 68 69 69 68 67 69 70 71 72 73 73 74 78 82 81 81 80 80 82 84 85 86
45 43 45 45 45 45 47 46 48 50 52 50 48 48 51 54 55 56 58 60 62 61 64 64 66 67 68 70 71 70 68 68 69 71 74 74 74 74 74 76 76 78 79 82 84 85 87 90 92
46 47 47 46 49 49 51 54 57 56 54 53 52 52 53 55 61 64 62 60 60 62 65 64 68 70 73 73 73 71 69 69 70 70 71 72 73 74 74 75 77 79 82 84 86 87 89 90 91
50 50 49 50 49 50 55 59 61 56 55 54 54 53 56 61 63 63 61 61 62 65 66 68 71 72 72 72 71 69 69 69 70 71 72 74 75 77 78 79 81 82 84 85 87 88 89 89 91

GFSSGP_500_spd_030.txt.gz
Wind_Speed
11 12 13 14 13 13 12 13 15 15 14 14 14 11 9 7 8 8 9 10 11 11 11 10 5 4 4 5 5 3 3 2 7 12 13 12 12 11 11 12 16 17 16 15 15 14 14 15 15
9 11 12 13 13 12 11 11 14 15 15 14 13 12 10 8 6 6 6 7 7 7 8 8 9 9 5 3 2 2 2 1 1 3 5 7 9 9 10 11 12 13 15 17 16 16 15 16 15
8 10 12 13 11 9 9 9 9 12 13 11 10 10 11 10 10 11 9 8 6 6 6 6 6 7 7 7 4 2 2 3 3 3 3 4 5 7 8 9 10 11 12 12 12 13 15 16 16
8 10 12 12 9 7 6 6 7 8 11 11 6 7 7 7 9 9 10 10 9 7 5 5 6 6 6 6 6 6 4 5 6 6 7 7 7 7 8 9 10 11 12 13 13 13 14 15 15
7 9 12 10 8 7 5 5 6 8 9 9 6 4 4 5 6 7 8 8 7 6 5 4 4 5 5 6 7 8 8 8 7 8 10 10 11 11 12 11 12 11 12 13 14 15 16 17 17
6 8 11 11 8 5 3 4 5 8 9 7 5 5 5 6 6 5 5 5 6 7 7 6 6 6 6 6 6 7 8 9 10 11 11 11 12 13 15 15 15 15 15 15 16 16 17 18 19
7 10 11 12 11 6 3 3 5 7 8 8 4 4 5 6 7 8 7 6 5 6 7 7 6 5 6 9 11 11 11 11 12 13 14 15 15 14 15 16 16 18 19 19 20 19 19 20 20
10 11 12 13 13 9 5 5 5 6 5 5 2 1 2 3 3 4 6 7 8 9 10 11 11 11 11 11 10 11 14 16 17 17 17 18 19 19 18 18 19 19 19 19 20 22 23 23 23
14 14 15 15 14 11 7 7 7 6 5 5 5 4 4 3 4 5 6 8 9 9 10 11 12 13 15 15 16 17 16 16 17 18 20 23 24 25 24 24 23 24 24 23 22 22 22 23 24
17 18 18 18 16 11 8 10 11 9 8 7 6 6 7 8 8 9 9 9 8 10 10 11 13 14 15 17 18 20 21 22 22 22 22 20 22 25 28 29 29 29 29 29 28 27 26 26 26
19 19 20 20 15 12 12 12 11 11 11 11 9 10 10 9 10 10 9 9 10 11 11 11 12 13 14 16 17 18 20 22 24 26 27 28 28 27 27 28 29 31 33 33 34 32 32 31 31
20 21 20 17 13 13 14 15 13 13 13 12 12 12 12 12 11 9 9 11 11 11 12 13 13 13 14 15 17 18 20 21 23 26 28 30 31 33 33 34 33 33 31 33 35 36 38 36 36
22 21 18 17 16 16 17 16 15 14 14 14 14 13 13 13 13 13 14 13 13 13 12 13 14 13 15 16 17 17 18 20 23 26 29 31 33 35 37 39 39 39 38 37 36 36 36 38 40
22 20 20 21 19 18 19 19 17 16 16 15 14 13 13 14 14 15 17 17 16 14 15 15 14 15 15 17 20 21 22 23 26 28 30 31 34 36 39 41 42 42 43 43 43 41 40 40 40
22 22 23 23 21 19 19 19 20 18 19 18 16 16 17 18 19 20 19 16 16 15 15 16 15 16 16 18 21 24 26 27 28 28 29 32 35 37 39 41 43 45 46 46 47 46 47 46 46
24 23 24 23 22 21 19 19 20 21 21 20 19 19 19 22 23 22 20 18 16 16 16 17 18 20 20 19 19 22 25 29 31 32 33 34 36 37 42 44 44 44 46 47 50 50 51 49 49
27 26 23 23 23 22 21 22 23 24 24 24 23 22 24 24 23 23 22 21 22 22 22 22 21 23 24 22 23 22 26 29 30 34 36 38 40 40 41 43 46 48 49 49 51 51 53 52 52
29 25 22 24 26 27 26 24 24 26 26 25 26 26 26 24 23 23 24 26 26 24 23 24 25 27 28 30 32 30 30 31 34 37 39 41 44 45 46 48 49 51 52 53 55 55 54 55 55
28 27 25 27 32 31 30 27 27 28 26 26 27 27 26 23 23 24 26 27 26 28 29 28 27 27 28 30 34 37 40 41 40 41 42 45 48 50 51 53 53 54 56 57 58 59 61 60 58
30 31 27 30 34 34 32 30 27 30 28 28 27 27 26 25 26 26 27 29 31 32 32 30 29 30 33 34 36 40 44 44 46 46 47 50 52 54 57 58 59 60 61 61 62 63 62 64 64
33 33 30 34 35 35 34 33 29 30 30 30 30 30 30 29 30 29 30 31 31 33 34 35 37 37 38 40 42 43 46 49 51 53 55 58 60 61 62 64 65 64 64 64 65 65 65 65 65
37 34 36 37 38 38 35 38 28 30 31 31 30 31 30 29 28 28 30 31 32 35 38 39 43 48 47 47 48 52 51 53 57 60 64 63 63 63 64 66 68 68 67 67 65 65 65 65 67
39 37 39 39 40 41 38 40 35 31 31 31 31 30 31 30 29 29 31 35 37 40 42 44 47 49 51 52 54 55 59 59 61 62 63 63 63 62 65 67 68 68 71 69 69 70 70 70 70
41 39 40 42 42 44 35 39 44 33 30 31 31 29 29 30 30 32 34 37 40 43 47 48 49 50 53 56 58 58 62 61 62 62 65 65 65 67 68 70 70 71 72 72 73 74 73 75 74
43 41 43 44 44 43 39 41 42 40 34 30 28 25 26 29 32 36 38 41 43 46 48 50 54 54 56 57 62 62 64 62 64 62 65 67 68 69 71 73 74 75 76 76 76 75 76 77 79
43 44 44 45 45 45 45 45 41 38 36 35 30 28 28 32 36 41 45 46 49 49 51 54 55 60 63 63 66 65 66 65 67 66 67 70 71 73 73 74 72 74 75 77 78 80 79 79 79
45 47 40 44 47 48 48 45 43 40 38 36 34 34 36 39 43 45 48 50 53 56 56 58 62 64 63 63 66 66 67 67 70 72 73 72 72 72 73 73 73 75 76 78 78 79 80 80 80
48 43 46 47 48 49 50 49 46 43 42 42 40 38 39 43 47 50 53 55 56 56 60 62 63 61 61 63 64 68 69 72 75 75 74 73 72 71 72 72 73 74 75 75 76 77 78 79 80
45 47 47 46 49 52 51 50 49 48 47 43 42 40 44 50 52 54 54 56 58 60 63 60 61 62 64 66 69 71 73 75 76 75 72 71 71 71 72 73 74 75 76 77 78 78 79 81 82
48 49 51 52 50 50 51 51 53 51 48 47 46 47 51 53 53 55 58 58 61 64 63 66 67 68 68 70 72 75 77 77 75 72 71 72 72 73 74 75 76 76 77 78 79 81 82 83 84

GFSSGP_500_spd_033.txt.gz
Wind_Speed
11 13 14 14 13 14 13 12 14 13 12 11 10 8 7 6 6 7 7 9 10 10 11 9 6 6 6 6 6 6 6 5 4 5 8 10 10 10 12 13 14 15 17 17 17 17 16 16 16
10 12 12 13 12 12 9 9 11 11 10 9 10 10 9 9 9 7 6 6 6 7 8 8 9 9 7 5 6 6 6 5 5 4 4 5 7 9 11 12 12 12 13 15 17 18 19 19 19
8 11 12 12 10 8 6 5 6 8 8 5 5 6 9 9 8 7 7 7 7 5 4 5 6 7 7 7 6 3 3 4 5 5 5 5 6 6 7 9 10 10 11 12 14 15 16 17 17
7 9 12 12 8 6 4 3 5 6 6 6 2 2 4 6 7 8 7 6 5 4 4 4 3 3 3 3 4 4 5 5 6 7 7 7 8 8 8 9 11 11 12 12 13 14 15 15 16
5 7 10 12 7 3 2 3 5 6 7 5 4 2 1 2 3 4 4 5 6 6 6 5 4 4 5 4 3 2 3 4 5 6 7 9 10 11 11 12 13 12 12 13 14 14 15 16 18
5 7 9 10 10 4 1 2 4 5 6 3 3 4 4 4 3 2 2 2 3 3 4 5 5 5 5 6 7 7 8 8 8 8 8 8 9 10 11 12 14 15 16 16 17 17 17 17 17
6 8 9 9 9 8 5 3 3 4 4 2 1 2 3 5 5 5 3 3 4 5 5 4 4 5 5 5 6 8 10 11 12 13 15 15 16 15 14 14 15 15 16 16 17 19 20 21 21
9 10 11 11 11 10 7 7 5 5 5 3 2 2 2 3 4 4 3 3 5 6 8 9 9 9 9 10 10 9 9 10 12 14 15 15 15 16 18 20 22 22 21 20 19 20 20 21 22
12 13 13 13 14 13 10 9 8 7 8 8 5 6 6 7 8 8 7 8 8 7 8 7 7 7 8 9 11 12 14 14 14 14 16 17 19 20 20 20 21 22 24 26 28 27 26 25 24
16 17 16 15 16 15 11 11 10 10 9 9 10 8 9 9 9 10 9 9 9 9 8 8 7 7 8 9 10 11 12 14 16 17 18 19 21 22 22 24 26 26 26 27 28 29 30 32 32
19 19 18 18 17 15 12 13 12 12 11 12 11 12 11 11 11 10 10 9 8 9 10 11 11 11 10 9 10 12 15 17 18 19 21 21 22 24 27 27 29 29 29 30 31 32 32 33 33
21 20 21 21 18 14 13 15 14 14 14 14 13 13 13 12 12 12 11 10 10 10 11 12 12 12 11 10 9 9 10 13 16 18 21 23 24 25 28 30 31 32 34 34 35 36 36 37 36
22 22 22 21 18 17 16 17 16 17 16 16 15 14 14 14 13 13 13 13 13 13 13 14 14 13 12 11 11 9 10 12 16 19 22 24 25 25 27 30 33 36 37 38 39 39 40 41 42
24 23 23 21 20 20 19 19 18 20 18 17 16 17 16 15 15 14 15 16 16 15 14 14 14 13 14 14 15 15 14 13 12 16 20 23 25 28 32 35 37 38 38 40 42 42 44 44 44
27 26 25 25 24 22 23 21 20 19 19 18 18 19 19 19 18 18 19 20 20 17 17 18 18 18 18 17 16 17 17 18 18 20 20 20 23 26 28 31 34 38 40 42 45 47 47 46 48
29 28 28 27 27 25 24 22 21 21 20 19 19 20 20 21 21 22 23 22 20 20 20 20 20 19 20 20 19 19 18 21 22 24 25 26 29 31 31 34 36 39 41 44 46 49 52 52 52
30 30 30 29 29 28 26 24 21 24 22 22 23 23 23 23 25 26 25 23 23 23 22 23 25 26 24 24 23 22 22 23 25 26 29 32 34 35 38 39 40 42 44 46 49 50 53 55 57
35 32 30 30 30 30 28 26 24 27 27 26 26 26 26 26 27 27 27 23 23 23 26 28 27 28 28 28 29 28 28 29 29 31 30 31 34 38 40 43 44 47 50 52 54 54 56 57 58
33 33 31 33 32 34 32 31 30 28 28 29 30 28 27 26 28 28 27 24 25 26 28 30 30 31 32 28 30 32 35 37 38 40 42 45 46 46 46 48 50 52 56 58 60 62 62 62 62
37 37 32 33 35 39 36 34 32 33 27 31 31 31 30 30 30 30 29 28 27 28 30 30 30 28 30 33 34 38 42 41 46 47 49 48 49 53 57 57 58 60 63 64 65 67 68 67 66
37 37 34 37 38 40 41 37 35 32 33 30 33 32 32 33 32 33 33 33 31 31 31 32 33 35 36 37 38 40 41 44 47 48 49 52 54 56 61 64 67 67 65 66 66 67 69 69 68
38 39 38 39 41 40 44 43 37 34 33 33 33 33 34 34 34 35 35 33 32 31 30 34 37 38 38 39 40 42 42 45 48 51 55 57 59 61 62 65 67 68 67 67 69 69 70 70 71
41 40 39 41 43 46 45 46 37 34 33 32 33 34 34 35 35 36 36 33 30 30 34 37 40 41 40 42 43 44 45 50 52 54 56 59 61 63 67 68 69 70 70 70 71 72 73 73 74
41 41 42 44 47 53 44 45 42 40 31 35 34 35 34 36 37 38 35 34 33 34 37 40 42 44 46 47 47 48 50 53 55 57 58 59 61 62 65 68 70 72 73 75 76 75 75 75 76
38 38 42 48 52 51 49 45 44 43 35 34 34 34 35 35 34 33 35 35 35 38 40 44 44 46 48 51 51 52 53 53 54 59 60 61 64 68 69 71 74 76 78 79 78 78 75 75 75
47 46 45 50 52 49 50 50 45 40 40 35 34 35 35 35 34 35 35 37 41 43 45 46 48 49 52 51 51 54 55 56 59 61 64 67 70 70 73 76 78 79 79 78 76 75 73 73 74
50 53 46 50 51 55 53 49 47 44 39 38 35 34 34 33 34 36 39 41 44 45 48 50 52 55 53 52 55 57 59 58 61 64 68 71 74 75 78 80 81 80 78 75 75 74 74 76 77
51 53 52 51 53 55 53 51 46 43 43 41 37 36 35 37 40 41 42 45 47 49 50 51 52 51 53 55 57 62 62 62 64 68 73 75 78 80 81 81 81 79 76 74 74 75 76 77 78
51 49 50 51 52 53 54 50 47 47 46 43 42 40 39 39 41 44 47 50 52 53 54 53 53 55 59 61 60 64 66 66 69 73 77 79 81 82 83 80 79 77 75 75 76 77 77 79 80
56 52 51 53 54 52 51 46 51 51 49 47 44 43 42 45 48 51 54 55 55 54 54 57 57 58 62 65 65 66 70 73 74 78 80 81 82 83 81 77 76 75 76 78 79 80 81 81 82

GFSSGP_500_spd_036.txt.gz
Wind_Speed
12 13 13 12 10 13 14 12 11 11 11 10 9 9 8 8 8 8 9 9 11 12 12 9 8 8 8 8 8 8 9 10 9 5 1 4 5 7 8 10 9 12 13 14 15 15 15 15 14
11 13 12 10 7 12 8 8 9 8 8 8 9 9 8 9 8 8 7 6 7 8 9 10 11 10 8 6 6 6 7 8 9 8 7 6 4 5 6 8 8 9 10 10 12 13 14 15 15
11 13 12 8 11 9 5 5 6 6 5 3 4 6 8 8 7 6 5 5 6 5 5 5 6 7 7 8 8 7 6 6 7 7 6 5 5 5 6 6 6 8 8 10 12 12 13 14 14
8 10 11 9 10 6 4 5 5 6 6 2 2 3 4 6 6 6 6 5 5 4 3 4 3 4 4 5 5 6 6 7 7 6 6 6 6 6 6 8 8 9 9 10 11 12 13 15 16
5 7 8 11 9 4 3 3 4 6 7 4 3 2 2 2 3 3 3 3 4 5 5 4 3 3 2 2 2 3 3 4 5 4 4 5 6 7 7 8 9 10 12 13 13 15 15 16 17
3 5 7 8 9 6 3 4 3 4 7 7 4 3 3 3 2 2 1 2 2 3 4 5 5 5 4 3 2 2 2 3 4 4 5 7 8 9 10 10 11 11 11 12 14 15 16 17 18
3 5 7 8 8 8 5 6 5 4 5 5 4 2 2 2 3 2 2 1 1 2 1 1 0 1 2 4 6 8 8 7 7 7 7 8 9 10 11 13 13 15 15 16 16 17 18 18 19
6 7 8 8 9 9 9 7 8 7 6 5 3 4 5 4 3 4 3 2 4 6 6 5 4 4 3 2 1 2 3 5 7 8 8 8 9 9 10 11 13 14 16 17 19 20 21 22 23
9 10 11 11 11 11 13 9 9 10 11 8 7 6 7 9 9 8 7 6 7 6 6 7 5 4 4 5 5 5 6 6 7 9 10 11 11 11 12 13 13 15 18 20 22 22 23 24 25
13 14 13 14 13 14 14 11 10 11 13 13 11 9 9 9 8 8 9 9 9 8 8 8 8 8 7 6 6 7 8 7 7 8 10 12 14 15 17 18 20 20 21 21 23 24 25 27 29
16 17 17 15 15 16 14 12 13 12 12 12 14 13 11 11 11 10 10 10 9 8 8 9 11 10 9 6 4 4 5 8 8 9 10 12 13 13 14 15 18 20 22 24 25 27 28 31 31
20 19 18 17 18 17 14 13 16 14 13 15 14 16 14 13 12 11 11 9 9 10 11 12 12 12 11 9 9 8 7 6 5 6 7 9 11 12 12 15 18 19 20 22 25 26 27 30 32
23 21 20 19 19 17 15 16 16 17 16 17 16 16 17 15 12 12 11 12 12 13 15 14 15 13 14 13 13 12 13 10 9 11 9 9 10 12 13 16 18 20 22 24 26 28 30 33 32
23 23 23 23 22 18 19 19 16 22 18 19 18 17 17 16 15 14 13 14 15 17 18 18 18 18 18 17 15 15 14 15 14 14 15 17 18 19 21 22 25 26 27 29 29 33 34 37 41
26 26 26 26 25 22 23 21 19 22 21 19 19 18 18 18 18 18 18 18 19 20 21 22 21 21 20 18 18 17 17 17 18 19 20 20 20 22 24 26 27 27 31 31 33 37 36 38 42
29 28 29 27 27 26 26 22 22 23 22 21 19 18 19 20 20 20 20 21 21 21 20 20 21 21 21 20 21 21 20 21 22 24 26 28 29 29 29 29 30 31 34 37 39 41 41 43 45
28 28 30 32 31 28 30 27 25 24 25 21 21 20 21 23 24 24 24 24 24 22 22 22 22 23 25 24 24 26 24 23 23 26 27 27 30 33 35 37 39 42 43 45 47 47 49 51 53
35 32 33 34 32 30 32 29 28 26 26 23 23 22 24 24 26 27 27 28 27 25 23 22 23 26 26 26 28 27 25 24 26 29 33 34 37 39 41 42 41 43 46 48 52 54 55 58 59
37 33 32 29 38 35 35 33 31 30 29 26 26 26 26 28 28 27 28 29 29 29 26 26 26 27 31 32 29 27 28 30 33 34 35 34 36 39 41 45 47 48 50 51 54 55 58 60 62
36 35 34 34 42 40 36 37 33 35 30 31 31 30 28 29 31 29 30 31 31 32 30 29 29 30 32 31 30 32 31 32 33 34 36 37 39 41 43 45 48 50 51 54 57 60 61 63 64
39 39 37 40 44 42 40 39 35 35 36 32 32 36 33 30 33 31 32 32 31 33 35 36 36 31 30 31 34 33 33 35 38 39 41 41 42 45 46 48 51 53 56 59 61 64 66 68 67
42 41 41 39 42 42 41 47 37 34 35 37 38 39 38 32 34 33 34 34 34 36 36 35 34 32 32 35 36 36 39 41 42 44 46 46 46 47 47 50 53 56 60 63 66 67 69 70 73
42 39 40 38 40 46 44 50 37 35 35 34 38 40 40 34 34 35 36 36 37 36 37 36 34 33 36 36 37 40 42 44 46 49 46 47 51 53 53 54 57 60 62 66 68 71 73 74 76
40 38 40 42 43 50 42 43 50 33 35 37 36 38 37 35 37 38 37 38 39 40 38 37 36 38 38 39 42 43 46 47 50 51 49 50 52 56 59 62 62 64 66 69 71 72 74 77 80
40 39 43 46 48 48 45 46 46 41 38 34 36 36 36 38 39 39 38 38 39 38 37 37 38 39 41 44 45 48 50 52 53 51 51 53 56 59 62 65 68 70 71 72 74 77 79 80 81
45 42 45 46 49 51 51 52 45 41 42 37 35 33 35 38 39 40 39 39 38 37 37 38 40 43 46 47 50 52 54 54 54 52 52 55 59 61 65 68 71 72 75 77 79 80 83 83 81
44 46 40 48 50 53 54 54 50 45 37 38 36 35 34 34 35 36 36 36 36 36 39 41 43 46 48 50 53 54 53 55 54 54 55 57 61 64 68 71 75 76 79 81 81 83 84 81 78
49 49 50 49 51 56 54 53 51 48 42 39 37 34 30 30 32 34 35 37 39 41 42 44 48 50 53 56 55 54 55 56 58 60 59 61 65 69 72 74 79 80 83 84 83 81 80 77 77
47 50 50 50 56 60 59 51 50 48 47 43 36 34 32 31 31 33 36 39 42 42 45 48 52 55 57 58 57 57 60 63 62 62 64 66 70 71 74 78 82 84 85 84 82 81 80 80 81
53 54 50 52 54 53 55 47 46 46 45 40 37 36 34 34 35 35 37 39 42 46 49 52 56 59 60 59 61 63 66 66 64 64 68 71 73 74 78 81 85 86 85 83 82 82 82 83 84

GFSSGP_500_spd_039.txt.gz
Wind_Speed
12 12 11 9 8 11 14 14 11 10 10 10 9 10 8 10 8 10 10 10 12 11 10 10 10 10 11 11 11 12 13 12 10 6 4 2 1 1 2 2 4 4 5 6 7 8 8 9 10
12 11 10 9 3 12 11 10 9 7 6 9 9 9 7 9 8 8 8 7 8 9 9 10 10 9 9 9 9 10 10 11 11 11 10 9 8 5 5 4 5 6 6 7 7 8 9 10 11
11 11 10 9 7 11 11 7 8 8 7 4 6 7 8 8 7 6 7 6 5 6 6 6 7 8 8 9 9 9 9 9 9 9 8 7 6 6 6 6 5 5 6 7 8 9 10 11 13
9 10 11 11 9 10 9 6 7 8 8 4 3 3 3 5 7 8 7 7 5 5 4 3 4 4 5 6 6 7 8 8 8 8 7 6 5 3 4 5 6 6 6 7 7 9 9 10 11
7 6 8 8 10 7 5 4 5 7 9 6 2 3 2 2 3 5 5 5 5 6 6 5 4 3 3 3 4 4 5 5 5 5 5 4 4 4 4 4 3 4 6 7 8 10 11 12 13
4 5 6 7 9 9 4 3 4 5 7 6 2 2 3 3 2 3 3 4 3 4 3 4 5 5 5 6 6 6 5 4 4 4 3 3 3 3 4 4 4 5 7 9 10 11 12 13 14
1 2 4 5 6 7 7 6 4 4 5 5 4 3 1 1 3 3 3 3 3 2 2 1 1 1 1 2 4 4 3 2 3 3 3 3 2 1 1 3 4 5 6 8 10 12 14 15 16
3 4 7 8 7 7 8 9 7 6 6 5 4 7 6 5 5 3 1 0 2 2 2 2 3 5 5 5 4 3 2 2 3 3 3 2 1 3 4 5 7 9 10 12 12 14 16 17 18
7 7 8 11 9 6 10 10 10 9 9 8 7 8 8 7 8 6 6 5 4 5 5 5 5 4 4 4 4 3 3 3 3 2 2 2 2 2 2 5 5 7 8 9 12 13 14 17 19
10 10 10 12 12 8 12 11 11 10 10 10 11 9 9 9 9 8 8 7 7 8 8 8 8 8 7 7 6 6 5 4 5 5 5 1 2 1 2 3 4 4 6 8 9 13 15 16 17
14 13 12 13 14 10 13 11 13 11 10 11 14 11 11 11 11 10 10 10 8 8 8 8 8 10 10 11 11 8 8 7 5 3 2 3 3 4 3 5 7 10 11 12 13 14 14 18 20
17 16 16 16 15 13 13 13 15 12 12 14 15 15 14 13 12 11 10 10 10 11 11 11 12 11 11 12 12 11 9 9 8 8 7 6 6 7 7 7 10 12 14 16 16 19 20 22 22
19 19 19 16 16 16 15 14 15 14 18 17 15 16 17 15 13 12 12 11 12 14 14 16 15 16 15 15 14 14 13 13 11 11 10 9 10 11 12 12 13 15 16 19 20 22 23 24 27
20 20 19 19 19 19 19 17 15 19 20 20 16 17 17 16 15 14 14 13 14 14 16 17 19 20 19 18 17 16 15 14 12 12 13 14 15 17 19 19 21 24 23 25 26 28 31 33 33
22 22 22 22 23 21 22 19 18 21 20 23 19 18 17 16 17 17 17 16 17 17 18 20 20 20 21 20 17 17 17 16 18 19 18 18 19 21 23 24 25 27 28 30 33 35 37 38 39
22 22 24 24 25 24 24 18 22 22 23 23 21 20 18 17 18 19 19 19 21 20 20 20 19 19 21 20 20 20 19 20 22 23 21 21 22 24 26 28 31 30 31 34 37 39 40 41 42
24 27 27 27 28 28 28 25 25 26 25 25 22 20 20 20 22 22 23 22 23 23 23 22 22 21 21 22 22 22 23 24 23 24 22 25 27 29 32 33 32 32 33 34 36 38 39 40 42
32 30 30 30 31 31 30 28 29 27 26 27 23 23 23 24 24 25 25 26 26 26 26 26 26 26 23 24 26 28 28 27 27 27 27 30 31 32 31 33 34 35 35 37 40 42 45 47 51
34 35 34 32 34 36 35 30 30 32 28 26 26 27 26 26 25 28 28 26 28 29 29 29 30 29 28 27 28 30 30 30 30 29 30 32 32 35 38 39 38 39 40 42 45 47 50 54 57
35 38 35 36 39 42 38 36 33 34 30 29 29 29 30 29 29 32 31 30 30 30 30 31 31 32 31 31 31 29 30 32 34 34 33 33 35 37 41 40 41 42 43 46 50 53 56 59 60
36 40 39 43 44 48 45 41 36 32 32 30 30 32 32 31 33 34 35 33 33 32 33 33 32 34 36 36 35 33 33 34 35 34 37 39 41 42 44 43 43 45 47 48 51 54 56 61 66
43 41 42 42 45 47 44 46 34 28 30 32 30 34 36 34 34 37 37 36 35 34 35 35 36 36 36 36 36 36 36 36 34 37 41 43 45 47 48 48 48 50 50 51 55 59 61 64 69
42 40 40 41 44 47 44 46 32 28 28 29 33 35 39 36 35 37 39 36 35 35 35 35 36 37 37 36 36 36 36 35 38 40 43 47 49 50 52 52 53 52 53 53 57 61 65 68 71
41 40 40 43 45 49 38 41 47 27 29 29 31 33 37 36 34 36 37 36 37 36 37 36 37 38 38 38 38 37 36 40 41 44 46 49 49 51 53 53 55 54 55 57 61 65 68 69 72
43 41 43 46 49 49 42 43 44 37 31 32 31 33 36 35 31 32 33 35 37 37 37 37 37 36 35 36 37 39 41 42 44 47 49 50 52 53 55 56 56 56 59 63 66 69 71 73 75
43 46 46 50 49 50 50 49 42 43 40 35 36 36 34 35 34 33 35 38 39 38 38 38 37 35 34 36 39 41 43 45 48 51 54 54 56 59 60 60 59 60 64 68 70 72 74 77 80
42 47 39 46 52 53 50 46 43 43 42 37 33 34 33 31 33 37 37 37 37 37 37 36 35 35 38 41 42 44 46 49 52 55 58 59 60 63 65 64 63 64 68 71 73 75 78 81 83
47 40 39 44 48 51 52 49 49 48 45 41 39 35 30 29 32 35 37 37 37 36 35 35 38 41 41 42 45 47 52 52 54 57 59 61 63 65 67 67 67 69 72 75 77 79 82 84 85
45 46 43 42 48 50 51 51 50 48 46 44 36 29 27 28 30 33 34 36 38 39 40 42 44 44 44 46 50 52 53 55 58 59 61 61 63 69 70 70 70 73 75 77 80 83 85 85 87
47 49 50 50 47 47 54 48 46 43 43 42 40 36 31 28 30 30 33 36 36 38 40 43 44 44 46 49 53 55 56 58 59 61 61 63 68 71 71 71 74 76 77 80 83 85 85 86 87

GFSSGP_500_spd_042.txt.gz
Wind_Speed
10 11 10 9 9 10 11 11 12 11 11 8 8 8 7 8 8 9 10 8 8 10 12 11 12 13 14 13 13 11 9 8 6 6 6 5 5 5 4 3 4 3 3 4 4 5 6 8 9
10 11 10 9 5 7 10 10 12 10 7 7 7 7 6 7 6 5 8 6 6 8 10 10 10 11 11 12 12 12 12 13 12 12 12 10 10 8 6 4 4 1 1 1 3 4 5 6 6
9 10 12 10 5 6 9 10 11 10 5 4 6 6 5 5 6 5 6 5 5 4 6 7 8 8 9 10 10 10 9 10 10 10 10 9 8 7 7 5 5 3 2 2 1 1 2 3 4
7 8 10 9 5 5 8 8 10 11 8 3 2 3 3 5 6 6 5 7 6 6 4 4 5 5 6 6 7 8 9 9 8 8 8 7 6 6 4 2 3 1 0 1 2 4 5 6 7
4 5 7 9 6 4 5 5 7 8 7 6 2 1 2 2 2 4 3 5 7 7 6 5 5 4 4 4 5 5 5 6 6 6 6 5 4 4 4 2 2 2 3 4 5 7 8 10 11
5 4 5 6 5 6 5 3 4 5 5 4 3 2 2 1 2 2 4 3 3 4 5 4 5 5 5 6 5 5 5 5 5 5 5 5 5 4 3 3 2 3 5 6 6 7 9 10 11
5 3 3 4 5 6 6 4 3 4 3 4 3 2 0 1 0 1 2 2 3 2 2 3 3 4 4 4 3 3 3 4 4 4 4 3 3 2 1 0 1 0 2 4 6 8 9 11 12
6 4 1 2 4 7 5 6 5 8 4 4 6 4 4 4 2 2 2 3 1 1 2 3 4 5 6 6 6 7 7 6 4 4 5 5 6 5 3 3 3 5 5 6 6 7 7 8 9
8 6 6 5 5 7 8 7 8 8 9 6 8 7 7 6 6 5 5 5 5 4 4 4 4 5 6 5 6 7 7 6 7 7 6 5 3 3 2 1 1 1 1 1 2 1 4 6 7
10 9 10 10 10 7 10 9 10 10 10 8 9 10 10 10 8 9 7 7 8 8 7 7 7 7 8 8 8 8 9 8 6 4 4 4 5 5 5 5 5 3 2 3 5 7 5 7 9
13 12 13 13 12 10 11 10 12 10 10 13 11 9 11 12 11 11 12 10 10 10 8 8 8 8 9 10 11 10 10 10 11 10 7 8 8 8 7 6 6 6 6 6 7 10 12 14 16
15 15 15 16 14 13 12 12 12 10 12 16 15 11 12 12 13 14 14 12 12 11 10 10 11 11 12 11 12 13 14 13 12 11 10 8 6 7 8 10 11 12 13 14 16 16 18 19 22
17 17 16 17 17 15 15 15 13 12 16 16 17 17 14 14 14 14 15 14 13 13 13 14 15 15 16 15 14 15 15 15 14 13 10 9 10 11 12 14 15 15 18 21 21 21 23 25 27
17 17 17 18 18 18 18 18 17 17 17 17 17 18 18 16 15 15 15 15 14 15 15 16 16 17 18 18 18 17 18 16 15 14 14 16 14 15 14 16 17 19 21 24 25 26 26 28 28
18 18 19 20 20 20 21 18 19 20 19 18 20 20 20 18 17 16 16 16 17 17 17 18 19 19 20 19 20 19 17 18 18 17 19 19 17 18 18 20 22 23 25 24 25 25 26 28 30
19 20 19 20 20 20 22 16 22 22 23 22 21 21 21 20 20 18 17 18 19 20 21 21 21 21 22 21 21 21 20 21 22 22 23 24 24 23 24 27 29 29 29 28 27 28 28 29 33
23 23 22 23 23 23 25 20 25 26 26 25 24 23 23 21 22 22 20 21 22 22 23 24 24 24 24 23 21 22 24 26 26 25 26 28 28 28 29 31 31 32 33 36 34 35 36 37 39
27 26 25 26 27 29 29 26 28 28 28 26 25 26 26 25 25 24 23 23 23 24 26 28 28 28 28 27 26 25 26 26 28 31 31 31 30 32 32 33 32 35 37 39 38 39 40 41 43
29 29 29 28 32 34 33 30 30 32 30 27 27 28 28 28 29 27 27 27 27 26 27 28 30 30 30 30 29 30 29 29 30 31 32 33 33 35 34 34 37 36 39 41 42 44 45 45 47
32 33 30 33 36 41 39 39 37 37 34 31 30 28 27 31 31 31 32 31 31 30 29 30 31 30 30 31 31 32 33 34 35 34 33 31 33 35 36 40 41 42 44 45 46 49 48 49 51
34 35 34 37 41 44 45 43 39 34 35 34 32 30 29 29 33 34 36 36 35 34 32 32 33 33 32 31 31 33 35 37 36 36 37 36 35 35 39 40 43 44 45 48 48 50 51 54 55
38 36 38 40 45 48 45 49 38 33 30 32 29 30 30 31 33 35 37 38 39 38 35 35 35 35 34 33 33 35 36 36 37 38 37 37 36 39 40 43 44 45 47 49 50 53 54 55 57
38 37 42 44 46 50 44 47 39 29 26 25 30 31 31 34 35 37 37 40 41 38 38 37 35 36 36 35 36 37 36 37 38 37 38 37 40 41 43 44 46 49 51 54 56 58 59 60 59
40 45 46 47 51 57 42 47 47 27 23 22 28 32 34 35 35 36 38 40 40 38 38 37 37 37 37 37 38 38 39 39 38 39 40 42 43 44 45 48 50 54 58 60 61 62 63 63 64
43 42 47 55 57 59 49 51 48 33 26 27 27 31 33 34 35 35 36 38 40 39 38 38 38 37 38 39 38 38 38 38 40 42 44 44 44 47 50 52 55 57 62 64 65 65 66 66 68
47 50 53 52 50 51 51 52 44 42 32 32 33 31 32 34 37 38 37 39 38 37 37 38 38 38 38 38 38 38 38 41 43 45 45 46 47 50 52 55 58 61 64 67 66 68 72 72 73
47 48 39 45 51 55 46 37 34 35 34 31 30 31 34 35 34 38 39 38 38 38 40 40 39 38 38 38 38 39 40 43 46 47 48 49 51 53 57 58 61 64 66 66 67 72 74 74 76
54 48 49 49 54 54 48 40 36 37 36 33 34 32 32 36 36 35 40 43 41 41 42 41 39 38 39 39 40 43 46 47 47 48 51 53 55 58 60 63 64 65 66 66 71 74 75 76 78
45 44 47 49 52 54 51 43 42 41 36 34 34 31 27 26 28 33 38 40 42 42 41 41 40 40 42 44 45 47 48 50 50 51 53 56 58 61 63 65 66 66 67 69 73 75 76 78 81
49 51 51 50 51 49 51 45 45 45 38 35 38 38 37 33 32 35 38 39 40 40 42 43 44 44 46 49 49 50 51 52 52 54 58 61 63 64 65 65 66 67 69 71 74 75 78 80 84

GFSSGP_500_spd_045.txt.gz
Wind_Speed
13 12 10 9 7 9 11 8 8 10 10 8 7 7 6 7 7 7 9 9 8 8 8 9 10 11 10 9 8 9 9 9 9 8 8 8 6 6 7 5 4 4 4 6 6 7 7 8 9
12 11 10 7 5 6 11 9 8 8 8 10 7 7 6 5 6 4 7 8 7 5 6 7 8 10 10 10 11 11 10 10 10 11 11 11 10 9 8 6 6 4 3 3 3 3 3 4 5
11 11 8 6 4 5 8 11 8 7 6 5 6 8 7 4 4 5 4 5 4 5 6 6 6 6 7 8 8 8 9 10 10 10 10 10 9 8 7 6 4 3 3 2 1 1 2 3 4
9 9 8 5 3 4 6 8 8 7 5 4 4 5 3 4 4 5 4 4 4 4 4 5 5 6 6 5 5 5 5 5 5 5 5 5 5 4 5 4 3 2 1 0 1 3 4 5 7
5 6 6 5 5 5 4 5 6 6 7 4 3 2 2 1 1 2 3 5 5 5 4 4 4 5 6 6 5 5 4 4 5 5 5 5 5 4 3 4 3 2 2 1 1 3 4 5 5
4 4 4 3 3 5 5 5 4 4 5 5 4 2 2 1 1 2 1 3 2 3 4 5 6 5 5 5 6 6 7 7 6 5 5 5 5 5 5 3 1 3 3 2 1 1 2 3 5
5 2 1 2 2 3 4 5 5 4 5 4 3 2 2 1 0 1 2 2 2 2 2 3 4 4 4 5 6 6 6 5 6 5 5 4 4 3 2 1 1 3 2 2 2 2 2 3 4
8 5 2 3 3 4 4 6 7 6 5 6 4 3 1 2 3 3 4 4 4 4 4 4 4 4 5 6 6 6 7 7 7 7 7 5 4 2 3 4 3 4 3 2 1 3 4 5 7
11 8 6 6 7 8 7 6 8 8 7 8 7 7 6 5 5 5 6 7 8 6 5 5 5 6 6 7 7 8 8 8 9 8 6 6 5 6 8 6 4 4 1 1 2 2 3 4 5
12 11 10 9 9 9 10 9 9 9 9 9 10 9 9 9 9 8 7 9 9 9 8 7 7 8 9 9 9 8 9 9 8 8 9 8 8 9 7 7 6 6 5 5 4 5 6 8 9
15 15 14 12 11 11 12 10 11 11 10 11 11 10 11 11 12 12 11 11 10 10 9 8 8 8 9 10 11 11 11 11 11 12 11 10 10 10 10 8 8 9 10 10 12 13 14 14 15
17 17 16 15 15 13 13 13 11 11 12 14 13 12 13 13 14 14 14 13 12 11 11 11 10 10 10 11 12 13 15 15 15 15 13 12 12 11 11 12 14 14 15 15 16 18 21 20 21
18 18 17 17 17 16 14 14 15 14 14 15 15 14 14 15 15 16 16 15 14 13 13 13 13 13 13 14 14 15 17 17 18 16 15 14 14 15 16 16 18 18 18 18 18 19 20 23 23
18 18 17 18 18 18 17 16 16 18 17 15 16 18 17 16 16 17 17 17 16 15 15 15 15 15 16 15 15 16 16 17 18 18 17 16 18 18 17 17 18 18 18 19 22 21 22 23 22
16 17 17 19 20 20 19 16 19 18 18 16 18 18 20 19 19 19 18 18 17 17 17 18 19 18 18 17 17 18 18 17 18 18 18 19 21 20 20 22 23 24 25 26 27 25 25 25 26
19 20 18 19 18 17 18 14 20 21 21 21 21 22 22 21 20 20 21 20 20 19 20 20 21 21 21 20 20 20 22 21 20 21 22 23 25 26 27 27 27 28 29 29 30 31 34 34 34
23 22 20 19 19 21 22 17 23 23 25 24 24 24 23 23 23 24 23 22 22 22 22 22 23 24 24 24 23 22 22 22 22 23 25 27 29 30 30 31 32 32 30 30 32 33 34 34 37
27 25 23 22 23 26 25 21 26 27 27 27 25 26 25 25 26 27 25 25 25 24 24 25 26 27 28 28 27 26 26 26 27 26 28 29 31 34 36 34 34 35 35 35 36 39 41 41 42
30 29 27 26 29 30 28 26 28 32 31 31 31 30 28 27 30 28 27 28 28 27 28 27 27 28 29 30 29 29 29 29 30 31 31 33 34 35 35 35 35 36 36 37 39 41 45 45 45
33 33 31 31 33 37 31 31 29 35 36 34 36 36 32 33 31 32 31 32 31 32 31 31 31 30 31 31 31 30 30 30 31 32 33 34 36 38 39 39 37 37 38 41 42 43 44 45 47
36 36 35 36 36 39 39 42 37 34 35 34 32 33 36 34 34 34 34 35 35 35 36 36 35 33 32 34 34 33 31 31 33 34 35 37 38 40 41 41 40 40 42 43 44 44 46 49 53
38 37 39 39 41 42 42 54 44 37 32 33 32 33 35 35 33 34 33 34 36 38 40 39 37 36 36 36 36 36 35 35 35 36 36 37 40 41 42 42 42 43 44 45 46 47 51 55 56
40 39 40 41 42 45 49 55 51 40 32 24 30 35 34 34 33 33 34 35 39 40 40 40 40 37 39 39 38 38 37 37 37 38 38 40 41 42 42 43 45 46 46 47 49 51 53 56 59
41 42 41 42 44 56 52 54 55 48 39 29 27 31 33 33 33 33 35 36 37 39 40 40 40 40 40 39 39 39 38 39 39 40 42 43 43 44 45 46 48 48 49 50 51 54 56 59 61
42 42 44 48 54 59 58 62 51 48 33 32 32 31 33 32 33 35 37 39 40 42 41 41 42 42 42 41 40 40 41 41 42 43 43 44 45 46 47 49 50 51 52 53 55 57 60 63 65
42 44 46 53 57 62 64 56 46 39 30 26 31 31 32 34 36 37 39 41 42 43 44 42 42 43 41 41 41 42 42 43 45 45 45 46 48 48 50 51 53 54 55 57 59 61 64 66 69
50 53 52 51 60 63 59 50 41 35 31 25 23 26 28 32 34 37 38 41 42 40 43 43 42 43 44 43 44 44 44 45 46 47 47 49 50 51 53 54 55 57 59 61 63 65 67 69 72
62 61 61 61 61 64 59 46 37 35 35 28 23 26 28 30 33 38 41 43 44 43 41 44 45 45 46 47 46 45 45 47 47 48 49 51 53 54 55 56 58 59 62 65 66 67 70 73 72
54 55 56 56 57 59 56 42 40 41 41 38 30 28 29 30 31 34 37 41 46 46 44 43 43 43 44 46 47 47 48 49 51 51 53 55 56 57 59 60 61 64 66 67 68 70 73 73 73
52 51 50 52 51 50 49 41 39 45 40 42 36 31 37 38 35 35 37 38 40 42 42 45 46 47 47 48 48 50 52 53 54 55 56 58 58 59 60 62 65 67 68 68 70 72 73 73 75

GFSSGP_500_spd_048.txt.gz
Wind_Speed
12 13 12 13 12 9 8 9 7 9 8 9 9 8 8 9 9 8 7 7 9 6 5 2 2 2 2 3 6 6 5 6 7 6 5 6 6 7 6 6 6 5 7 9 7 7 6 7 8
11 11 9 10 9 8 8 9 7 7 9 8 8 7 8 7 7 6 6 7 8 6 4 4 5 6 7 7 6 6 6 8 8 8 8 6 5 5 4 4 4 4 3 3 2 3 2 3 4
11 10 9 8 8 7 8 9 9 6 7 9 9 8 9 9 6 5 4 4 5 6 5 4 4 4 5 6 6 8 8 7 6 6 6 5 5 5 5 5 4 4 4 4 4 3 3 1 1
10 9 9 8 7 5 5 7 9 8 6 6 5 6 7 8 7 6 5 4 3 3 2 3 4 4 5 5 4 5 6 6 7 8 8 7 7 6 6 5 5 4 4 4 3 3 3 2 2
8 7 7 7 8 5 4 5 6 7 7 6 5 5 4 4 4 5 5 5 5 3 2 2 3 3 3 4 5 5 5 5 6 7 8 7 7 7 7 6 6 6 5 5 3 3 3 3 3
7 5 4 4 5 4 4 4 4 5 5 5 4 4 3 3 3 2 1 1 2 2 3 3 3 4 4 5 5 5 5 5 4 4 5 6 6 6 8 8 6 6 6 4 4 1 2 3 4
6 4 3 2 3 3 4 5 5 5 2 2 3 2 1 2 2 2 1 2 1 2 2 2 2 2 3 3 4 5 5 5 6 7 8 8 8 9 8 6 5 2 0 0 1 0 0 2 3
7 4 2 2 3 5 6 6 6 6 6 3 2 0 1 2 2 3 3 4 5 4 4 4 4 5 5 5 6 5 5 6 7 6 6 6 7 8 6 4 3 3 4 3 3 4 4 4 4
9 7 6 6 5 5 7 8 7 7 7 7 6 5 4 5 4 4 6 7 8 7 6 5 5 6 6 7 7 8 8 9 9 8 8 9 9 8 6 6 6 4 6 6 5 5 5 4 4
12 11 10 10 10 9 8 8 8 8 9 9 8 7 7 8 8 7 7 8 9 9 9 10 9 8 8 7 7 8 8 8 8 9 10 10 10 10 10 8 7 6 8 9 9 9 8 8 11
16 14 14 13 13 13 12 11 10 8 9 10 10 9 10 10 10 10 9 9 9 10 11 11 9 9 8 8 9 9 10 11 11 12 12 12 12 12 10 10 11 11 11 11 11 11 12 16 17
18 17 16 15 14 14 14 12 12 12 11 12 11 11 12 12 11 12 12 12 12 12 12 12 11 10 10 10 10 12 13 15 15 15 14 14 14 13 13 12 13 14 15 16 16 17 19 18 19
20 18 18 17 16 16 15 14 13 15 15 14 12 12 13 13 14 14 14 15 15 14 14 14 13 13 13 12 12 13 14 16 18 18 17 16 14 15 17 17 18 19 20 19 19 19 19 21 22
20 20 19 19 18 16 16 14 15 17 16 16 14 15 15 15 16 16 17 16 16 16 16 16 16 15 15 14 13 14 14 16 18 19 19 19 17 18 19 20 20 20 20 19 20 23 25 24 23
20 20 19 18 17 16 16 13 17 15 15 16 16 17 18 18 18 19 18 19 18 18 18 18 18 18 18 17 17 16 15 16 18 18 18 19 19 21 21 22 23 24 26 26 26 26 26 26 28
20 20 20 19 17 16 15 10 16 16 15 17 19 20 20 21 21 21 21 21 20 20 20 20 21 20 21 21 20 19 18 18 17 19 21 22 23 24 25 26 27 29 30 31 32 30 29 29 30
24 22 20 19 20 21 18 14 21 20 17 17 20 22 23 23 23 25 24 23 23 23 23 23 23 23 23 23 23 23 22 22 21 22 23 24 27 27 29 31 32 33 34 34 34 34 34 36 37
25 24 23 23 24 25 23 19 23 24 20 20 22 25 26 26 26 28 25 25 25 25 26 27 27 26 26 26 26 27 26 26 27 27 28 29 30 31 32 33 35 36 37 36 35 36 37 38 39
28 28 27 27 30 31 29 24 24 28 22 22 25 30 31 29 33 31 29 28 29 29 29 30 30 29 28 29 28 28 29 30 31 31 32 31 32 33 35 36 38 40 40 41 40 39 39 41 42
32 32 30 31 34 37 34 31 26 28 27 25 29 31 32 33 33 35 35 32 31 33 33 32 32 31 31 31 31 31 31 31 32 33 34 34 35 35 36 37 39 41 42 42 42 42 43 44 45
36 35 35 36 36 38 40 41 32 28 31 30 31 33 34 35 37 37 38 36 35 34 35 36 36 35 35 33 33 34 33 33 34 36 37 36 36 37 37 39 41 43 45 45 45 45 46 47 47
39 38 39 38 39 40 43 53 40 34 33 34 34 37 38 37 35 37 38 38 37 38 39 38 38 37 38 38 37 36 37 36 38 39 39 39 39 40 40 42 43 45 46 46 47 48 48 49 50
41 40 40 41 41 42 49 50 50 41 37 35 37 39 42 41 39 34 37 39 38 37 38 38 37 37 39 40 39 39 40 41 41 41 41 41 42 43 44 45 45 47 48 49 50 51 52 52 53
42 43 42 42 42 50 52 48 50 45 43 39 42 40 37 40 38 34 34 36 38 38 38 38 37 38 39 40 41 42 42 42 42 43 43 44 45 45 46 47 48 50 50 51 52 53 54 54 56
42 41 42 45 47 53 55 57 49 44 49 45 42 32 36 39 39 36 35 37 37 39 40 40 39 39 40 41 40 42 44 44 44 44 45 45 46 47 49 49 50 50 51 53 55 56 56 57 59
46 44 45 49 51 53 59 59 53 48 46 50 41 29 30 34 37 39 38 38 40 41 42 42 43 43 44 44 44 44 45 45 45 46 46 47 49 50 51 51 51 51 54 55 57 58 59 61 62
47 49 47 49 53 57 61 57 57 51 49 49 49 34 31 27 31 34 38 40 41 43 43 43 44 44 42 44 45 44 45 46 47 48 49 50 51 52 52 52 52 54 56 58 59 60 61 63 65
53 53 53 55 56 59 62 63 58 55 55 53 45 38 31 30 31 34 37 39 40 42 44 45 46 44 45 43 44 46 47 49 49 50 51 52 53 53 53 54 56 57 59 60 61 63 65 66 69
60 58 59 59 60 62 67 61 57 60 58 54 42 33 27 33 37 37 38 41 42 43 44 43 41 43 47 47 47 47 48 50 52 53 53 54 55 54 55 57 59 60 62 64 65 66 68 70 71
64 66 69 69 66 63 64 59 51 51 52 44 37 35 33 31 36 40 38 42 43 45 46 45 43 43 44 46 48 50 51 52 53 54 55 55 56 56 58 59 61 63 64 65 66 69 70 71 72

GFSSGP_500_spd_051.txt.gz
Wind_Speed
14 15 14 14 14 14 12 11 9 7 8 9 10 11 11 11 12 10 8 8 8 7 8 9 5 3 3 5 6 7 8 10 9 7 7 6 6 5 5 9 9 7 13 15 12 11 9 8 6
12 13 13 13 12 14 12 10 9 8 8 8 9 9 10 10 9 9 8 7 6 6 7 8 8 8 7 6 4 6 7 7 8 7 6 6 5 5 6 4 4 5 6 5 5 5 4 4 2
12 12 12 11 10 11 11 12 9 8 8 9 10 9 8 9 8 7 6 5 5 6 7 7 5 6 7 8 8 7 6 5 6 8 8 8 8 8 7 7 6 5 5 5 5 4 4 3 3
11 11 13 11 9 8 8 10 11 8 8 7 9 8 9 10 10 8 6 4 4 4 4 4 4 4 4 4 5 5 6 7 7 7 7 6 6 7 7 7 7 6 6 6 6 5 4 4 3
9 10 11 11 10 8 6 7 8 9 8 7 7 7 7 7 7 7 7 7 5 3 2 1 1 0 1 3 4 4 4 5 6 7 7 7 8 8 7 7 7 7 6 7 5 4 3 3 3
7 7 8 8 8 7 6 7 6 6 6 6 5 5 5 5 5 4 4 4 4 4 4 2 1 1 2 2 2 2 3 4 5 6 7 7 7 8 7 7 6 6 5 5 3 1 1 1 0
7 7 6 6 6 5 5 5 6 5 4 3 3 2 2 2 3 3 2 1 0 1 1 1 2 2 1 3 4 4 4 4 5 6 6 7 7 7 8 7 6 5 3 2 2 3 5 5 3
9 6 5 4 3 4 4 4 5 5 4 3 2 2 1 1 0 1 2 2 2 2 2 2 2 3 4 4 5 5 6 6 7 7 7 7 7 5 4 2 3 4 5 6 7 7 7 7 7
11 8 6 3 1 2 4 4 4 5 5 4 4 5 4 4 3 2 3 5 6 6 5 5 5 5 4 4 5 6 7 7 8 8 9 9 9 8 6 6 8 9 8 9 10 10 10 9 7
13 11 8 6 5 4 5 6 6 6 6 6 6 6 7 6 5 5 5 5 6 7 8 8 9 8 7 6 6 6 7 7 8 8 9 9 10 10 11 11 10 11 12 11 10 9 9 9 10
16 13 11 10 9 8 8 8 8 7 8 8 8 7 8 8 7 7 7 8 8 9 10 10 10 10 8 6 6 6 7 8 10 10 11 12 13 14 13 11 11 10 11 12 12 11 12 13 16
18 15 14 13 12 12 11 10 9 9 9 10 10 8 9 10 10 10 9 10 11 11 12 13 12 11 10 9 9 9 10 11 12 13 13 15 16 16 13 12 12 12 14 16 17 18 18 20 19
20 18 16 15 15 14 14 13 11 12 10 10 11 11 11 11 12 12 12 13 13 14 14 14 14 14 13 13 12 12 13 14 14 15 15 17 17 17 16 16 16 18 19 19 19 18 19 20 24
22 19 18 17 16 14 15 12 14 15 11 12 11 12 11 12 13 13 15 14 16 16 16 16 15 16 16 15 14 14 15 15 16 16 16 17 18 19 18 20 21 22 22 21 21 22 24 25 27
22 20 18 18 17 14 13 12 18 12 11 10 10 11 13 15 15 16 16 17 18 18 17 18 18 18 18 18 17 18 17 17 17 17 18 19 18 21 22 22 23 24 24 25 27 28 29 30 30
23 21 20 18 16 16 14 12 14 13 11 10 10 11 13 16 18 20 19 19 18 19 20 20 20 21 21 21 21 21 20 20 20 20 19 21 24 26 27 26 26 27 29 30 31 32 32 32 33
25 22 20 19 19 18 17 13 18 16 14 14 13 14 15 17 20 23 23 22 20 21 22 23 23 24 24 24 24 24 23 23 23 23 24 25 26 27 28 30 31 31 32 33 35 37 37 37 38
27 23 22 22 22 22 20 17 19 19 16 16 16 17 17 20 24 27 26 26 26 25 25 25 26 27 27 26 26 26 26 26 26 26 27 28 30 31 33 34 34 36 37 38 39 39 40 41 42
29 27 25 26 27 28 26 22 23 24 18 19 20 18 21 24 28 30 30 29 30 29 30 29 29 30 30 30 30 29 29 28 28 28 29 31 32 34 36 37 38 38 39 40 41 42 42 43 44
32 31 30 30 32 33 30 27 26 27 26 24 23 23 26 28 30 33 34 32 31 34 33 33 33 33 33 32 32 31 32 31 31 31 31 33 34 35 38 39 40 40 41 42 43 44 44 45 46
36 36 35 36 35 36 35 37 29 28 30 30 28 29 29 32 35 37 38 37 34 32 35 37 37 36 36 36 35 34 34 34 35 36 35 35 36 37 39 40 40 42 43 44 45 46 47 48 48
41 40 40 39 39 38 39 49 32 28 31 31 31 33 34 33 39 44 44 43 42 37 38 39 39 38 37 37 36 36 38 39 39 41 40 39 40 40 41 42 44 45 45 46 47 47 48 49 50
44 42 41 41 40 40 44 47 40 32 31 31 33 34 36 38 43 45 46 45 45 41 38 38 38 37 36 36 37 38 39 41 42 44 44 43 43 44 44 45 47 47 47 48 49 50 51 52 52
45 44 43 43 41 44 47 46 44 39 36 35 35 37 39 39 42 40 43 44 41 40 38 36 37 37 34 36 38 38 39 41 43 44 45 45 46 46 46 47 48 48 49 50 51 52 53 54 54
45 45 43 44 46 47 49 50 49 43 47 40 41 41 41 39 39 40 40 42 42 40 37 35 35 36 37 38 39 40 40 42 43 44 46 47 48 49 49 49 50 51 52 52 52 53 54 55 56
45 46 48 51 50 48 50 56 51 44 45 48 51 46 46 45 43 40 40 36 41 45 43 40 38 39 40 41 41 42 42 44 45 46 46 47 48 49 50 51 52 52 53 54 54 55 56 57 59
50 50 48 49 50 54 55 52 50 48 49 50 51 57 52 51 48 35 41 37 36 39 41 42 42 42 42 43 43 44 46 45 45 47 46 46 47 49 51 52 53 54 54 55 56 57 58 60 62
53 52 52 53 53 55 55 54 53 53 56 56 57 56 56 49 37 33 37 39 36 37 38 40 41 42 43 44 46 48 47 47 48 47 47 48 50 51 52 53 54 56 57 58 58 59 61 63 65
54 55 56 56 56 56 56 55 55 58 60 60 62 58 49 39 29 29 34 39 41 43 42 42 43 43 44 45 44 43 44 44 46 48 48 50 51 53 54 55 57 58 59 59 60 62 65 68 70
59 59 61 63 62 61 60 61 58 60 63 62 60 61 49 42 36 30 32 36 42 46 46 45 46 46 47 48 47 46 46 47 48 49 49 51 54 56 57 58 59 60 60 61 64 67 69 70 71

GFSSGP_500_spd_054.txt.gz
Wind_Speed
14 14 14 14 14 14 12 12 11 7 8 9 9 11 11 11 10 9 8 7 6 8 10 10 8 5 4 2 3 7 10 10 10 8 8 9 8 7 10 11 11 12 13 13 9 9 9 8 7
13 13 13 15 15 15 12 9 9 9 7 8 8 9 8 9 8 9 9 7 6 7 8 9 10 9 6 3 5 7 8 9 10 7 6 5 4 5 4 4 5 6 5 5 8 8 8 6 4
13 12 11 12 14 14 13 9 8 9 9 9 9 8 7 6 6 6 6 6 6 7 8 9 7 7 7 7 6 4 6 9 8 7 7 8 7 7 7 7 7 6 7 7 6 5 5 4 4
11 11 11 10 12 11 11 11 9 7 7 8 8 8 8 8 7 6 6 5 4 5 5 6 5 5 4 4 4 5 7 6 6 6 7 7 8 9 8 8 8 8 7 6 5 5 5 5 4
10 10 10 10 11 10 9 8 8 8 7 7 6 7 6 6 6 7 8 8 7 6 6 5 5 4 4 3 2 1 1 1 2 3 4 5 6 7 7 7 7 7 6 6 5 5 4 4 3
9 8 9 9 9 10 9 8 6 5 5 5 5 4 4 4 4 4 5 5 5 5 6 6 5 4 3 3 3 2 1 1 2 4 5 5 5 6 5 5 5 5 5 5 5 4 3 5 5
9 9 8 9 9 8 7 6 6 4 2 2 2 3 2 2 2 2 2 2 3 3 3 3 3 4 4 4 4 4 4 4 5 6 6 6 6 7 7 7 7 7 6 5 5 7 7 6 5
10 9 7 7 7 7 6 4 3 3 3 3 3 1 1 1 2 2 1 1 1 2 2 2 2 2 3 3 4 4 5 6 6 6 7 7 6 5 4 5 5 6 7 7 9 9 8 7 7
13 11 9 6 5 5 4 2 1 1 2 4 4 5 3 3 4 3 3 4 4 5 4 4 4 4 5 5 4 5 5 6 6 7 8 8 7 6 6 8 9 10 10 11 11 9 9 10 10
15 14 11 8 5 3 1 1 2 3 3 3 4 4 5 5 5 6 6 5 6 7 7 8 7 7 7 7 7 6 6 6 6 8 10 10 9 9 8 10 11 12 13 11 11 11 12 11 11
19 16 14 12 8 6 4 5 5 7 5 4 4 5 6 7 8 7 7 7 8 9 10 10 10 10 9 8 8 8 9 9 8 9 11 12 12 12 12 11 12 11 12 13 13 13 13 14 16
21 19 17 15 13 9 7 8 8 10 7 7 7 6 7 7 9 10 10 10 10 11 11 12 12 11 11 10 10 10 11 11 11 12 12 13 15 15 15 13 11 13 14 15 17 17 18 20 21
23 21 19 18 16 13 11 11 10 14 8 9 9 9 7 7 8 9 11 12 12 12 13 14 13 14 14 14 13 13 14 14 14 14 14 15 16 18 16 16 15 15 17 19 22 23 22 20 20
24 22 21 20 18 15 14 12 14 14 10 11 10 8 6 7 8 9 11 12 15 15 16 15 16 15 16 16 16 16 17 16 16 17 18 16 17 17 19 20 20 20 22 24 26 26 25 25 28
25 23 22 21 20 16 16 13 16 13 12 11 9 7 7 9 10 11 12 14 15 17 17 18 18 18 18 18 18 18 18 18 18 19 20 20 20 20 21 24 24 25 25 26 28 30 31 33 33
27 24 23 22 21 19 17 15 14 13 11 10 9 8 9 9 11 13 15 15 15 17 19 19 20 21 21 21 21 21 22 21 21 20 21 23 24 23 25 27 28 29 29 29 30 32 34 36 38
28 26 24 23 21 20 18 16 16 13 13 13 13 13 13 13 14 17 18 20 21 21 20 21 23 24 25 25 25 24 25 25 24 24 24 24 25 28 29 30 32 32 34 36 37 38 39 40 40
30 27 25 24 25 23 20 18 18 16 13 14 15 15 15 17 19 19 21 23 24 24 25 25 25 27 28 29 29 28 27 28 28 27 27 27 29 30 30 33 35 37 39 39 41 41 42 43 44
31 29 28 29 29 27 25 21 22 21 16 19 18 17 17 20 24 25 25 26 27 27 28 29 31 30 29 32 32 32 31 32 31 30 30 30 31 32 34 36 37 39 41 42 43 44 45 45 45
33 32 30 33 33 31 30 24 25 24 20 23 22 22 23 23 26 30 32 32 31 32 33 33 33 34 35 33 35 34 35 34 33 33 33 35 35 35 36 37 39 40 40 43 44 45 46 47 48
34 34 34 37 37 35 33 32 28 25 25 27 24 26 27 28 29 33 35 37 39 40 39 38 38 37 37 38 36 36 37 36 36 36 38 39 38 39 40 40 40 42 43 44 45 46 48 49 50
39 38 40 40 40 40 37 45 30 27 28 27 27 29 28 31 32 34 37 40 44 45 42 41 41 39 37 38 37 36 36 37 38 40 42 42 42 44 45 45 45 45 46 47 48 49 50 50 51
44 43 43 43 43 44 44 48 38 31 31 29 30 30 32 33 33 35 37 41 45 45 43 40 37 37 37 37 37 37 37 38 40 42 43 43 45 46 48 49 48 49 49 50 50 51 52 52 53
48 46 45 45 45 48 47 46 47 35 30 32 31 32 35 36 36 35 38 41 45 44 43 42 36 35 35 34 37 37 37 38 40 42 43 44 45 46 47 50 50 50 51 51 52 53 53 54 54
50 48 46 47 49 51 50 49 50 41 38 36 35 37 39 38 38 38 41 43 41 44 42 43 40 38 37 35 36 37 39 40 42 43 44 46 47 48 49 51 51 52 52 53 53 53 54 55 56
46 47 48 52 52 53 54 54 50 43 45 41 41 40 42 42 42 44 47 44 43 42 40 43 40 39 39 39 38 39 40 42 45 45 46 47 47 49 50 51 51 51 52 52 53 55 56 57 59
52 53 51 52 53 56 56 54 52 48 44 48 47 47 48 46 47 46 49 47 39 36 38 42 40 38 37 40 40 41 43 44 45 46 47 49 50 51 51 51 51 51 52 53 55 56 57 60 61
54 54 55 56 57 59 59 57 53 49 50 46 52 54 50 50 54 54 47 46 37 35 39 43 40 38 37 38 40 41 42 43 44 46 47 49 51 52 53 52 52 52 53 54 56 58 60 62 63
54 56 57 58 59 61 60 61 53 51 52 55 53 54 54 55 56 59 51 45 38 38 43 44 45 45 43 42 42 43 43 44 44 44 45 45 47 47 49 50 52 53 54 55 56 58 61 64 65
56 56 59 62 61 61 59 61 53 53 55 55 55 53 55 58 61 60 48 38 38 40 43 46 47 47 47 46 46 48 49 50 48 46 46 47 47 48 49 49 50 52 53 55 57 61 63 66 68

GFSSGP_500_spd_057.txt.gz
Wind_Speed
16 14 13 11 10 11 11 9 8 6 6 5 6 7 9 9 8 8 7 6 6 7 7 5 6 3 1 1 5 7 6 5 10 6 7 9 11 11 11 10 8 7 9 10 10 10 9 9 10
15 14 13 12 11 11 7 8 10 7 5 6 6 5 6 7 7 7 7 7 7 8 8 9 8 7 6 3 3 4 4 5 5 5 4 3 4 5 5 4 6 7 8 7 8 12 11 9 7
14 14 11 10 11 12 9 7 8 8 7 7 6 6 5 5 5 4 5 6 7 7 8 9 9 8 9 8 5 5 6 6 7 7 5 4 4 4 5 5 4 5 6 5 5 5 5 6 5
12 12 11 9 11 9 10 9 8 6 5 6 6 7 7 7 8 6 6 6 5 6 7 8 8 9 7 7 7 6 3 4 5 6 6 6 7 7 7 7 7 5 5 5 5 5 5 5 4
11 9 9 9 9 9 8 8 8 6 4 4 4 4 5 6 6 7 7 8 8 7 7 7 8 6 6 6 6 5 4 3 2 1 1 1 2 4 5 6 7 6 6 5 5 5 4 5 5
11 9 8 8 8 8 8 8 6 5 4 3 2 2 3 3 3 3 3 4 5 6 6 7 8 8 8 7 6 5 5 4 3 3 3 3 3 4 5 6 5 6 5 6 5 6 7 7 6
11 10 8 7 7 6 6 7 6 4 3 2 1 1 2 1 1 2 2 2 3 3 4 4 4 5 5 6 6 6 5 4 4 5 5 6 6 6 6 6 6 6 6 7 8 9 9 9 9
12 11 9 7 6 5 4 5 4 2 1 1 0 1 2 3 4 3 4 4 3 3 4 4 4 3 3 3 4 4 4 4 4 3 4 4 5 6 7 7 7 7 7 9 10 11 11 9 8
15 13 11 9 6 4 3 2 2 1 1 2 2 2 3 3 5 5 5 5 5 6 6 5 5 5 5 5 5 5 4 4 5 5 5 5 5 5 7 8 9 9 10 11 11 11 9 8 8
16 16 13 11 9 6 5 3 1 2 2 2 2 3 4 4 4 5 7 7 6 6 7 8 8 8 8 8 8 7 6 5 6 7 8 7 7 7 8 9 10 11 12 13 12 10 10 10 11
20 18 15 14 12 10 8 7 5 4 4 4 2 4 5 6 6 6 7 8 9 9 10 10 10 10 10 9 9 9 9 9 9 11 10 9 10 10 10 11 12 13 13 12 11 12 13 13 14
22 21 18 17 15 13 12 11 9 10 6 7 7 6 5 6 6 6 7 9 9 10 11 12 12 13 12 11 11 11 11 11 11 12 14 13 12 12 12 13 14 12 12 13 15 16 17 18 20
24 24 21 20 19 17 15 15 11 15 8 9 9 7 5 5 5 5 7 8 10 11 12 13 14 14 14 13 13 14 14 15 14 15 15 15 15 15 15 16 14 15 15 16 19 21 22 24 25
25 26 24 22 21 20 18 17 15 18 11 13 11 10 7 6 5 6 7 9 11 12 14 14 16 16 16 16 16 17 17 17 17 17 17 18 18 17 18 18 18 20 20 20 23 25 28 30 29
27 27 26 24 23 21 21 18 18 17 14 13 12 10 9 9 7 7 7 9 10 12 13 15 17 18 18 19 19 19 20 19 19 18 20 21 20 22 21 21 22 24 25 25 27 29 29 31 32
28 29 27 25 25 22 23 18 22 18 14 13 11 10 11 11 11 12 12 12 13 15 17 18 18 19 22 23 23 23 23 22 22 21 22 22 22 24 25 25 26 27 28 30 32 33 35 36 37
30 29 28 27 27 25 24 20 22 18 13 12 12 13 14 14 15 16 14 15 16 18 20 20 22 23 23 25 26 27 27 27 26 25 25 25 25 26 26 28 30 32 33 34 36 38 40 42 43
34 32 30 30 28 27 25 20 23 20 16 13 13 13 14 16 19 18 19 19 19 21 21 23 24 26 27 28 28 29 30 30 31 30 29 29 29 28 29 30 31 33 35 38 39 41 43 44 45
34 33 31 31 30 30 27 24 24 23 17 17 16 16 16 18 22 22 23 24 25 26 27 27 28 30 30 30 32 32 32 34 34 34 33 33 32 32 32 33 33 34 35 38 39 41 44 46 46
36 34 32 34 35 33 32 26 27 26 22 21 20 19 21 21 24 27 29 29 29 30 31 33 35 35 35 34 33 33 36 34 35 36 37 37 37 37 36 36 36 38 39 40 41 42 44 47 48
36 35 34 37 38 38 35 31 31 28 25 26 22 23 24 25 27 29 31 32 34 34 35 38 39 38 37 36 35 34 34 36 37 38 39 41 41 40 40 41 43 43 45 45 46 45 47 49 52
40 40 39 41 42 41 38 42 34 30 29 28 26 29 27 27 29 29 31 30 34 35 37 40 42 40 38 34 33 34 36 37 38 39 40 42 42 43 44 45 45 47 47 48 50 50 51 51 52
45 43 43 43 44 45 43 47 37 33 32 28 31 32 32 32 33 32 33 33 33 36 38 42 44 42 42 37 32 33 35 37 38 38 41 42 43 43 44 45 46 48 49 50 51 52 52 53 54
47 48 47 47 47 49 47 49 47 36 36 31 34 33 34 35 35 35 36 35 36 37 41 44 43 43 44 39 35 36 36 36 37 38 40 41 42 43 44 45 47 49 51 50 52 52 53 54 54
48 49 49 50 52 50 52 52 50 47 39 37 36 37 36 37 39 38 38 37 39 40 43 45 45 43 43 42 36 38 39 37 35 37 40 42 43 45 46 48 49 50 52 53 53 53 53 52 53
46 46 48 52 54 54 57 53 48 51 45 43 41 41 41 42 42 42 43 42 41 42 44 44 41 42 42 42 39 37 39 41 40 40 41 43 44 47 49 50 50 52 54 54 53 53 53 52 52
52 53 49 52 55 59 59 53 52 52 50 50 44 44 47 47 45 45 46 45 45 45 43 46 45 41 44 43 44 39 37 38 39 40 40 41 42 44 46 48 51 52 53 54 53 53 53 53 54
53 53 56 57 59 61 60 58 55 54 54 51 52 50 50 50 49 50 48 49 50 49 48 48 48 45 44 47 47 43 40 39 40 40 41 42 43 43 45 47 48 48 49 50 51 52 53 54 55
55 57 58 59 60 62 61 61 56 55 56 54 54 57 56 56 54 52 52 51 52 53 53 51 48 44 42 48 50 47 45 44 45 45 46 47 48 47 49 49 49 49 49 49 50 51 53 55 56
57 55 58 62 61 63 62 61 54 55 56 57 57 57 57 58 59 57 57 56 55 56 58 58 52 48 46 46 50 47 45 44 46 49 50 52 52 51 51 51 51 49 49 50 51 51 52 54 55

GFSSGP_500_spd_060.txt.gz
Wind_Speed
14 14 12 11 12 13 12 7 7 7 7 8 8 9 10 10 10 10 10 9 10 11 9 9 8 5 4 5 9 11 8 9 16 11 7 9 10 11 10 9 8 7 7 6 8 7 7 8 8
15 14 13 11 7 14 7 8 8 8 8 7 8 8 8 8 9 9 10 10 10 12 12 12 11 8 6 4 6 7 7 8 6 5 3 3 4 3 3 3 3 5 6 6 6 6 8 8 6
15 14 13 10 12 12 9 7 8 8 9 9 9 9 9 8 8 8 8 9 10 11 11 11 11 12 10 10 7 5 4 2 2 3 1 1 1 2 2 3 3 2 4 4 4 4 4 4 3
14 13 12 8 11 10 9 7 7 6 7 7 8 9 10 10 10 10 10 10 10 10 10 10 10 11 11 12 12 11 7 2 1 1 2 3 4 5 4 4 4 4 4 4 4 4 4 3 2
13 13 9 9 7 6 6 6 6 6 5 5 6 6 7 8 8 9 9 10 10 11 11 12 12 11 10 10 11 9 7 6 6 5 3 1 1 2 3 3 3 4 4 3 4 4 4 5 5
12 12 10 8 6 4 4 4 5 4 4 5 5 5 5 5 5 6 6 7 8 9 9 9 10 11 11 10 11 9 7 6 5 5 4 3 3 4 4 4 5 5 4 4 5 5 7 7 6
12 10 9 9 5 4 4 3 4 3 2 2 3 4 4 4 5 5 4 4 5 6 7 8 8 7 7 7 8 8 8 7 7 5 4 4 4 4 5 5 5 6 6 7 8 9 8 7 7
12 10 9 9 6 4 3 3 2 2 3 2 1 2 2 4 4 5 6 5 4 4 4 5 6 6 5 5 5 6 5 5 4 3 4 3 3 4 5 6 7 8 8 8 8 9 9 9 8
13 12 10 9 7 5 3 2 1 1 1 2 2 1 1 2 4 5 5 6 6 6 6 5 5 5 6 6 5 4 3 3 3 2 2 2 3 4 5 6 7 8 9 10 10 11 10 8 7
14 14 13 10 9 7 5 3 3 3 3 1 1 2 2 2 3 4 5 6 7 8 8 8 8 8 8 7 6 6 5 5 6 6 6 5 5 5 7 7 8 10 11 12 12 11 10 9 10
18 18 14 13 10 9 8 7 6 6 4 4 3 3 3 3 3 4 5 6 7 8 9 10 10 9 9 8 7 7 6 7 8 10 10 9 9 9 8 9 9 10 12 14 12 10 11 13 13
22 22 19 16 14 13 11 10 10 9 5 7 7 4 4 3 2 2 3 5 7 8 10 11 11 12 11 10 10 9 9 9 9 12 12 11 13 12 10 12 11 11 13 13 12 13 14 15 17
26 24 23 20 17 16 14 13 11 15 8 10 10 7 6 4 2 2 2 2 4 6 8 10 11 12 13 14 12 12 12 13 13 13 15 14 14 14 15 14 15 14 14 15 16 17 18 20 22
26 28 26 24 20 19 18 16 13 19 11 12 12 11 7 7 5 5 4 5 6 7 8 10 12 13 13 15 15 16 16 16 17 16 17 16 17 17 17 17 17 17 18 19 21 22 23 25 27
29 31 29 26 23 21 22 17 16 18 15 13 13 11 10 8 7 6 5 6 7 9 10 13 13 14 15 17 17 18 20 19 21 20 19 19 18 18 20 21 22 22 21 23 26 28 28 29 31
31 32 30 28 25 24 24 17 19 19 17 14 13 11 10 10 8 9 8 9 9 11 13 12 15 16 17 19 20 21 22 23 23 24 23 23 22 23 22 21 23 25 26 27 29 31 33 36 37
32 31 31 30 27 25 27 20 20 21 18 13 12 12 11 12 13 13 11 12 12 13 15 16 16 18 19 20 21 22 24 25 27 28 27 28 27 26 27 26 26 28 28 29 32 34 35 37 41
33 34 33 30 30 28 28 22 23 22 19 15 13 14 12 12 15 14 14 15 16 18 19 21 20 23 24 25 25 25 25 26 28 30 30 31 33 29 31 30 29 30 30 30 32 33 35 36 39
35 34 32 33 31 29 30 25 23 23 20 17 18 16 14 15 18 18 17 19 20 22 23 24 26 27 28 28 28 28 27 28 28 31 32 33 34 34 34 33 35 34 34 34 35 36 38 38 38
35 36 32 32 33 33 32 28 25 25 23 22 19 18 18 19 21 22 22 23 24 25 26 26 27 28 30 31 31 30 29 30 30 30 35 36 37 38 38 37 38 37 38 39 41 42 43 43 45
37 37 33 34 37 33 36 30 28 28 26 24 21 22 22 23 24 25 25 24 24 25 27 28 29 30 32 36 34 33 30 32 32 33 37 38 39 39 41 40 41 42 42 43 44 45 46 47 46
38 38 38 37 39 38 37 37 31 29 28 26 25 26 26 27 27 27 28 27 26 28 29 31 31 32 35 38 37 36 35 32 33 34 35 38 39 41 42 43 44 44 44 45 45 47 48 48 49
41 40 40 39 42 41 39 42 29 30 32 30 27 29 30 30 30 32 31 33 29 31 33 33 33 34 38 40 41 38 38 33 34 34 34 36 39 41 41 42 42 43 44 46 47 47 48 50 51
43 43 43 42 44 44 40 41 42 30 33 32 31 33 33 33 34 35 35 34 35 35 37 36 36 39 41 43 42 41 39 37 35 35 34 36 38 40 40 40 41 43 45 46 48 49 49 50 51
45 45 44 45 47 46 47 44 47 40 34 36 35 37 38 36 38 38 38 36 38 38 39 39 40 41 42 43 44 44 42 40 38 36 35 39 40 40 41 42 44 46 47 48 50 51 52 54 54
44 45 45 48 48 48 50 47 45 48 43 39 41 41 41 41 40 42 43 41 42 43 43 42 43 43 44 45 45 43 44 43 41 37 36 40 40 42 43 44 45 46 47 47 49 50 51 51 52
49 50 46 49 50 53 52 47 49 49 50 50 46 44 43 43 44 45 46 46 46 46 48 47 47 46 45 44 45 42 41 41 42 40 38 38 38 41 43 43 44 45 46 46 48 49 50 50 50
53 52 52 53 55 56 54 51 48 49 51 52 54 53 49 46 46 48 48 49 50 50 51 51 51 49 47 46 46 44 43 43 45 43 41 43 44 44 44 46 47 48 49 49 50 50 50 51 51
51 53 55 55 55 57 57 55 51 49 51 53 55 56 55 54 51 51 52 53 54 53 52 52 53 52 50 51 48 48 44 44 45 41 41 44 46 46 45 48 50 51 51 50 50 52 52 51 53
53 53 56 59 58 59 58 56 52 51 54 56 56 55 56 54 57 58 55 55 56 55 53 53 54 54 53 52 54 48 45 45 48 49 49 51 51 50 52 53 54 54 53 53 53 53 53 53 55

GFSSGP_500_spd_063.txt.gz
Wind_Speed
14 14 13 11 10 11 14 12 11 11 12 13 13 14 15 15 14 13 13 13 13 13 12 8 5 7 9 12 11 10 10 8 8 11 13 11 11 11 9 9 9 7 7 5 6 7 6 6 6
14 14 13 9 4 12 13 14 12 11 11 12 12 13 12 13 13 13 14 14 14 15 16 14 12 10 10 12 12 11 11 10 11 16 11 7 6 6 4 4 4 4 5 4 5 5 6 7 4
14 15 13 9 12 13 13 11 11 11 12 12 13 14 13 13 14 13 13 14 14 15 16 15 14 16 15 11 9 8 8 6 7 6 6 6 6 4 2 1 2 2 3 3 3 3 3 3 3
13 14 13 9 14 13 11 10 9 10 10 11 11 12 13 13 15 15 14 14 16 16 15 14 14 15 14 15 14 11 7 5 3 3 2 1 1 1 2 2 3 3 4 4 4 3 4 4 4
12 12 13 12 14 11 9 8 8 8 9 9 8 9 9 10 11 12 13 13 14 14 15 16 16 14 13 13 13 11 9 8 7 7 6 4 3 3 2 1 2 2 4 4 3 3 4 5 5
13 10 10 10 13 9 5 6 5 5 6 7 7 8 8 7 8 9 10 10 11 11 12 12 12 13 14 13 13 11 9 7 7 6 5 4 3 3 2 2 2 3 3 4 5 5 7 6 6
10 9 7 5 11 8 5 4 3 2 2 4 5 5 6 6 7 7 8 7 8 8 9 10 11 10 10 10 9 8 9 7 7 7 5 3 2 1 2 3 4 5 6 7 8 8 7 5 5
11 10 9 7 9 7 4 3 1 2 3 4 3 4 4 4 5 6 6 6 6 6 6 7 7 8 8 7 6 6 5 4 4 3 2 2 1 1 2 3 4 6 7 8 7 7 7 7 7
11 10 10 9 7 6 4 3 1 1 1 2 3 3 3 4 4 4 5 6 6 7 7 7 7 7 7 6 5 4 3 1 1 1 0 2 4 4 5 6 6 7 7 8 8 9 10 9 6
12 12 10 8 9 8 5 2 1 2 1 2 2 2 4 4 3 4 5 5 6 7 7 7 7 7 6 6 4 3 3 3 3 3 3 4 5 6 6 7 8 9 10 11 11 11 10 9 9
14 15 10 11 10 8 6 3 2 2 2 3 3 1 4 4 4 3 3 4 4 5 6 7 8 8 8 6 6 5 5 5 6 5 5 7 8 9 8 9 9 10 11 13 13 12 10 10 13
18 17 14 15 13 10 9 7 6 6 1 4 5 5 2 3 2 4 4 4 4 5 5 6 6 7 8 9 8 8 8 8 9 9 9 10 11 11 11 13 13 12 13 14 14 13 13 14 16
22 20 18 19 16 14 13 10 7 10 4 8 6 6 6 4 3 2 2 3 4 5 6 7 8 8 8 10 9 10 10 11 12 13 12 12 13 14 14 13 15 16 17 17 17 17 18 19 20
24 23 24 23 21 18 17 14 9 13 6 8 10 7 8 7 4 4 2 3 5 7 7 8 9 10 11 13 12 12 13 14 14 16 16 15 15 18 18 16 17 17 18 20 21 22 22 24 25
27 27 26 26 25 23 21 17 15 13 11 10 10 10 9 9 7 6 3 3 2 4 7 8 9 9 10 11 12 14 15 16 17 18 19 18 18 18 21 21 20 20 19 20 22 23 26 28 30
29 29 28 28 29 27 25 18 21 16 14 13 10 11 10 10 9 9 6 4 5 3 5 9 10 11 11 13 14 15 16 16 19 20 21 21 21 22 22 22 23 24 24 24 25 25 26 29 32
27 28 30 31 30 29 28 22 23 19 17 14 12 11 11 11 11 12 9 9 7 8 9 11 15 15 15 15 17 18 19 20 20 21 22 24 24 24 26 25 26 27 26 27 27 27 27 28 30
29 29 31 31 31 32 31 26 25 23 19 16 14 14 12 12 15 12 11 10 12 11 13 14 15 19 19 19 18 20 21 23 24 25 26 26 28 27 30 30 29 30 30 31 31 31 31 32 33
30 30 31 32 31 31 31 29 26 25 21 18 18 17 14 15 16 14 13 15 14 16 17 17 17 19 20 21 21 22 23 25 26 27 30 32 32 32 34 33 34 35 34 34 34 35 36 37 36
30 31 31 32 33 32 33 29 27 26 21 20 19 18 19 18 19 18 17 16 18 19 18 19 19 19 22 22 23 25 27 27 27 29 31 36 37 34 35 37 38 38 38 39 39 40 40 41 41
31 31 32 33 34 32 33 32 29 27 24 22 21 22 23 23 22 22 21 20 20 21 23 22 22 23 25 25 26 28 29 30 30 31 31 36 37 35 36 38 40 42 43 41 41 42 43 44 44
33 33 34 35 36 35 34 33 29 26 27 24 24 26 27 26 25 25 25 25 24 26 27 27 26 27 26 29 29 31 31 31 33 34 33 35 37 36 37 38 39 40 42 42 42 43 44 44 44
36 36 36 37 37 37 34 38 23 28 28 27 27 28 28 29 29 29 29 29 29 28 29 30 30 31 30 32 32 34 35 36 35 34 35 36 39 40 39 38 38 39 41 42 42 44 45 45 45
40 40 40 39 39 40 37 37 33 27 28 30 29 30 32 33 33 33 34 34 34 33 33 33 34 35 36 36 36 36 36 38 38 36 34 34 37 42 43 43 41 40 40 42 43 45 47 48 49
41 42 42 43 42 41 42 40 43 34 31 32 31 32 34 36 37 37 38 38 38 38 37 37 38 39 39 40 40 39 39 40 38 37 38 34 35 39 42 44 43 43 43 45 45 47 48 48 50
42 43 43 46 45 43 45 43 43 45 36 36 38 38 36 37 38 40 41 40 43 42 42 41 42 43 43 44 44 42 42 42 42 39 37 38 36 38 41 42 43 43 43 44 45 46 47 48 49
47 48 46 46 47 48 47 44 43 45 45 39 40 41 42 42 42 43 43 44 45 44 44 45 46 47 48 49 48 46 44 43 42 41 40 39 38 40 44 45 45 46 46 46 47 48 50 51 52
53 51 50 50 52 52 51 48 46 46 47 47 44 45 45 46 47 46 46 46 47 48 49 50 51 51 52 53 52 49 45 45 43 42 42 43 43 41 44 47 46 48 48 49 49 50 52 53 54
52 52 52 52 52 54 55 51 49 48 50 52 52 51 51 50 49 49 49 48 49 51 52 53 54 55 55 55 54 51 48 47 45 43 42 45 49 52 53 55 52 50 50 52 53 53 54 53 54
53 55 55 56 55 54 56 57 51 52 53 54 55 56 56 55 52 51 50 51 51 51 52 55 56 56 55 54 53 52 53 50 48 49 48 48 49 53 55 56 54 53 51 50 50 50 51 52 53

GFSSGP_500_spd_069.txt.gz
Wind_Speed
14 12 12 13 13 13 15 15 16 17 18 18 16 16 16 13 11 9 9 9 7 5 7 10 12 12 10 9 13 10 7 8 6 14 12 12 9 12 12 11 9 9 8 8 8 9 9 9 9
14 13 12 13 13 13 15 15 16 18 18 18 18 17 15 13 11 11 11 12 13 11 8 11 13 12 12 13 13 10 4 5 12 12 10 10 11 11 11 10 10 9 7 8 9 9 10 11 12
16 16 13 13 13 13 14 14 15 17 16 17 16 16 15 14 13 11 10 12 14 14 14 16 13 13 11 13 12 10 9 7 4 6 9 9 8 8 8 7 4 4 5 6 7 8 8 9 8
16 15 14 14 12 13 13 13 15 14 14 14 15 14 14 13 13 13 13 13 14 14 14 17 16 12 11 11 10 11 11 9 5 5 5 4 5 6 6 6 5 6 7 7 7 8 9 9 8
16 15 15 12 13 14 13 12 12 12 11 12 13 11 11 11 11 12 12 13 14 14 14 14 16 16 15 13 12 11 9 7 7 6 5 5 6 5 5 5 5 6 7 7 8 9 10 10 9
16 14 15 12 13 13 13 12 12 9 9 9 11 11 9 9 9 9 11 12 13 13 12 13 15 14 13 12 11 11 10 9 8 7 7 7 6 5 4 4 4 6 6 7 8 9 10 11 10
16 15 15 11 11 11 11 10 10 5 6 7 6 7 7 8 8 9 8 9 11 12 12 11 11 12 12 11 10 9 7 7 6 6 5 4 4 4 3 4 6 8 8 9 9 10 11 10 9
17 15 14 13 9 8 9 8 9 6 6 7 6 6 6 6 5 7 8 8 9 9 9 10 10 9 8 7 5 5 4 4 3 3 3 3 2 2 4 4 5 7 7 8 8 8 8 8 9
18 16 14 13 11 10 7 7 7 7 5 5 6 6 6 5 4 5 5 6 7 7 8 8 7 7 6 6 4 3 3 2 1 2 3 4 4 5 7 8 8 9 10 10 10 10 11 11 11
17 15 14 12 10 9 7 5 6 7 5 5 5 6 6 4 3 3 4 4 5 6 6 7 6 5 4 4 3 2 2 2 2 3 4 6 7 8 10 12 12 13 13 13 13 13 14 14 14
18 17 16 14 12 10 9 8 6 6 3 3 2 2 4 3 2 2 2 3 4 4 5 5 5 4 3 3 3 3 3 2 3 5 5 7 8 9 11 13 15 16 16 17 17 17 17 18 17
20 18 16 14 12 11 9 8 8 6 5 3 4 2 1 2 2 2 3 3 3 4 4 3 3 3 3 2 2 1 1 2 4 7 8 8 9 10 10 12 14 16 17 18 20 20 20 20 19
23 20 18 16 15 13 12 11 11 8 5 5 6 4 4 2 2 1 2 3 4 4 4 4 3 3 3 1 0 1 2 3 5 8 10 11 12 12 12 12 14 16 17 17 18 20 21 22 23
24 23 21 20 18 16 15 14 14 9 8 9 7 7 6 4 4 2 3 2 3 3 3 2 2 2 3 3 2 3 4 5 6 9 12 13 14 15 15 16 17 17 19 21 21 21 22 22 24
27 25 23 23 20 20 19 18 19 13 12 12 10 9 11 9 9 7 6 5 4 3 3 2 2 2 3 4 5 6 7 8 8 10 13 15 16 17 18 19 21 22 23 24 24 24 25 25 26
30 28 25 25 24 23 22 21 22 18 17 14 13 12 12 14 13 13 11 9 8 7 6 4 3 4 5 7 8 9 9 9 10 10 11 14 17 20 22 23 25 25 26 28 30 31 30 29 30
31 28 28 29 28 26 26 24 24 23 18 17 16 15 16 15 17 16 15 14 12 11 11 10 9 9 9 10 11 11 10 10 11 13 14 15 17 19 21 24 26 27 28 30 32 34 34 35 35
30 31 31 30 30 29 29 28 28 26 23 21 19 18 18 16 19 18 19 18 16 15 14 13 13 14 13 13 12 12 12 12 13 14 16 17 19 22 25 26 28 29 29 30 33 34 35 37 38
34 31 30 30 30 30 31 30 31 29 25 25 23 22 21 18 21 19 21 19 18 18 17 17 15 17 15 15 16 16 17 16 17 17 18 19 19 21 24 26 29 31 33 34 33 34 37 38 39
33 32 30 30 30 30 30 28 31 31 28 26 26 25 25 22 24 24 22 20 19 20 20 20 21 21 19 17 19 19 20 21 22 22 22 22 23 23 25 26 29 32 33 34 36 37 38 39 40
34 32 32 32 32 32 31 28 29 30 29 27 27 29 28 26 26 26 24 24 24 23 24 24 23 23 24 25 24 24 23 23 25 27 28 28 29 29 28 29 29 32 33 36 38 40 42 43 43
34 33 33 34 34 33 32 30 28 30 30 29 31 30 30 29 28 29 29 29 28 28 28 27 27 27 28 29 30 29 28 28 30 30 31 32 33 34 34 35 34 34 35 35 38 40 43 45 44
36 36 35 35 35 34 31 33 25 27 28 33 33 33 32 33 32 32 33 33 33 33 32 32 32 32 32 32 33 34 34 33 33 35 36 37 37 37 38 39 40 38 38 38 39 41 44 46 48
38 37 37 37 35 34 31 33 28 26 28 31 32 33 33 35 36 36 37 37 37 37 36 37 37 37 37 37 37 38 38 38 39 40 42 42 41 42 42 43 44 44 44 42 41 41 43 45 47
40 39 38 37 37 35 34 33 32 31 31 30 31 32 35 36 39 40 40 40 40 41 41 42 42 43 43 42 42 42 43 43 44 45 46 46 46 46 46 47 47 48 48 48 49 49 47 46 48
41 39 40 39 38 38 38 35 35 38 35 36 36 36 36 39 40 42 44 44 45 45 47 47 47 47 48 48 48 48 48 48 49 48 49 48 48 48 48 50 51 52 52 52 52 53 53 54 54
45 43 42 42 42 42 41 39 38 39 42 40 40 40 40 41 43 45 47 48 48 49 49 49 50 50 50 50 51 51 51 50 51 50 49 50 49 49 50 50 50 52 53 54 55 56 57 59 61
51 49 48 47 47 46 45 44 44 44 46 48 45 43 43 45 45 46 48 50 51 52 51 52 53 53 52 53 52 52 53 53 51 49 49 51 50 49 48 49 50 51 52 54 55 58 62 64 65
55 54 52 51 51 51 50 49 50 51 50 49 51 50 49 48 48 49 50 48 49 50 51 51 52 52 52 53 53 53 52 51 50 49 48 48 48 48 49 49 51 51 53 56 59 61 63 64 65
57 57 57 57 55 54 54 55 55 56 56 55 55 55 55 53 53 52 52 53 53 53 54 55 55 54 55 55 55 55 53 52 51 50 51 50 49 50 51 51 52 56 58 56 57 58 59 59 59

GFSSGP_500_spd_072.txt.gz
Wind_Speed
15 14 14 15 13 14 14 15 16 18 16 17 16 15 14 13 11 8 7 6 7 8 6 8 11 15 10 13 20 14 11 9 6 11 12 8 6 5 6 7 7 8 10 11 10 9 8 9 10
16 16 16 15 15 14 16 16 15 16 16 18 17 16 14 13 11 9 9 8 7 7 7 9 12 12 11 10 15 15 9 10 5 4 11 8 6 4 6 7 8 9 9 8 9 9 10 11 12
18 17 17 16 16 13 18 15 14 15 15 17 17 17 16 15 13 12 9 10 9 10 10 11 14 11 12 14 13 10 6 4 6 7 5 5 3 3 4 5 6 7 7 7 8 9 10 10 11
18 17 17 16 15 15 18 16 13 15 14 15 15 15 15 14 14 14 13 9 10 12 11 11 11 11 12 11 11 11 12 10 7 4 3 3 3 3 4 4 5 7 8 10 10 11 11 11 10
18 17 16 16 15 17 17 15 14 14 12 12 12 14 13 13 13 12 12 12 11 11 13 14 14 12 12 13 11 11 10 9 8 7 4 4 5 6 6 7 8 9 9 10 10 11 11 12 12
18 17 17 16 15 17 15 15 13 14 12 11 10 12 10 11 11 11 11 11 11 12 12 12 13 13 14 14 13 12 11 9 8 6 5 5 5 6 7 7 7 8 9 10 10 10 11 12 12
19 19 18 16 13 14 14 13 13 11 9 10 8 8 9 10 9 9 8 9 10 11 11 11 11 11 12 10 11 10 10 9 7 6 5 5 5 6 7 8 7 8 9 10 11 11 12 13 12
21 20 18 16 13 12 12 12 12 12 9 9 8 6 8 8 8 7 7 7 7 8 8 8 8 9 9 8 7 7 6 6 4 3 2 3 3 4 5 7 7 8 9 9 10 10 10 11 11
23 21 18 16 14 11 11 12 10 11 11 9 8 6 5 6 6 6 5 5 6 6 6 6 6 6 6 6 6 4 3 2 1 1 2 4 6 7 8 9 10 10 10 12 12 12 12 13 14
23 21 19 16 14 12 10 11 9 9 11 11 9 7 6 4 2 4 5 4 3 4 4 4 4 4 4 3 2 2 1 0 1 2 4 5 7 8 10 11 13 13 14 16 16 16 15 16 16
22 21 20 18 16 13 11 10 9 8 9 11 8 7 5 5 4 2 2 3 3 3 3 3 3 3 3 2 2 0 1 2 3 4 5 7 8 9 10 12 13 13 15 16 18 18 19 19 19
23 22 20 18 16 14 12 10 8 6 6 9 8 6 5 3 3 3 3 2 2 2 2 3 2 3 3 2 2 1 1 3 6 7 7 9 10 11 11 13 14 15 15 16 17 19 21 22 21
26 24 22 20 18 15 12 11 9 7 5 5 6 6 6 6 3 2 2 2 1 2 2 2 2 2 2 2 1 1 2 4 7 8 9 11 12 13 13 14 15 16 17 18 19 21 21 22 23
27 25 23 21 19 17 14 13 10 9 9 8 6 5 6 7 7 5 4 2 2 2 1 1 1 1 2 1 0 1 2 4 6 9 10 11 13 14 16 18 19 20 21 22 23 24 25 26 26
28 25 24 22 20 18 17 15 14 12 12 10 8 8 9 8 8 8 8 7 6 5 4 3 2 1 1 2 3 4 5 6 7 8 10 11 13 14 16 18 19 20 22 25 27 28 29 30 31
30 28 25 23 22 20 19 17 18 15 15 12 12 10 12 13 11 12 12 11 10 9 8 8 7 7 7 7 9 9 9 9 8 9 11 12 14 15 17 18 19 20 21 23 26 29 30 31 33
32 28 26 26 24 23 22 21 20 19 17 16 15 15 16 15 16 15 15 15 15 13 13 13 12 11 11 11 13 13 12 11 10 10 11 13 15 17 19 21 22 22 23 24 26 27 28 30 32
30 29 29 29 28 26 25 25 24 23 21 20 18 17 18 18 19 17 18 19 19 18 17 16 16 16 14 14 15 15 14 14 15 15 15 15 16 17 18 21 24 25 26 27 28 30 31 30 31
36 34 32 31 30 29 28 27 27 26 23 25 22 22 21 21 22 20 21 22 20 20 21 21 19 20 18 18 18 17 17 17 18 19 20 21 21 21 23 22 24 25 26 28 30 31 32 34 36
37 34 33 32 31 31 29 26 28 28 26 26 26 27 25 25 26 24 22 22 23 23 24 22 24 22 21 20 21 19 21 21 22 23 23 24 25 26 27 28 28 30 30 30 31 31 32 33 35
36 34 33 33 32 31 29 25 26 28 26 27 29 30 28 27 28 26 25 26 25 26 27 27 26 25 25 24 23 24 24 25 27 28 29 29 29 30 31 31 32 34 36 36 36 37 37 36 36
36 35 35 35 34 33 30 28 26 27 27 28 30 29 30 30 30 30 29 27 29 30 30 30 30 29 29 29 28 29 29 29 31 32 33 34 36 36 37 37 37 37 40 41 41 41 42 42 40
38 36 37 37 36 35 31 33 26 27 29 31 30 31 31 32 32 32 32 31 32 33 35 34 34 34 34 35 34 34 34 35 36 37 37 38 39 41 43 44 45 44 44 45 46 47 48 48 48
40 39 39 38 38 36 33 33 28 28 28 30 31 31 32 32 33 34 34 35 35 36 36 37 38 39 39 40 39 40 40 41 41 43 43 43 44 46 48 49 50 50 49 49 49 49 49 50 51
41 41 39 39 39 38 35 34 32 31 29 28 30 32 32 33 32 34 36 39 39 39 39 40 42 43 44 44 44 44 45 46 48 48 49 50 51 52 53 52 53 52 51 51 52 53 53 54 54
38 39 38 40 40 40 39 37 37 33 32 32 31 31 32 34 35 36 36 38 41 42 42 43 44 46 47 48 48 48 49 51 52 53 53 54 54 54 55 55 54 55 55 54 55 54 55 56 57
41 42 41 40 40 41 41 39 38 37 35 34 33 33 34 35 37 38 39 40 42 44 45 47 48 48 49 49 50 52 53 54 55 55 55 54 54 55 55 56 56 57 56 56 57 56 54 55 55
44 44 44 44 43 43 42 41 42 42 41 40 39 37 37 37 37 39 41 42 45 46 47 48 50 51 51 53 54 55 56 54 53 54 56 57 57 55 55 55 56 56 56 56 57 55 54 55 56
49 50 49 47 47 47 47 47 48 46 45 44 44 44 44 44 44 44 44 44 44 45 46 46 47 49 51 53 52 53 53 53 54 54 55 56 55 54 54 55 54 55 56 56 56 56 58 61 64
53 53 53 53 52 52 51 50 51 52 51 50 50 51 51 50 48 48 48 49 49 50 51 53 53 54 54 54 54 54 54 55 55 55 54 54 54 54 54 55 54 54 55 56 58 60 62 61 59

GFSSGP_500_spd_075.txt.gz
Wind_Speed
20 18 17 16 15 12 11 14 14 16 14 14 15 14 15 14 12 8 5 3 6 5 5 8 12 14 15 19 16 13 14 11 11 9 10 8 7 6 5 5 6 6 7 8 9 9 10 10 11
20 19 18 16 16 15 15 14 15 15 16 16 15 15 15 14 12 11 10 8 3 5 4 6 11 14 12 12 18 18 16 15 8 7 7 6 6 5 4 4 4 5 6 6 7 7 8 10 11
21 20 18 18 15 16 16 15 14 15 17 17 16 16 17 16 14 12 13 12 8 4 5 12 13 14 15 12 20 18 17 14 11 5 7 7 5 3 2 2 3 4 5 6 7 8 9 11 11
21 21 19 18 17 15 16 16 14 14 16 15 15 15 15 16 16 15 12 13 12 12 6 14 14 13 14 14 13 13 11 10 9 8 6 4 4 3 2 3 5 6 9 9 9 10 11 12 12
22 21 20 19 17 17 16 16 14 14 16 15 13 13 14 15 14 14 14 14 13 14 14 11 11 13 14 13 12 12 11 12 11 10 9 6 4 3 4 6 8 8 9 10 10 11 12 13 13
23 22 21 20 18 17 16 16 15 14 15 15 13 12 11 13 13 12 12 12 14 14 14 14 14 14 14 14 12 11 11 9 9 8 6 4 3 3 4 5 7 8 10 11 11 12 13 13 14
24 24 23 21 18 18 17 15 14 12 12 13 12 11 10 11 10 10 10 10 11 12 12 13 12 10 9 10 11 9 9 8 7 6 4 2 1 2 4 6 8 10 11 12 12 13 14 13 14
26 26 25 23 19 17 16 14 12 12 12 11 12 10 8 9 9 9 9 8 8 9 9 9 9 9 9 9 9 8 6 5 4 3 1 1 2 4 5 6 7 8 8 9 10 11 12 11 13
27 28 25 23 20 16 14 14 13 12 14 12 12 10 8 7 7 8 7 7 7 6 6 6 6 6 6 6 6 5 5 4 3 3 2 3 4 6 7 9 10 11 12 12 13 14 14 14 15
28 28 26 24 21 18 14 13 13 12 14 12 13 12 10 8 6 6 7 5 5 5 4 4 4 5 4 4 3 3 3 3 3 3 4 4 5 7 8 10 11 12 13 14 15 16 16 17 17
29 28 25 24 22 20 17 14 13 13 12 11 11 11 11 9 7 6 4 4 4 4 4 3 4 4 3 4 3 2 2 3 3 4 5 6 7 8 10 11 12 13 14 15 16 17 18 18 19
29 27 26 23 21 20 19 16 14 12 12 10 7 8 8 8 8 6 5 4 3 3 3 2 3 3 3 2 2 2 2 3 4 4 6 8 9 10 11 12 14 14 15 17 18 19 20 21 21
30 28 26 24 22 20 19 17 14 11 11 10 8 5 5 6 6 6 4 4 4 3 2 2 2 2 1 2 2 3 4 6 6 7 8 9 10 11 12 14 15 16 17 18 19 20 21 22 23
31 29 27 26 24 21 19 16 13 12 10 8 8 7 6 5 5 4 4 4 4 4 4 3 3 3 2 2 2 3 5 6 8 8 9 10 12 13 14 15 17 18 18 19 19 20 22 23 24
32 31 28 26 24 22 20 18 17 13 10 8 7 7 7 8 7 7 7 6 6 5 6 5 4 3 2 2 2 4 7 9 10 12 12 12 13 13 13 14 15 16 18 20 22 22 21 23 24
34 31 29 26 25 23 20 19 17 17 13 11 10 10 10 9 10 12 12 10 10 9 8 8 8 7 7 6 7 8 10 11 11 12 12 12 12 13 13 14 14 15 17 20 22 24 25 26 27
36 31 28 27 24 23 21 20 18 17 15 14 13 14 14 14 14 13 14 15 15 13 12 12 12 12 11 11 11 11 12 12 12 12 13 14 14 14 15 16 17 17 18 19 21 23 25 27 29
32 30 31 29 27 25 22 22 20 19 18 18 17 17 18 18 19 15 15 17 18 18 17 17 17 17 16 14 14 15 15 15 14 15 17 18 19 20 20 21 23 23 23 24 24 25 25 27 27
36 35 34 31 28 26 25 24 23 23 20 21 22 22 21 21 20 19 18 16 18 20 22 21 20 21 18 18 19 17 18 18 19 20 21 21 21 22 23 25 26 27 28 29 30 31 30 30 30
39 37 34 32 30 29 27 26 26 25 23 26 26 25 25 25 24 21 20 20 19 21 24 24 25 25 24 22 21 19 21 21 23 25 26 26 26 26 27 28 30 31 32 33 35 36 37 36 36
38 36 34 33 33 32 30 27 27 27 26 27 28 28 27 27 26 25 24 23 23 24 25 27 26 26 26 26 25 26 25 25 27 28 29 30 31 32 32 34 35 37 39 39 41 42 43 43 41
37 37 36 36 36 34 31 29 27 27 28 26 25 27 28 28 28 27 27 27 27 27 28 28 30 30 30 29 29 30 30 31 32 32 33 35 36 37 38 38 40 41 43 45 46 46 47 49 48
38 39 38 37 37 36 32 31 27 28 29 27 27 27 28 28 29 30 30 30 30 30 31 32 33 33 34 34 34 35 35 37 37 37 38 39 42 43 44 45 45 47 48 50 51 51 53 53 54
40 39 39 39 39 38 34 34 29 29 30 30 30 29 28 29 29 30 31 32 32 32 33 34 35 36 37 38 38 39 40 41 41 42 44 45 47 47 50 51 51 52 53 54 54 54 54 56 57
42 40 42 40 40 40 35 36 33 31 30 30 31 31 29 28 30 30 31 31 33 33 34 35 36 38 40 41 42 43 44 44 45 46 48 49 51 52 53 54 55 56 56 56 57 57 57 58 58
38 39 38 40 41 41 39 40 38 33 31 29 30 31 30 30 30 31 31 32 32 33 35 36 38 40 42 43 45 47 47 48 49 50 52 53 54 55 56 57 57 57 58 59 60 59 58 58 59
39 38 39 41 40 42 43 39 38 36 34 33 32 33 32 32 32 32 33 34 36 36 38 39 40 42 44 46 47 48 49 50 52 54 55 56 57 58 57 58 59 60 59 59 60 61 60 60 60
37 39 40 41 41 41 40 38 37 38 37 37 35 34 34 34 34 34 34 36 36 38 40 42 43 44 45 47 48 49 51 51 52 53 55 56 56 56 57 58 59 60 61 61 61 60 60 61 60
41 42 42 41 42 39 39 40 39 39 39 39 39 39 38 38 38 39 39 39 39 39 40 41 42 44 45 46 47 49 51 53 54 54 54 55 57 58 59 59 59 60 60 61 61 61 62 62 61
44 45 43 43 42 42 42 44 45 44 44 45 45 44 45 45 44 44 44 45 46 47 47 48 47 49 50 51 53 53 53 54 55 55 57 58 58 58 59 59 60 61 61 61 62 63 65 65 64

GFSSGP_500_spd_078.txt.gz
Wind_Speed
20 19 18 16 14 12 11 11 10 12 11 9 10 11 10 10 8 7 3 3 5 3 4 8 16 19 17 17 16 14 12 10 12 11 10 10 8 8 7 5 4 3 5 6 8 8 9 10 11
22 21 19 16 15 14 13 11 13 14 11 12 12 12 11 11 12 10 7 4 3 4 6 7 12 18 17 18 19 16 17 14 11 12 10 12 8 7 6 4 4 5 5 6 7 8 9 10 11
23 23 20 18 15 15 15 12 12 12 11 14 13 13 14 13 12 13 11 9 5 0 2 6 13 14 13 15 20 18 16 13 11 8 10 10 7 5 5 4 4 5 6 7 8 9 11 11 12
26 24 21 19 17 15 15 14 13 12 12 12 11 12 16 16 15 13 12 12 10 5 9 11 12 13 10 7 18 16 13 11 12 8 7 6 5 4 3 3 4 6 8 9 11 11 13 14 14
28 25 22 19 18 18 16 15 14 13 13 11 9 12 14 15 16 16 13 12 14 13 10 13 14 13 13 13 11 9 9 10 10 9 9 7 5 3 3 5 6 8 9 10 11 12 13 14 14
28 27 24 21 19 19 17 16 15 14 13 12 10 12 13 13 15 15 14 14 14 14 15 13 12 12 13 14 13 12 10 10 9 8 6 4 2 3 4 5 7 9 11 12 12 13 14 14 15
30 29 26 23 21 20 19 17 16 14 12 12 11 13 12 12 13 14 14 13 13 13 14 13 12 12 11 10 9 9 8 7 6 4 3 2 2 3 5 8 9 10 11 12 12 12 12 13 14
32 29 27 25 22 21 20 18 15 13 12 11 10 11 11 12 11 13 12 11 12 11 11 11 11 10 9 8 8 6 6 4 3 2 3 3 4 4 5 6 7 9 10 11 12 13 14 15 15
33 31 29 26 24 22 19 18 16 13 13 12 11 10 9 10 9 9 11 10 9 9 9 9 9 8 8 7 7 6 6 5 4 4 3 3 4 6 7 8 9 10 11 12 13 14 14 15 16
34 33 32 29 27 24 20 18 17 15 13 12 12 11 11 8 8 8 8 8 8 8 8 8 8 7 6 6 5 5 5 5 5 5 6 6 7 8 9 9 10 11 12 13 14 16 17 17 18
37 35 33 30 27 25 22 20 18 16 15 13 12 11 11 10 8 8 7 6 7 7 6 6 6 6 5 5 4 3 3 3 4 5 6 8 8 9 10 11 12 13 15 16 17 17 18 18 18
38 37 34 31 28 25 23 21 20 19 15 14 12 10 10 10 8 7 7 6 6 6 5 5 4 4 4 4 4 4 3 4 4 5 6 7 8 10 11 12 13 14 15 16 17 18 19 19 20
39 36 34 31 29 26 24 23 21 20 18 15 13 11 10 9 7 6 6 6 5 4 5 5 3 3 3 2 2 2 3 4 4 6 7 9 11 12 13 13 14 15 15 16 17 18 19 20 20
39 37 35 32 30 28 25 23 22 21 18 15 13 11 10 9 8 6 4 3 3 4 3 4 4 3 3 2 1 1 3 4 5 7 8 10 11 12 13 14 14 15 17 17 19 20 21 21 22
39 37 35 34 32 29 26 23 21 18 16 15 13 11 11 10 9 8 7 6 4 3 3 3 3 3 2 2 3 5 7 8 10 11 12 12 12 12 12 13 14 15 15 18 19 19 20 21 22
40 40 38 35 32 29 27 25 20 19 16 14 13 12 11 11 11 12 10 9 8 7 6 6 6 6 6 7 7 9 10 12 14 14 12 11 12 13 13 13 14 15 16 18 19 21 22 23 24
44 40 38 36 33 30 27 25 22 19 17 16 15 15 14 13 13 12 13 13 13 11 11 11 11 11 11 12 12 12 13 14 15 15 14 14 15 16 16 17 18 19 21 22 23 25 26 28 28
42 37 36 35 33 31 28 26 24 22 20 20 19 18 17 16 15 13 13 14 16 17 17 17 17 17 16 15 16 17 16 16 16 17 18 18 19 19 20 21 22 23 24 25 26 27 29 31 32
38 38 39 37 35 33 30 28 26 24 23 22 21 20 20 21 18 17 16 16 16 18 21 22 22 22 20 20 20 20 19 18 19 21 22 22 22 23 24 26 27 28 29 31 33 34 34 35 37
42 42 41 39 36 34 32 30 28 26 27 25 25 24 24 25 22 21 20 20 20 20 20 22 25 25 25 24 24 23 22 23 23 24 25 26 26 27 29 31 32 33 35 36 38 39 41 43 44
44 42 40 37 36 35 32 31 29 27 28 26 26 26 26 27 27 26 25 24 24 23 23 24 26 27 27 27 26 26 26 27 28 28 29 30 31 32 32 34 36 38 40 42 43 44 46 48 48
43 42 40 39 40 36 35 34 31 30 29 29 28 27 27 27 28 28 27 28 28 27 27 27 27 29 29 29 29 30 30 32 33 34 34 35 36 37 38 40 41 43 45 47 48 49 50 52 52
41 42 41 41 41 39 37 36 31 32 31 30 28 27 27 27 27 28 28 29 29 30 30 30 30 31 32 32 33 34 33 35 36 38 38 40 41 42 43 45 46 47 48 50 52 54 55 56 57
43 43 42 42 42 43 38 37 33 33 32 31 30 29 28 28 29 29 30 30 30 31 32 33 32 33 34 35 37 38 38 39 41 42 43 44 45 47 49 50 51 52 53 54 55 57 59 60 60
45 45 44 44 45 44 37 38 33 35 33 33 32 31 30 30 29 29 30 31 32 33 34 34 35 36 37 38 40 41 42 43 45 46 47 48 50 51 52 53 55 56 57 58 60 61 59 61 62
45 44 42 42 42 41 39 41 38 36 35 35 33 32 31 31 30 30 31 31 32 33 33 34 36 37 38 39 41 43 45 46 47 49 50 51 53 54 55 57 59 61 62 62 61 62 62 62 62
44 43 41 42 44 43 43 42 40 37 36 35 35 34 33 32 31 32 32 33 34 35 36 37 38 39 40 41 42 44 46 48 49 50 52 54 55 57 59 59 58 60 61 62 63 64 64 65 64
45 42 43 44 45 45 45 43 41 37 35 35 36 36 36 35 33 32 32 34 36 38 38 39 40 41 42 43 45 47 48 49 49 50 51 52 54 57 59 60 61 62 64 65 65 65 66 67 65
45 45 42 41 44 42 42 42 37 38 37 37 36 35 35 36 36 35 35 35 36 36 37 38 41 41 42 42 44 46 48 49 51 53 55 57 58 60 61 63 63 64 64 64 64 64 64 64 66
42 41 39 41 43 41 40 41 40 38 37 36 37 38 38 38 38 39 39 39 40 41 42 44 45 45 46 46 48 49 51 52 53 55 56 58 59 60 61 61 60 61 62 63 65 67 67 66 64

GFSSGP_500_spd_081.txt.gz
Wind_Speed
21 19 16 12 12 8 8 6 5 5 6 6 5 5 6 4 1 2 2 3 4 2 3 11 16 15 15 16 11 8 8 7 8 9 8 6 6 6 6 7 7 8 7 7 7 8 10 11 12
22 20 16 14 13 11 9 8 8 7 9 6 7 7 8 7 5 5 4 1 0 3 3 6 13 18 16 13 15 13 11 9 7 10 7 7 8 7 7 8 6 6 5 7 8 10 11 12 13
24 20 18 16 13 15 13 9 9 10 10 10 11 10 7 6 8 10 11 7 4 4 3 5 10 15 15 17 14 15 13 10 9 10 11 11 12 8 6 6 5 5 6 7 9 10 12 13 13
25 23 20 19 16 14 12 12 9 10 8 11 11 12 10 8 9 12 14 11 12 7 3 7 11 12 11 7 15 14 12 10 9 8 7 7 5 4 4 3 4 6 8 9 10 11 12 12 13
28 24 22 18 17 15 14 13 11 11 10 10 10 11 10 11 13 15 14 14 15 10 12 10 11 9 7 7 14 12 9 9 8 8 5 4 4 3 2 5 7 7 8 9 11 12 13 14 15
30 25 24 22 19 17 15 14 12 12 11 11 11 11 9 10 14 17 17 15 16 15 14 14 13 13 13 14 12 8 6 6 5 4 3 2 1 3 4 6 7 9 11 12 12 13 13 13 14
31 29 29 26 23 20 18 16 14 13 11 11 9 11 9 9 13 16 16 15 15 15 14 15 14 13 12 11 9 7 5 5 4 4 3 4 4 5 6 8 9 10 10 12 13 14 15 16 16
33 32 29 25 23 22 20 18 16 14 13 10 10 11 9 9 10 12 14 14 14 14 14 14 14 12 11 10 9 8 6 6 6 6 6 6 7 7 9 10 11 11 12 12 13 13 14 15 16
37 35 32 28 24 23 22 19 17 15 13 11 10 10 9 8 9 11 12 12 12 12 12 12 12 12 12 11 10 10 9 8 8 8 8 8 9 10 10 11 12 12 13 13 13 14 15 16 16
39 37 34 31 27 26 23 20 18 16 14 12 11 11 10 8 7 9 10 10 10 10 10 11 10 10 9 8 8 8 8 8 8 8 8 9 9 10 11 11 12 12 14 14 14 15 15 16 17
40 39 36 33 30 27 24 21 20 18 15 14 13 12 10 9 7 7 7 8 8 8 8 9 8 8 8 8 7 7 7 7 7 7 7 8 9 10 10 11 12 13 14 15 16 17 18 19 20
43 40 39 36 32 28 25 23 22 19 17 15 13 12 11 9 8 6 6 7 6 6 7 7 7 7 7 7 7 7 6 5 5 5 6 8 9 10 11 13 13 14 15 16 17 17 18 18 19
44 43 41 37 34 30 27 25 23 22 20 17 14 12 11 10 9 6 5 4 5 5 4 5 5 5 4 4 4 4 4 4 5 6 8 9 10 11 11 12 13 13 14 15 16 16 17 18 19
43 45 42 39 36 33 30 27 25 24 22 19 17 14 12 10 9 8 6 5 4 4 3 3 2 2 3 3 3 3 4 5 7 9 10 11 12 12 12 13 14 15 16 16 17 18 18 19 20
47 46 44 41 37 34 32 29 27 25 23 20 18 16 14 12 9 7 7 6 5 5 4 3 4 3 2 1 2 4 5 7 9 11 12 12 12 11 12 13 13 15 16 18 20 20 20 21 22
49 47 45 41 38 36 33 30 28 26 24 21 19 16 15 14 12 12 9 8 6 5 5 5 5 5 5 6 6 7 9 10 11 12 12 12 12 12 14 14 16 17 19 20 22 23 25 26 26
50 48 44 41 39 36 33 32 29 27 24 22 19 17 16 14 13 12 11 12 11 10 9 11 10 10 10 11 12 12 13 13 14 15 15 14 14 15 16 18 19 20 22 24 25 26 28 29 30
54 50 45 41 39 37 35 33 31 29 26 24 21 19 18 16 14 14 14 14 15 16 16 16 16 16 16 16 16 17 18 18 17 17 17 18 18 18 19 21 23 24 26 28 29 31 32 33 35
49 43 41 42 39 39 37 36 31 31 28 26 23 21 20 18 16 16 16 16 16 17 19 21 21 22 20 20 20 21 22 22 21 21 21 21 21 22 24 25 27 28 30 32 34 36 37 38 41
45 45 44 42 43 41 38 36 34 32 29 27 25 22 21 21 19 19 19 19 20 20 20 21 23 24 25 25 25 24 25 25 25 26 27 27 26 26 27 29 32 33 35 37 39 41 43 43 45
48 48 46 45 42 41 39 39 36 34 32 29 26 25 23 23 23 22 23 23 23 22 23 23 23 24 25 27 27 27 27 29 30 30 31 31 31 32 33 34 36 38 40 42 44 46 47 49 50
51 48 46 45 43 43 42 40 41 37 33 32 29 29 26 27 27 26 27 28 28 27 27 28 27 27 28 28 27 29 29 30 33 33 34 35 36 36 38 40 42 43 45 46 49 51 52 53 54
52 49 47 45 46 44 43 43 43 38 36 32 31 29 28 28 27 28 29 29 30 31 31 31 31 31 31 31 31 32 32 34 36 37 38 39 41 42 43 44 46 48 50 51 53 54 56 58 59
49 48 47 46 47 49 47 46 44 40 36 33 33 30 30 29 29 29 29 28 29 31 32 33 34 35 35 35 35 35 37 38 40 42 42 43 45 46 48 48 50 51 53 55 56 57 59 61 62
52 49 50 51 52 55 49 46 44 39 37 34 34 32 31 31 31 31 31 31 32 32 33 34 35 36 37 37 37 38 39 41 43 44 46 47 48 49 51 52 53 55 56 58 60 60 61 61 62
51 49 53 51 51 49 44 47 44 40 37 36 36 35 34 34 34 33 32 33 34 33 34 35 36 36 37 38 39 40 42 43 45 46 47 49 50 52 53 54 56 57 58 59 60 61 63 64 64
53 53 52 48 49 47 47 48 44 41 40 38 36 37 37 37 35 34 33 33 34 35 35 36 37 38 38 39 40 42 43 44 45 46 48 50 51 52 53 54 55 57 59 62 64 65 66 66 67
51 47 48 48 48 48 50 49 47 41 39 39 38 38 37 37 36 35 35 35 35 37 38 38 38 38 39 41 42 43 44 45 46 47 48 50 52 53 55 56 58 60 63 64 65 65 65 65 64
52 52 51 48 48 48 49 49 42 42 40 41 42 39 38 38 37 36 36 37 37 37 37 36 37 38 39 40 42 43 43 45 47 49 51 53 54 56 57 58 61 63 64 64 64 65 66 66 65
50 49 47 48 49 50 49 47 43 42 41 40 39 37 36 37 37 38 38 38 37 36 36 37 39 41 42 43 44 46 47 49 50 52 54 55 55 57 59 61 63 63 63 64 63 62 62 62 63

GFSSGP_500_spd_084.txt.gz
Wind_Speed
18 18 16 15 12 9 7 4 2 1 1 4 5 6 6 7 5 3 2 3 3 1 3 8 13 14 12 10 5 5 7 5 3 4 5 4 3 2 3 5 7 9 9 9 8 9 10 12 13
21 20 20 16 13 11 7 6 4 2 4 7 6 8 8 9 8 5 3 2 3 2 3 4 10 13 13 13 12 4 5 3 4 4 4 5 4 3 5 6 7 7 7 7 8 11 12 12 12
24 23 22 18 16 13 12 8 6 6 7 10 8 10 9 10 8 6 6 5 4 4 1 4 8 11 13 13 12 8 6 3 2 2 4 7 5 6 6 5 5 6 8 11 12 12 12 12 14
27 25 20 18 13 10 11 11 8 7 10 9 12 14 11 10 10 9 10 9 11 8 6 5 8 8 10 11 7 10 6 3 3 2 5 2 2 2 3 4 6 7 8 9 10 11 13 14 14
28 26 24 21 16 14 13 11 9 8 10 10 13 14 14 13 13 13 14 14 13 11 11 9 9 8 7 7 6 7 3 1 4 2 0 2 2 2 2 4 5 7 9 10 11 12 12 13 13
30 28 24 22 18 16 16 14 11 10 11 11 12 13 14 13 14 17 17 16 18 17 16 16 14 12 10 9 9 5 1 5 5 6 5 3 2 3 6 8 9 10 10 11 12 12 13 13 14
32 30 27 25 22 19 18 16 14 12 12 11 11 14 13 12 11 14 17 19 19 18 18 17 16 17 17 15 12 10 9 8 8 7 7 6 7 9 10 10 11 10 12 12 13 14 14 15 16
35 33 31 26 25 22 20 18 15 13 13 12 11 12 13 12 9 12 15 18 19 20 19 18 17 17 16 15 13 12 11 10 11 11 11 11 12 12 12 12 12 12 12 13 13 14 15 15 15
38 34 29 25 24 24 21 19 15 14 14 11 12 13 13 13 10 10 12 16 17 18 17 17 17 17 16 16 15 14 14 14 13 13 13 13 12 12 11 10 11 12 13 13 12 13 14 15 16
40 37 32 30 27 25 24 21 18 15 13 12 11 12 13 12 12 10 8 11 14 16 16 15 15 15 15 15 14 13 13 13 12 10 10 10 10 10 11 12 12 11 11 12 13 13 13 14 14
42 38 38 33 28 27 25 22 20 17 15 14 12 11 11 12 11 11 8 9 11 12 13 13 13 13 13 12 12 11 10 9 9 9 9 9 9 10 10 10 11 12 13 13 14 15 15 16 17
45 46 37 34 33 31 27 24 21 19 15 15 14 13 10 10 9 10 9 8 10 11 12 12 11 11 11 11 10 10 9 8 8 8 9 9 10 10 10 11 11 12 13 14 15 16 16 17 18
46 43 37 37 36 32 29 26 23 20 19 17 15 13 12 10 9 8 8 7 7 9 9 10 10 9 8 8 9 8 8 8 8 9 9 9 9 9 9 10 10 12 12 13 14 15 16 17 18
46 44 43 41 37 35 31 28 25 23 21 18 17 15 13 12 10 10 9 8 7 6 7 7 7 7 7 8 7 6 5 5 6 8 10 10 10 9 10 10 11 12 14 15 15 16 18 19 20
47 46 46 44 41 37 34 30 26 26 23 20 18 16 14 12 11 8 8 8 7 5 5 6 7 7 6 5 2 1 2 4 6 8 9 10 9 9 10 11 12 14 16 17 19 20 20 21 22
47 49 49 45 43 40 36 33 31 29 26 23 20 18 16 14 10 10 8 8 7 6 5 4 4 4 4 3 4 4 6 7 9 10 11 11 11 11 12 13 15 17 18 20 21 23 24 26 27
54 52 51 48 46 42 38 37 32 31 29 26 23 20 18 16 13 10 8 7 7 7 7 7 7 7 7 8 9 10 11 13 13 14 15 15 15 15 16 17 18 20 22 23 24 26 27 29 32
56 54 52 48 46 43 40 37 33 32 30 27 25 22 20 17 15 14 14 14 14 12 12 13 13 14 13 13 14 15 16 17 17 17 18 18 19 18 18 20 22 24 26 28 29 31 32 34 36
50 51 51 48 45 42 39 38 35 35 31 28 26 24 22 19 15 16 15 15 16 16 17 19 19 19 19 18 19 19 20 20 20 21 22 23 23 22 22 24 26 27 30 32 34 36 37 39 42
56 54 52 50 44 44 43 40 37 36 33 31 29 25 22 19 19 17 17 17 18 18 18 19 20 20 21 22 22 23 23 24 25 26 27 27 27 27 27 28 31 34 34 37 39 41 42 44 46
59 54 53 48 45 47 44 43 41 38 36 33 30 28 26 23 21 19 19 19 20 21 22 22 22 22 22 23 24 25 26 28 29 29 30 31 31 32 34 35 36 37 40 42 44 46 48 49 51
58 51 52 49 47 47 45 43 44 41 39 36 33 31 27 25 22 22 22 22 24 24 25 25 25 25 25 26 24 29 28 30 31 31 32 34 35 36 38 40 42 43 44 46 47 49 50 53 54
55 52 51 46 49 49 47 47 46 44 41 38 34 31 29 27 25 25 25 25 25 26 27 28 29 29 30 30 30 29 31 32 33 35 37 38 40 40 41 43 45 46 48 49 51 52 54 55 57
57 55 53 50 51 52 50 50 49 47 42 39 35 33 31 30 28 27 27 27 26 28 28 29 31 33 34 35 35 33 35 36 36 37 39 40 42 44 45 47 48 49 51 52 52 54 56 57 58
57 54 53 55 57 58 53 54 50 49 43 39 37 34 34 32 30 30 30 30 29 30 30 31 32 34 35 37 38 38 38 39 40 41 42 43 44 46 47 48 50 51 52 53 54 54 56 58 60
59 56 59 60 61 59 55 58 51 45 40 39 38 37 35 33 33 33 33 33 31 31 32 33 34 35 36 38 38 38 39 40 41 42 43 44 45 46 48 49 50 51 51 53 56 58 60 61 63
59 58 57 56 56 55 54 54 48 45 43 42 40 39 36 35 35 35 35 35 34 33 35 36 36 37 37 37 38 38 40 40 42 43 43 44 46 46 47 48 51 53 56 58 59 60 61 64 67
56 52 54 57 56 55 56 55 52 46 43 43 40 39 38 36 36 37 37 37 36 37 37 37 38 37 38 38 39 40 40 41 42 42 42 44 46 48 50 53 55 56 58 59 60 63 65 65 64
56 55 56 54 54 54 55 54 48 45 42 41 41 40 39 39 38 39 39 38 38 39 39 39 39 39 39 40 39 40 41 42 43 45 47 48 50 52 53 55 56 56 58 61 63 63 62 61 61
54 52 51 52 53 52 51 49 45 43 41 39 40 40 40 39 38 38 39 39 40 39 39 41 41 40 40 40 40 42 43 45 46 47 49 51 52 54 54 55 57 59 60 60 58 57 57 59 60

GFSSGP_500_spd_087.txt.gz
Wind_Speed
18 18 17 15 14 10 6 6 3 1 2 2 5 6 6 5 6 7 6 2 2 2 1 2 9 12 12 11 4 6 9 8 7 6 6 5 3 2 2 4 6 8 8 9 8 9 11 11 11
21 20 19 16 15 13 11 6 4 2 4 5 7 8 8 9 10 9 6 2 2 1 2 3 6 9 13 11 8 6 6 4 6 5 3 1 1 2 5 6 6 6 6 6 7 7 8 9 9
23 22 20 20 16 13 10 9 6 4 5 9 8 7 10 11 11 10 9 6 3 3 4 6 6 10 13 12 9 8 5 5 5 5 3 3 4 2 5 4 4 4 4 6 6 7 9 9 10
25 23 22 21 16 12 11 10 8 6 8 11 13 8 11 12 11 11 13 12 11 8 7 8 8 9 10 10 7 5 4 2 3 4 4 3 3 4 2 2 3 5 6 8 9 11 11 11 12
28 26 25 21 15 15 15 11 9 8 9 12 13 12 14 11 12 16 16 15 15 14 14 14 13 13 10 8 6 7 4 4 3 6 5 5 6 4 1 4 6 8 10 10 11 11 11 12 12
30 28 26 20 17 17 17 13 10 10 11 13 11 14 15 13 15 18 19 18 18 18 18 16 14 13 12 9 11 9 8 12 11 9 8 8 6 6 7 9 9 9 10 10 10 11 11 12 12
32 29 29 25 23 20 17 15 13 13 13 14 12 14 15 14 14 19 20 20 20 20 21 21 22 22 20 18 16 14 13 13 12 12 11 11 10 10 10 11 10 10 10 11 10 9 9 10 11
36 35 33 28 26 22 19 17 14 13 14 14 12 12 14 16 14 15 19 21 22 21 21 21 21 22 20 18 16 15 15 15 15 14 14 13 12 11 10 10 9 9 8 8 9 10 11 12 12
39 38 32 29 27 25 21 19 17 16 15 15 13 14 14 18 16 14 15 18 20 20 21 22 22 22 21 20 19 18 17 17 16 15 13 11 10 9 8 8 8 9 10 11 12 12 12 13 14
41 38 35 32 27 25 25 23 21 16 15 14 13 14 14 16 18 15 15 15 17 17 18 20 21 21 21 19 19 18 16 14 13 12 11 10 9 8 7 8 9 10 10 10 11 12 13 14 14
43 39 39 32 29 28 27 25 21 18 15 14 13 13 14 14 16 17 14 13 14 14 15 17 18 18 18 17 16 14 13 13 12 11 10 9 9 8 8 9 9 9 10 10 11 11 13 14 15
45 44 40 35 34 32 29 26 23 20 16 16 15 13 14 13 14 15 15 14 13 12 13 14 14 15 15 15 14 13 12 12 12 11 10 9 8 8 8 8 8 8 9 9 10 12 12 13 14
48 50 42 40 38 35 31 29 24 21 18 17 16 14 14 14 14 14 16 15 15 13 12 13 13 13 14 13 13 13 12 10 8 7 7 7 7 6 6 6 7 8 9 10 12 13 15 15 16
49 47 43 42 38 36 33 29 25 22 21 19 18 17 15 15 14 14 15 14 12 12 10 9 11 12 12 12 11 9 7 5 4 4 5 6 6 6 6 7 8 10 11 13 14 15 16 17 18
52 46 45 44 42 38 35 31 27 26 24 21 20 18 17 15 14 13 12 13 12 11 10 10 10 11 10 8 5 4 2 1 3 5 6 8 8 8 9 9 11 12 13 14 16 18 20 21 22
54 51 49 47 45 42 37 34 31 30 27 25 22 19 18 16 13 13 11 11 10 9 8 9 9 8 7 4 4 3 4 4 6 7 9 9 10 11 12 12 13 16 17 19 20 21 23 25 26
56 55 55 53 48 44 41 38 34 32 30 28 25 22 19 16 15 14 13 11 12 11 10 8 7 6 7 6 7 8 9 9 10 11 13 14 13 13 14 14 15 19 21 22 25 26 28 30 32
59 59 55 51 47 45 42 39 35 33 32 30 27 24 21 19 17 15 14 14 13 12 10 11 10 10 10 11 12 14 15 15 15 16 17 17 19 18 18 19 21 23 24 26 28 30 31 33 35
61 54 52 51 49 48 44 41 37 37 36 33 30 26 24 21 19 18 17 15 14 14 13 14 15 16 16 17 17 18 20 20 20 21 22 22 22 22 23 25 27 28 29 31 33 35 36 38 40
63 57 56 52 49 46 46 43 41 39 37 37 34 30 28 24 21 21 19 18 17 17 17 17 19 19 18 20 20 21 22 24 24 25 24 25 26 26 27 28 30 32 34 36 38 39 41 43 45
63 60 59 56 50 49 48 47 46 41 40 38 35 33 29 27 26 23 21 19 19 19 19 19 19 21 21 22 22 23 25 27 26 27 28 28 29 31 32 33 34 36 37 40 42 44 45 46 48
66 62 60 55 49 51 51 50 47 43 41 41 38 35 30 29 25 23 22 21 22 21 21 22 23 23 24 26 27 27 28 29 30 30 31 32 33 34 35 37 39 40 41 44 46 47 49 50 50
64 61 58 55 52 53 54 54 50 48 47 43 39 36 32 31 28 26 25 23 23 24 24 26 26 26 25 26 29 31 30 32 33 33 34 35 37 38 39 41 42 43 45 46 47 49 50 51 52
62 63 58 55 52 57 57 57 52 51 45 44 43 38 34 33 30 29 27 27 26 27 28 27 27 27 27 28 31 32 32 35 35 36 38 39 40 41 43 43 44 45 46 48 49 51 51 52 55
64 61 58 55 58 63 60 59 55 52 50 47 42 39 37 36 33 31 30 30 29 29 28 28 28 29 30 31 32 33 33 36 37 38 39 40 41 42 43 44 45 46 48 49 49 51 54 56 58
66 62 63 64 64 65 62 64 59 52 49 46 42 41 39 37 35 34 33 32 32 31 30 31 32 33 34 33 34 34 35 37 38 39 39 40 42 43 43 45 46 46 48 51 53 56 57 58 59
64 63 60 60 61 61 60 60 56 50 48 45 43 42 41 39 38 36 35 35 34 33 33 34 34 35 35 36 37 37 38 38 39 39 40 41 42 43 44 46 48 50 52 54 56 57 58 59 61
60 57 61 62 63 65 63 62 58 51 46 45 42 41 41 41 40 40 37 36 36 37 36 36 36 36 37 38 38 40 41 40 40 42 42 40 42 44 47 49 51 53 54 57 57 57 59 61 62
60 62 62 59 61 63 63 60 54 47 45 43 42 43 42 42 42 42 40 40 39 38 38 37 36 37 39 40 41 42 41 41 41 42 43 44 45 48 50 51 54 56 57 57 57 59 62 60 53
57 55 57 60 60 60 59 57 53 47 43 42 42 42 40 41 43 43 43 41 40 39 37 37 38 40 42 42 42 41 42 41 42 44 46 47 49 51 53 55 57 57 56 57 60 60 56 50 50

GFSSGP_500_spd_093.txt.gz
Wind_Speed
29 30 27 22 20 14 11 9 8 8 7 5 3 2 1 1 4 5 5 4 3 4 4 7 9 15 12 11 7 6 3 8 10 5 9 7 6 5 5 4 5 5 4 4 6 7 7 6 6
31 29 26 23 19 13 11 9 7 9 3 1 1 1 2 5 9 8 7 5 3 3 5 6 11 15 15 10 10 10 12 16 13 11 8 6 3 3 1 2 3 4 6 6 5 4 4 5 7
29 28 25 24 18 14 12 10 9 7 4 2 3 4 7 6 9 9 7 3 3 5 5 8 12 15 15 9 17 14 15 15 14 10 7 5 2 3 0 1 3 4 4 4 4 4 6 8 8
29 28 26 23 19 16 14 12 11 8 5 5 5 6 8 7 9 9 7 5 5 7 7 12 15 17 11 11 14 15 13 11 14 8 7 6 5 3 2 3 4 3 3 4 5 5 6 7 8
30 28 27 25 19 18 14 12 13 9 8 7 7 8 9 9 8 8 8 9 8 12 14 17 18 16 13 19 16 14 12 9 8 7 7 6 5 4 2 1 1 3 4 5 6 7 7 7 8
31 28 27 25 22 19 16 15 14 11 10 9 10 10 10 9 8 7 8 10 11 17 20 20 19 18 17 16 14 12 12 11 10 9 8 7 6 4 4 4 4 5 5 5 5 6 7 9 11
32 29 29 27 23 21 18 17 16 14 13 12 12 12 11 10 10 9 9 9 12 18 19 18 18 17 16 17 14 13 13 13 12 11 10 8 7 6 5 5 4 3 4 5 6 8 9 9 11
35 30 32 28 24 23 20 19 16 15 15 14 13 14 13 12 11 9 10 10 12 16 19 19 19 18 19 17 17 17 15 14 12 12 11 9 8 6 4 3 3 4 5 7 7 7 8 9 10
39 35 36 28 27 24 22 21 18 17 16 15 15 15 15 15 16 13 11 13 15 17 20 22 23 22 21 20 18 18 16 15 13 12 11 9 7 4 3 4 4 4 4 5 6 7 8 8 9
43 38 36 31 31 27 26 24 23 19 18 16 16 16 16 16 16 16 17 14 15 17 20 22 22 22 21 21 19 18 16 15 13 11 8 6 5 5 4 3 3 4 5 6 7 8 8 9 10
44 37 38 34 34 31 28 26 24 21 20 20 20 19 17 18 18 18 16 14 15 15 16 18 20 21 20 18 17 16 15 13 11 9 9 6 4 2 2 3 4 6 6 7 7 8 10 12 13
45 39 41 37 36 32 28 29 24 22 24 23 22 19 19 18 18 20 22 20 18 17 17 17 18 18 18 18 16 14 12 12 11 9 6 4 3 3 4 4 4 5 6 8 10 12 13 14 15
42 42 43 40 39 35 34 31 29 28 25 24 21 21 19 19 18 17 19 21 21 18 19 16 15 16 16 16 15 14 13 10 7 5 4 3 3 3 4 6 7 9 10 11 12 13 15 17 18
45 47 45 44 42 40 35 33 31 30 28 26 23 22 20 20 22 20 20 21 23 24 21 18 17 15 15 15 15 13 10 7 4 2 2 3 4 6 7 8 9 11 12 13 15 16 17 19 21
49 52 47 47 45 42 38 38 33 33 30 27 26 24 22 21 19 20 19 20 21 20 22 22 19 17 16 15 13 11 8 5 2 2 4 6 7 8 9 11 14 15 17 18 19 20 22 23 25
41 51 52 50 48 45 44 37 37 36 34 29 27 25 25 23 22 20 21 19 18 19 19 19 20 19 17 14 11 10 8 6 5 6 7 9 11 13 14 16 18 20 21 22 23 25 27 29 29
38 41 45 51 52 49 48 41 42 39 36 32 30 29 29 27 22 20 21 20 20 19 18 18 17 17 16 14 12 10 9 9 9 9 12 14 16 17 18 19 22 24 25 26 27 28 30 33 33
41 41 42 50 54 51 50 43 44 41 38 33 32 31 30 28 26 26 24 23 21 19 18 19 19 18 16 14 12 12 12 13 13 14 15 16 18 20 21 24 25 27 29 30 31 33 34 36 37
43 41 38 48 55 52 50 45 44 42 40 38 34 32 32 30 30 27 25 23 21 21 21 20 17 16 15 15 15 15 16 17 18 18 18 19 20 22 24 26 27 29 31 33 35 36 37 40 39
56 49 42 52 61 56 52 50 46 45 43 38 35 36 34 35 29 28 26 25 23 23 20 19 19 17 18 18 18 18 19 20 20 20 20 21 23 25 26 28 29 31 33 35 37 38 39 41 42
51 50 40 45 63 62 54 54 52 51 48 45 43 41 40 36 33 31 29 27 26 24 23 22 21 20 20 20 20 20 20 21 22 22 23 24 25 26 27 29 31 33 35 37 39 41 42 43 44
55 54 46 55 66 63 57 57 56 55 51 48 43 42 39 37 34 33 32 30 28 28 27 25 24 23 23 22 23 23 24 24 25 25 26 27 28 29 31 32 33 35 37 39 40 42 44 46 47
55 57 47 59 65 60 59 60 58 57 55 51 46 43 42 40 38 35 35 33 32 30 29 28 27 27 26 24 24 25 26 27 27 27 28 28 29 32 33 35 37 39 40 41 43 45 47 49 49
47 60 48 54 60 67 63 65 63 61 56 52 47 45 44 42 40 38 37 35 34 33 31 30 29 28 28 28 27 26 26 27 28 29 29 29 32 34 36 38 39 41 42 44 46 48 50 51 52
54 59 59 57 63 68 66 70 64 61 59 55 51 48 47 45 44 42 41 39 37 36 34 33 31 31 31 31 30 29 29 29 30 30 31 33 35 36 38 40 41 42 44 46 48 50 52 54 55
56 57 57 56 54 57 69 71 66 62 61 59 56 53 51 49 46 45 43 40 39 39 39 36 34 33 33 33 33 31 32 31 32 33 34 36 38 40 41 42 43 44 46 47 50 52 55 57 59
62 65 62 63 61 63 73 69 68 65 63 61 58 54 52 48 45 45 45 44 43 42 41 39 38 36 36 36 35 34 34 35 35 36 38 39 41 43 44 44 45 45 47 50 53 55 59 60 62
63 54 61 62 63 65 70 74 70 67 64 57 55 52 52 49 46 45 46 45 44 44 44 43 41 40 39 37 36 36 37 37 38 40 41 42 43 45 44 44 45 45 48 53 57 60 61 64 64
60 64 61 63 67 67 70 70 66 64 64 58 54 49 50 49 46 46 49 48 48 47 46 44 44 43 41 39 38 38 39 39 40 42 44 44 44 44 43 43 46 48 53 57 60 62 65 64 64
64 63 59 62 63 69 70 71 70 68 61 58 57 50 51 49 50 49 49 50 51 50 49 48 46 44 42 42 41 40 42 43 43 44 45 46 44 42 42 43 48 55 58 61 62 63 62 65 66

GFSSGP_500_spd_096.txt.gz
Wind_Speed
25 27 27 24 20 17 16 20 16 12 9 7 6 4 3 2 6 6 4 5 3 2 2 5 11 11 9 8 8 9 8 4 11 9 11 9 7 4 4 4 5 6 7 8 10 8 7 9 8
27 29 28 24 19 16 18 17 14 10 8 7 5 0 1 8 7 8 7 5 4 2 4 8 13 17 12 9 7 11 8 14 9 11 11 8 5 3 3 4 5 6 6 6 5 7 8 9 10
30 32 29 26 19 17 19 15 12 7 8 7 3 3 5 8 8 8 5 4 2 3 6 11 13 18 13 8 13 17 17 15 14 12 10 6 3 1 2 4 4 4 4 4 5 8 9 10 10
30 33 28 25 21 19 19 14 10 8 7 7 4 5 7 9 10 9 6 4 4 5 10 15 18 19 16 18 17 18 16 16 11 10 7 5 3 3 2 2 3 4 5 5 6 8 8 8 8
30 32 29 24 21 21 18 12 11 9 8 7 5 7 9 10 12 10 9 5 7 12 16 21 19 17 15 17 17 16 16 15 12 9 7 7 5 3 2 3 5 4 5 5 5 5 6 8 9
30 30 26 23 21 22 16 13 12 11 10 8 6 8 9 10 12 10 9 6 13 20 23 21 17 15 18 18 15 14 14 14 11 10 8 6 5 4 5 4 5 5 5 4 5 7 8 9 10
32 30 26 25 21 22 16 15 15 13 12 8 8 10 11 11 12 10 9 9 18 18 19 20 22 20 18 16 14 14 13 11 11 10 8 6 6 5 6 5 4 3 3 5 6 7 9 10 11
35 32 28 26 23 22 19 17 16 15 13 11 10 11 11 12 13 11 10 11 14 15 15 17 19 19 18 15 13 13 12 11 11 9 8 7 7 7 5 2 3 5 6 7 7 8 10 11 12
36 35 32 26 22 23 22 20 18 17 15 13 12 13 12 12 13 14 13 12 9 12 11 13 16 20 19 17 15 14 14 12 10 9 9 8 5 4 3 5 5 5 5 6 8 9 10 10 11
39 35 31 28 24 26 24 24 22 20 18 16 14 14 13 12 12 12 15 14 10 9 11 12 15 18 17 16 16 15 14 12 10 8 6 4 5 5 4 4 4 5 7 8 9 9 10 11 13
34 37 35 32 28 28 26 25 24 22 21 21 19 17 15 14 14 16 14 14 14 14 13 14 14 15 15 14 15 15 14 12 9 6 7 6 5 3 4 5 6 6 7 8 9 10 12 13 14
31 35 40 37 32 31 28 30 26 24 26 21 20 17 16 17 15 17 19 22 19 18 17 15 14 14 15 15 14 13 12 10 9 9 5 4 5 5 6 6 7 8 9 10 11 13 14 16 17
35 38 41 41 35 34 34 31 30 29 26 23 20 20 19 17 17 17 17 19 22 20 19 18 17 16 15 14 12 11 11 12 9 7 5 4 3 5 6 7 7 9 10 12 14 15 16 18 20
28 37 39 43 39 36 37 36 33 30 27 25 24 22 21 20 19 19 19 20 21 23 22 19 19 18 15 14 13 13 13 10 8 5 2 1 3 5 7 9 10 12 14 14 15 16 18 21 23
35 34 40 41 43 39 40 40 33 33 31 28 26 24 22 21 19 21 20 20 20 21 21 23 23 18 17 15 15 14 12 9 6 3 3 4 7 8 9 11 13 15 16 18 20 21 23 24 26
38 33 42 40 43 41 43 38 36 34 32 31 28 26 23 21 22 21 19 19 20 20 21 21 21 21 20 18 17 14 10 7 5 5 7 10 11 12 12 14 16 17 19 20 22 24 26 28 29
40 31 33 41 45 44 44 39 40 38 36 34 30 28 27 25 21 19 20 21 21 21 19 19 17 17 17 17 15 13 11 8 8 9 11 14 15 16 17 18 20 21 22 23 25 27 29 31 32
45 36 34 44 43 45 43 40 41 41 38 36 33 32 29 26 24 24 24 23 23 21 20 18 18 17 17 16 14 12 10 10 11 13 16 17 18 18 19 21 22 23 25 26 28 29 31 32 33
42 47 35 34 33 40 39 43 44 44 42 40 36 32 30 28 32 27 27 25 24 22 22 22 22 22 19 18 15 13 14 14 16 17 18 18 19 20 21 22 24 26 28 29 30 32 34 36 35
49 37 38 33 35 39 37 42 47 49 46 42 39 37 35 36 33 29 29 27 26 26 25 23 23 19 19 17 16 15 17 19 20 19 19 20 21 22 23 25 27 29 30 31 32 33 35 37 36
45 46 43 45 40 42 38 39 52 52 50 47 44 42 42 38 35 33 33 31 30 28 28 26 25 22 21 20 19 21 21 22 21 22 22 23 24 25 25 27 29 31 33 34 35 37 37 39 40
48 47 46 52 50 48 42 48 51 55 55 50 47 45 41 38 36 34 35 33 32 32 30 28 27 26 25 25 23 23 23 23 24 24 25 25 25 27 28 30 30 32 34 36 37 38 38 41 44
48 44 50 48 49 49 49 50 41 60 58 54 50 47 42 40 39 37 36 35 35 34 32 32 31 28 27 27 26 25 26 26 26 25 26 25 25 27 30 31 33 34 36 37 38 39 41 43 45
48 48 49 53 52 56 56 56 58 56 60 55 53 48 44 43 41 41 40 39 37 36 35 34 32 30 30 30 29 27 27 28 28 27 26 27 28 30 33 34 36 37 38 39 40 41 43 45 48
49 48 51 52 56 61 55 56 56 44 61 57 54 48 46 47 47 46 43 39 39 37 37 35 35 34 34 34 32 31 30 30 30 30 30 30 31 34 35 37 39 41 40 40 42 43 45 48 51
45 49 54 54 57 53 57 51 45 34 52 61 60 54 54 53 52 49 46 43 43 41 39 38 37 38 38 37 35 34 32 33 32 33 34 34 36 37 39 40 41 43 42 42 43 45 47 50 56
51 51 48 53 57 56 47 45 44 39 41 55 63 59 55 53 52 50 47 46 46 45 41 42 42 41 41 39 38 37 36 35 35 35 36 37 39 40 42 43 44 45 46 45 44 46 48 55 59
53 46 51 52 52 54 53 51 51 47 41 44 60 61 55 52 51 50 48 48 47 48 47 46 45 43 42 42 41 40 40 38 38 37 39 40 41 42 44 45 46 47 46 45 45 47 54 59 59
51 51 52 50 53 54 54 58 54 56 50 45 51 60 57 51 51 50 51 49 50 50 50 48 47 46 45 44 44 44 43 41 41 41 42 42 43 46 47 48 48 47 44 45 48 54 57 59 62
55 55 55 52 51 55 55 47 49 53 51 44 47 56 57 47 51 51 53 54 53 50 50 49 50 49 48 47 45 45 44 43 44 43 44 45 47 48 49 49 46 45 45 47 54 57 60 62 64

GFSSGP_500_spd_102.txt.gz
Wind_Speed
30 29 26 25 23 21 17 18 17 13 12 13 12 11 9 4 1 4 3 2 4 4 6 8 11 9 7 6 8 13 10 13 13 13 12 10 7 4 5 5 8 7 6 6 7 9 11 12 12
27 29 27 24 22 20 19 18 15 13 12 11 9 7 4 2 0 3 1 0 2 2 7 10 12 11 6 6 9 16 11 10 13 13 11 7 6 4 5 6 6 5 7 9 10 11 12 12 12
28 28 27 23 22 20 19 18 14 11 10 10 7 5 4 3 3 1 1 1 2 5 11 10 10 8 9 9 10 14 13 13 11 12 9 6 4 4 4 5 6 9 11 11 10 11 11 11 12
29 28 26 24 23 20 19 16 14 10 10 9 5 6 6 5 4 2 2 3 4 7 9 9 14 16 14 11 8 14 18 14 13 10 8 4 4 4 4 6 10 11 11 11 10 10 11 12 12
30 28 26 24 23 22 20 15 15 11 10 8 6 8 8 7 5 3 4 6 8 11 12 16 18 17 14 13 13 17 16 15 13 8 5 4 4 3 6 9 10 10 9 9 10 10 10 11 11
29 28 26 24 25 23 21 17 16 12 11 8 9 10 11 9 5 4 7 10 13 15 17 19 17 16 16 15 14 15 14 11 8 5 5 5 5 7 9 9 9 8 8 9 9 9 10 10 11
29 26 26 24 25 23 21 17 16 13 13 9 10 12 14 11 7 6 10 14 19 20 20 17 17 16 15 14 14 12 10 8 6 7 6 6 8 9 8 6 7 8 9 8 8 9 9 9 9
32 26 26 24 24 23 21 18 17 16 14 11 11 14 16 14 10 11 16 18 23 21 18 14 14 14 14 13 11 10 9 8 7 7 7 9 8 7 6 6 7 6 7 7 8 9 9 9 10
33 29 26 24 25 25 23 21 19 18 16 14 14 15 17 17 14 15 19 18 17 18 17 17 16 14 13 11 10 10 8 7 8 9 9 9 7 7 6 5 5 6 7 9 8 8 8 9 11
35 32 28 28 29 27 24 23 21 20 18 17 14 14 17 19 18 17 20 21 17 16 18 16 14 12 11 10 9 9 8 10 11 11 10 9 9 8 5 4 5 6 6 6 6 7 8 10 11
34 32 30 30 31 27 23 23 23 21 22 17 15 15 16 20 21 20 23 20 19 19 15 14 13 13 12 11 10 10 12 13 13 12 12 11 8 6 4 5 4 4 3 3 5 7 8 10 12
32 31 32 31 32 27 26 23 25 24 22 19 16 16 17 20 21 22 22 23 21 21 17 16 17 18 16 14 12 12 13 14 13 14 13 11 9 6 4 3 2 1 2 3 5 7 10 11 13
31 28 31 32 32 28 27 27 28 26 22 20 18 19 18 18 20 21 21 19 18 21 20 19 19 20 18 17 15 16 16 14 14 14 12 10 7 5 3 2 0 1 3 4 6 8 11 13 15
35 34 35 34 33 31 31 29 26 26 24 23 22 21 19 20 20 20 22 22 18 19 20 21 19 19 19 17 17 19 19 18 18 16 12 8 5 2 1 2 3 4 5 6 8 11 14 16 17
37 39 37 37 35 35 35 32 28 30 27 26 25 23 22 21 21 21 20 21 20 19 19 19 21 21 19 19 19 18 17 18 16 14 11 9 5 4 4 5 6 8 8 10 11 12 16 18 19
40 41 42 35 38 40 37 34 36 34 31 30 29 26 23 22 24 22 21 19 18 19 20 20 20 20 21 22 20 18 19 18 16 13 11 8 7 7 7 8 9 10 11 12 13 15 18 20 21
45 45 44 40 37 38 36 30 35 37 35 33 32 30 27 25 24 23 22 21 20 20 19 20 21 21 21 21 21 20 21 18 15 14 12 11 11 11 11 12 13 14 14 15 17 18 20 22 24
49 46 39 35 37 30 33 28 27 39 39 38 36 35 30 27 27 29 27 25 23 22 22 22 21 22 22 21 20 21 22 20 19 17 15 15 15 15 15 15 17 17 18 19 20 21 22 25 26
45 39 33 36 40 34 29 30 31 33 41 40 39 36 34 30 35 32 30 27 25 23 23 22 21 22 22 22 23 25 26 23 21 19 19 19 19 19 19 19 20 21 22 23 23 24 25 27 29
43 40 37 39 40 38 33 29 30 33 39 42 42 40 37 37 36 34 32 29 25 26 25 23 24 23 23 24 27 28 27 23 22 22 23 23 22 21 22 22 24 25 26 26 27 27 28 30 31
46 41 38 38 43 43 39 35 29 28 35 42 45 41 42 39 39 37 36 32 31 28 27 26 28 27 27 29 30 30 28 26 26 28 26 24 24 24 25 26 27 28 29 29 29 30 31 33 34
48 43 40 41 42 45 43 39 32 32 32 37 46 46 43 43 42 39 37 33 31 31 34 33 33 31 31 32 30 32 31 29 30 30 28 27 26 26 28 29 30 31 32 33 33 33 34 35 36
50 46 44 42 44 42 47 50 27 34 30 30 38 44 42 43 44 43 40 37 37 38 37 37 37 35 35 33 32 34 33 33 33 32 32 29 29 28 30 32 33 33 34 35 36 37 38 38 39
48 45 43 43 45 47 44 51 35 40 24 21 30 36 44 45 46 44 44 44 42 41 41 41 39 36 36 35 33 35 37 36 36 34 32 32 31 32 32 34 35 35 37 38 39 40 41 43 43
50 50 50 48 45 49 48 53 43 33 24 29 26 23 25 40 47 48 49 47 45 42 43 44 44 40 38 37 36 36 38 39 39 37 35 34 35 35 35 36 37 38 40 40 42 43 44 45 46
49 52 47 47 46 47 47 52 54 38 33 30 27 30 28 31 35 50 51 51 47 47 46 47 44 43 41 41 39 40 41 41 42 41 39 37 38 39 39 39 39 41 43 44 45 46 48 48 49
56 56 50 52 49 46 45 48 50 34 34 35 30 33 32 36 40 43 51 54 48 48 47 48 47 46 45 44 44 43 44 44 45 45 44 41 41 42 42 43 43 44 45 47 48 49 50 50 51
57 54 54 56 52 48 43 46 46 44 32 36 33 32 34 34 39 43 46 52 52 51 51 51 50 50 49 49 48 47 47 47 48 48 46 44 44 45 46 46 46 48 48 50 51 52 52 52 52
59 58 57 55 56 54 47 46 44 42 35 33 33 31 36 32 34 37 49 50 53 56 55 53 52 53 53 53 53 51 51 50 51 51 50 49 48 48 50 50 50 51 51 54 54 54 54 54 54
61 57 54 55 54 55 55 43 42 41 40 37 35 36 37 40 41 37 36 31 44 53 55 56 56 56 57 56 56 54 55 54 54 54 53 53 52 51 52 53 52 54 54 55 57 57 56 55 54

GFSSGP_500_spd_105.txt.gz
Wind_Speed
31 30 27 24 24 22 21 19 20 18 18 15 13 15 13 8 4 5 6 6 5 6 6 6 9 6 7 8 12 11 11 11 11 12 9 6 5 7 6 7 7 7 8 9 10 11 11 12 12
31 31 29 26 22 20 23 20 19 19 17 13 11 13 9 2 3 5 5 4 2 3 6 7 8 7 8 11 12 12 10 11 10 10 9 6 5 5 7 6 7 7 10 11 11 11 12 12 13
30 29 30 27 24 20 24 19 18 18 16 10 10 11 6 1 2 4 5 2 1 4 10 9 8 9 8 8 15 16 12 9 9 8 6 6 3 4 5 7 9 11 11 11 11 12 12 13 13
31 28 27 27 25 22 20 20 18 17 15 9 10 10 6 2 1 3 3 1 4 10 10 9 10 12 12 12 15 17 11 11 9 7 4 3 3 4 7 10 11 10 10 10 12 12 11 12 13
32 28 27 26 26 20 21 20 19 16 14 10 9 10 6 4 1 3 3 2 4 10 12 13 15 14 13 11 9 14 14 11 10 6 5 4 4 6 10 10 9 9 10 11 11 10 11 11 12
34 29 27 25 24 23 21 22 20 17 13 11 10 10 8 6 4 4 6 7 8 11 15 16 15 13 13 12 13 15 12 12 9 7 5 4 5 8 10 8 8 9 9 9 9 9 10 12 13
34 29 28 27 26 23 23 24 23 18 14 12 11 10 10 10 6 6 9 12 12 15 17 16 15 14 12 12 12 12 10 7 5 6 5 4 7 8 7 7 9 9 8 7 8 9 10 10 10
33 30 29 26 29 28 24 25 24 19 15 14 11 10 12 13 10 8 12 15 15 17 17 15 13 11 10 10 8 7 6 6 6 6 5 7 9 7 7 9 8 6 6 7 7 7 8 8 8
33 33 30 29 30 30 28 28 27 21 17 14 13 11 13 15 12 12 14 17 16 16 15 15 12 10 10 9 7 6 5 5 6 7 8 9 7 8 8 6 5 5 5 5 5 6 7 7 8
35 34 32 31 30 27 28 27 26 21 18 15 14 11 12 16 15 15 17 18 17 13 13 14 13 12 11 10 9 7 6 6 8 10 11 10 10 8 5 4 4 4 2 3 4 5 6 7 7
35 34 36 31 29 28 29 28 24 23 22 17 14 12 13 18 19 18 20 19 17 17 15 15 14 14 12 11 8 7 7 9 11 12 11 12 10 8 7 6 4 2 0 2 3 4 5 6 8
36 34 38 33 31 31 30 28 27 25 23 18 17 15 14 16 20 20 22 21 20 18 17 15 14 16 16 14 11 10 10 13 14 13 13 11 9 7 5 4 3 2 2 3 5 6 7 8 9
39 34 37 37 32 33 32 30 26 26 23 19 19 18 16 16 19 23 22 23 23 22 21 19 17 18 19 17 14 14 15 16 15 15 15 12 10 7 5 3 3 4 4 5 8 9 10 11 12
37 36 40 39 33 30 33 30 27 28 26 24 23 21 18 17 16 22 24 23 22 23 24 23 22 20 19 18 16 16 17 17 16 17 15 11 9 7 6 6 6 6 7 8 10 12 13 14 15
42 40 40 33 33 34 33 32 31 33 29 27 26 24 22 19 19 20 23 25 24 23 20 20 22 20 19 18 17 18 19 18 17 17 14 13 10 9 8 8 8 8 9 11 13 15 17 17 18
43 43 44 38 35 36 35 34 36 33 31 31 29 26 25 24 22 20 22 24 26 24 26 21 21 21 20 20 19 19 19 18 19 18 16 14 12 11 11 11 11 12 13 15 17 18 20 21 21
47 47 46 41 41 37 39 34 36 35 35 33 33 30 29 27 23 23 24 24 24 27 25 24 21 21 21 20 20 19 19 19 21 20 18 17 15 14 14 14 15 16 17 18 20 22 24 24 25
52 49 47 42 36 39 32 34 35 36 36 37 35 34 31 29 28 28 27 24 25 25 25 24 21 20 20 21 21 20 21 23 25 23 21 19 18 17 17 17 19 20 21 21 23 24 26 28 29
54 52 46 39 41 40 38 38 33 37 37 35 40 38 36 32 35 31 27 25 25 25 25 24 24 24 22 22 23 23 24 25 25 24 22 20 21 21 20 21 23 25 25 25 26 27 29 31 32
55 54 50 41 46 39 38 41 32 37 35 30 37 42 39 38 38 32 30 27 25 26 25 26 25 25 25 25 25 26 27 26 28 26 24 25 26 24 23 25 28 28 27 28 30 30 31 33 33
57 53 45 48 44 42 42 41 34 28 33 34 33 42 42 41 39 35 32 29 27 25 27 28 28 28 28 28 29 29 28 29 30 30 29 30 27 26 27 29 30 30 31 31 33 33 33 35 36
59 56 47 49 44 46 46 47 40 29 32 36 32 35 44 41 41 37 34 32 28 28 30 30 32 30 29 30 29 29 30 30 32 33 32 32 30 30 31 32 32 33 34 34 35 35 36 37 39
59 54 47 48 44 48 46 51 39 35 36 29 27 34 40 44 43 41 36 33 33 35 34 34 33 32 31 31 30 30 31 32 35 36 36 36 34 33 35 35 35 36 37 37 37 39 39 41 42
57 52 49 48 46 50 46 49 45 40 33 31 31 27 37 45 43 42 40 40 39 38 37 36 35 34 33 34 34 33 34 35 37 38 38 39 38 37 38 39 38 38 39 39 40 42 42 43 45
60 56 52 50 50 54 49 53 49 38 31 32 34 24 25 33 42 45 44 43 41 40 40 39 39 38 38 39 38 37 39 39 40 43 42 42 41 42 42 42 42 42 43 42 43 44 45 46 48
59 58 55 56 51 50 50 53 53 37 29 27 39 25 27 29 25 29 36 49 43 45 44 45 43 42 41 44 43 43 43 44 44 46 47 45 44 44 46 45 45 45 46 45 45 47 48 49 49
63 61 55 52 51 52 53 48 52 37 31 33 35 35 31 30 32 33 32 32 35 49 46 47 48 47 47 43 45 47 46 46 47 48 50 49 48 47 48 48 48 49 49 50 49 49 51 52 53
63 60 56 55 54 52 50 50 52 43 35 33 32 34 35 35 35 36 38 38 37 38 40 50 49 50 50 47 49 49 50 49 50 51 52 53 50 51 51 50 51 53 52 52 53 52 53 55 56
62 59 59 57 55 52 49 49 47 40 29 31 32 34 34 35 36 38 39 37 36 39 42 46 52 53 52 54 53 53 54 52 53 55 55 56 56 55 54 53 53 54 56 56 56 56 56 57 58
64 62 59 55 53 49 50 45 43 41 39 35 35 37 39 41 40 41 41 40 40 40 35 45 51 56 57 60 58 56 56 57 56 59 58 59 58 60 58 58 57 57 58 59 58 59 59 59 60

GFSSGP_500_spd_108.txt.gz
Wind_Speed
32 30 27 24 22 19 23 23 21 16 19 17 18 16 15 11 6 5 7 7 4 2 5 7 6 5 7 9 12 13 11 8 7 7 8 9 8 8 6 6 7 10 14 14 12 11 11 12 13
33 31 28 25 22 20 26 23 22 18 18 17 17 13 11 8 6 7 8 7 4 3 3 5 6 9 10 11 15 13 12 8 6 7 8 9 7 6 6 7 10 14 14 12 10 11 12 13 14
34 31 30 26 25 22 28 23 17 20 17 15 15 11 8 6 5 7 8 4 3 4 8 8 9 9 10 13 15 12 12 10 7 7 7 7 7 5 6 10 14 14 11 10 11 12 12 13 13
35 33 30 26 25 26 25 18 15 18 17 15 13 9 6 6 5 6 4 3 3 7 6 8 10 10 9 11 18 14 11 9 9 6 5 5 5 6 9 13 13 11 10 11 11 11 11 11 12
33 31 29 26 24 28 22 20 16 19 17 14 11 8 4 5 4 4 2 2 4 6 5 8 11 13 13 15 17 13 9 8 8 7 5 5 5 8 12 12 10 10 12 10 10 10 10 11 12
36 32 27 23 23 25 23 21 19 20 16 14 11 8 5 7 5 3 2 4 6 8 7 9 11 12 12 11 12 12 10 9 7 5 4 5 8 10 10 9 9 11 9 9 8 8 9 10 10
35 33 27 26 25 26 24 23 22 21 17 15 11 8 6 8 6 4 5 7 8 9 10 10 11 12 13 14 14 10 10 8 6 6 5 6 10 9 9 9 10 8 7 7 7 7 7 8 7
28 35 30 27 26 29 22 25 25 21 19 16 12 8 7 8 8 6 9 9 9 10 11 11 11 11 14 16 16 13 10 8 8 6 5 8 10 9 8 9 7 6 6 5 5 5 5 5 5
25 35 31 32 30 32 25 25 24 24 21 18 12 9 8 9 10 7 9 12 10 11 11 11 12 12 11 13 13 12 9 7 6 6 7 9 8 9 9 7 5 5 4 2 2 2 3 4 5
24 32 34 34 33 32 24 26 24 24 23 18 13 9 9 10 13 10 11 15 12 10 9 9 9 11 11 9 8 8 7 6 6 7 9 9 9 9 8 6 6 4 2 1 1 2 3 4 5
30 28 35 34 31 29 29 28 24 26 27 18 15 13 11 11 15 13 14 18 16 12 11 8 7 8 10 9 8 7 6 7 9 11 10 10 10 8 6 5 5 3 2 3 3 4 5 6 7
35 32 34 33 32 32 29 26 26 27 24 20 17 16 13 11 15 17 18 19 19 18 16 13 10 8 9 10 10 9 10 11 12 12 12 12 11 8 7 5 4 4 5 5 6 7 8 9 10
40 34 34 31 33 32 29 28 28 27 25 22 20 19 16 14 15 19 19 22 21 19 19 17 14 12 12 13 12 11 12 13 14 14 13 13 11 8 6 5 6 7 8 8 9 10 12 12 13
39 36 37 33 31 36 33 29 30 30 27 25 23 22 19 16 16 20 22 24 25 25 22 20 18 17 15 15 15 14 12 13 14 15 15 15 11 9 9 9 9 9 10 12 13 14 16 17 17
38 40 40 35 35 33 34 35 32 35 29 27 26 24 21 20 21 20 21 23 25 26 25 24 23 21 19 16 16 15 14 15 16 16 16 13 12 12 11 10 11 12 13 15 16 18 19 20 20
60 41 40 36 37 35 39 29 33 32 30 29 28 27 23 23 22 20 20 23 25 26 25 23 22 22 20 17 16 16 16 16 17 16 17 16 15 14 13 13 14 14 16 17 19 21 23 24 24
56 51 49 38 39 40 37 32 30 33 34 33 32 29 26 25 24 22 23 23 24 26 27 25 24 23 21 19 17 16 17 18 19 19 21 20 19 18 17 16 17 17 19 21 22 25 26 27 28
56 55 51 42 42 36 36 31 34 33 33 33 35 33 31 29 28 26 24 23 24 24 24 25 24 22 22 20 19 17 18 20 22 23 24 23 21 20 19 19 20 20 22 24 25 26 29 31 31
56 54 51 46 40 41 42 35 36 35 38 40 32 36 33 31 33 30 27 23 23 22 22 22 24 24 22 20 20 20 21 22 23 23 25 25 25 25 24 23 23 23 26 27 28 29 31 33 34
58 56 53 47 47 46 41 36 36 35 34 36 36 33 33 37 37 33 28 25 21 22 22 21 23 24 24 24 24 24 24 23 24 24 27 29 29 30 28 26 26 28 29 29 30 31 33 35 36
59 59 55 48 50 48 41 41 36 37 30 33 34 33 32 35 38 36 29 27 24 22 24 24 23 23 23 24 26 25 25 24 25 28 32 32 31 32 31 30 31 32 33 33 33 34 36 37 37
61 58 53 52 52 53 47 49 38 35 35 33 26 31 29 29 33 39 33 30 27 24 27 26 25 23 22 23 25 26 26 26 28 31 32 34 34 34 35 35 35 35 35 36 36 37 38 39 39
61 57 54 51 52 53 46 53 43 36 36 33 23 25 29 33 30 38 36 32 32 32 28 28 28 27 24 24 24 26 27 27 30 31 32 34 37 38 38 39 39 39 39 39 40 40 41 42 42
61 58 55 52 53 53 47 51 50 40 38 32 30 30 29 28 29 33 36 36 37 34 33 31 30 30 28 28 27 26 29 30 31 33 35 36 39 41 41 43 44 43 43 43 43 44 44 44 45
62 61 58 56 56 59 54 55 56 40 35 30 33 34 31 27 27 28 35 37 37 38 37 36 35 34 34 34 33 31 31 34 35 37 38 41 41 43 41 44 46 47 48 47 47 47 47 48 48
59 61 63 59 58 56 55 57 58 40 34 32 29 30 37 35 27 27 27 30 36 38 39 39 38 38 38 39 37 38 39 38 39 40 42 43 43 45 46 45 47 49 49 51 52 52 52 52 51
63 62 56 57 58 58 57 52 53 41 35 33 34 32 30 30 31 27 24 23 21 24 29 33 41 43 44 42 43 43 42 41 41 43 46 46 46 47 50 49 50 51 52 52 53 54 56 56 55
64 58 59 61 60 59 57 54 54 48 38 35 34 31 30 31 33 33 30 28 29 27 29 30 28 29 34 43 47 47 46 47 46 47 47 49 48 49 52 54 55 55 55 55 56 57 57 60 60
65 64 62 59 59 58 58 56 53 50 40 37 34 33 32 32 33 32 31 32 31 30 29 29 30 31 36 41 45 51 51 50 51 52 51 51 52 53 54 57 59 59 58 58 58 59 59 61 63
63 60 62 62 59 60 60 57 53 49 40 31 32 36 34 35 35 36 36 36 36 37 36 35 36 35 35 37 44 48 52 53 55 55 54 56 58 57 57 59 61 64 63 63 63 62 62 63 64

GFSSGP_500_spd_111.txt.gz
Wind_Speed
31 31 30 26 22 20 22 23 16 18 20 16 15 16 17 13 11 9 8 6 6 4 2 3 5 6 7 9 11 10 7 6 10 12 11 9 8 8 6 6 8 12 14 14 12 11 11 12 11
33 33 30 27 23 21 23 26 14 20 19 16 14 12 16 11 10 10 8 8 5 6 4 5 7 8 9 9 11 10 9 8 11 13 10 9 7 6 6 8 13 13 13 12 11 11 11 11 12
34 35 33 29 24 23 25 24 16 21 17 16 13 13 14 11 8 9 8 7 6 8 6 7 10 10 9 12 11 12 10 10 10 11 9 7 7 5 7 12 13 11 11 11 12 11 11 11 12
33 34 33 28 23 29 26 19 19 21 20 15 11 11 11 9 7 7 7 5 2 5 4 7 8 12 13 16 13 11 10 9 9 9 7 5 5 6 10 12 10 9 10 11 10 11 10 10 10
28 33 33 27 26 28 27 19 22 20 17 12 10 10 9 7 6 6 4 3 2 4 3 5 7 10 11 16 15 10 9 9 10 8 5 4 5 8 11 9 8 9 9 8 9 9 9 8 8
28 31 30 28 29 28 25 24 23 18 17 12 9 10 10 6 5 5 2 1 3 2 3 6 9 10 15 17 15 12 9 10 10 8 5 5 7 10 9 8 8 8 7 7 7 7 6 6 7
28 30 30 29 29 30 25 26 25 16 17 14 8 11 10 6 5 5 0 3 4 3 6 11 11 12 13 16 17 15 13 11 9 7 6 6 10 10 8 9 9 8 7 6 5 5 4 4 6
27 19 30 31 31 31 25 25 24 18 19 14 8 14 8 6 7 5 3 4 5 5 6 11 14 14 14 16 15 15 14 13 10 7 7 9 10 9 9 10 8 6 5 4 3 2 2 3 4
22 19 26 32 34 31 27 24 21 20 19 15 9 14 9 7 10 7 7 8 7 7 7 8 11 14 16 16 14 13 12 11 11 9 10 11 10 10 11 9 7 6 4 2 1 1 2 2 2
26 24 22 30 34 30 26 25 24 22 20 17 11 14 11 8 12 10 9 12 10 9 9 8 9 10 12 13 13 12 9 9 10 11 12 12 11 11 10 8 7 6 4 2 2 3 4 5 4
31 23 23 30 33 30 29 25 26 23 21 18 15 16 13 10 12 13 11 13 13 12 10 10 10 11 10 10 9 8 8 9 10 12 12 12 11 11 9 8 7 6 5 4 5 6 7 8 9
34 30 22 27 34 32 29 27 26 24 22 20 19 18 15 13 13 17 16 16 18 15 14 12 10 9 9 8 7 7 7 9 11 13 13 12 13 13 11 9 7 7 7 8 8 8 10 11 12
32 36 32 26 30 33 32 28 24 27 25 22 22 21 18 15 15 18 18 18 21 20 17 16 14 12 10 10 9 9 9 9 11 13 14 14 14 12 10 8 9 10 9 10 11 12 13 14 15
37 28 33 32 30 32 32 29 29 30 24 23 23 22 20 18 17 18 22 20 22 21 20 19 19 16 14 13 14 11 10 10 12 15 15 15 15 12 10 11 11 11 12 14 15 15 17 18 19
40 37 32 38 35 28 30 32 27 29 28 27 25 24 23 20 20 19 20 23 22 23 23 22 21 20 19 17 16 16 12 11 13 16 16 16 15 13 13 13 13 14 15 16 17 18 20 21 22
44 45 43 31 37 33 34 23 32 32 30 30 28 25 27 24 22 20 20 22 24 24 25 25 24 24 23 20 18 16 14 13 14 15 17 18 17 15 16 16 16 16 18 18 20 21 22 24 25
48 48 46 36 41 37 37 23 32 30 32 33 32 30 29 26 24 23 22 21 22 24 25 25 23 22 21 21 20 19 17 16 16 17 18 18 19 20 20 19 19 19 20 21 24 25 25 26 27
51 50 46 42 37 31 33 27 31 31 31 34 34 32 29 28 27 26 24 21 21 21 21 24 25 23 21 21 21 20 19 18 20 20 21 21 23 23 23 23 23 23 23 24 27 27 28 29 30
52 52 51 50 50 46 39 35 32 36 33 30 34 33 31 30 31 27 25 23 20 19 19 21 20 22 22 24 24 24 24 22 21 21 21 22 25 27 28 26 26 25 25 27 29 30 31 32 33
55 54 54 53 50 50 45 39 33 34 36 31 33 33 33 31 31 29 26 26 21 21 20 19 21 21 21 22 26 25 25 24 24 23 24 27 29 31 31 29 30 29 29 31 32 33 34 36 37
55 58 55 55 53 51 49 48 38 35 32 35 27 30 31 35 31 27 32 30 28 23 22 22 22 21 21 21 22 23 22 24 24 26 28 29 29 32 33 32 33 34 34 34 35 36 36 38 38
58 54 55 57 54 55 55 55 43 37 35 33 26 24 23 29 31 31 30 33 29 26 28 25 24 21 21 22 21 21 23 23 25 26 28 29 30 32 35 35 36 37 38 38 39 40 41 40 42
61 54 55 55 54 57 57 59 49 40 38 32 28 23 30 26 30 29 30 29 33 33 31 30 28 26 22 22 22 21 21 24 26 26 27 29 29 30 33 36 39 41 42 43 42 43 44 45 45
56 55 56 57 57 62 61 59 61 46 41 35 30 30 32 27 22 25 29 30 33 36 36 33 31 28 28 25 26 25 25 27 28 29 29 30 32 33 33 36 39 41 44 45 46 45 46 47 48
59 56 54 55 60 66 62 62 63 50 40 36 36 33 31 30 27 23 23 26 32 31 34 34 35 34 32 32 31 30 30 32 32 32 34 34 34 35 36 38 40 41 44 46 47 48 49 49 50
62 63 66 64 65 68 66 67 64 54 40 36 34 35 33 32 33 28 25 24 22 28 35 37 38 36 36 34 34 36 35 35 36 36 36 38 38 39 42 42 44 45 46 48 48 49 51 52 53
60 65 57 62 62 65 66 66 62 56 40 42 35 35 35 33 30 27 29 26 24 18 23 29 33 35 36 37 39 40 40 40 40 41 42 41 42 42 43 46 47 47 49 51 51 50 54 54 55
60 56 63 59 62 64 68 67 64 60 43 38 38 38 37 35 32 29 29 28 24 20 18 18 19 22 24 25 26 30 39 43 46 47 47 47 47 47 47 49 51 52 51 53 54 55 57 57 55
61 68 66 61 60 63 63 65 62 58 49 39 38 36 36 36 34 32 30 28 27 28 27 27 27 26 26 27 28 30 32 37 42 46 50 51 51 51 52 53 56 56 57 59 59 58 58 60 58
48 49 61 66 66 63 62 63 59 58 55 40 38 39 39 37 35 35 35 33 31 30 30 31 31 31 33 34 35 36 37 39 41 45 48 51 54 54 56 57 58 59 61 64 63 61 60 59 60

GFSSGP_500_spd_114.txt.gz
Wind_Speed
32 30 27 23 22 23 21 17 15 18 19 16 16 15 17 19 16 14 12 7 5 3 5 6 8 8 10 11 12 10 8 11 12 11 10 8 7 6 5 5 6 9 10 10 11 10 11 11 10
34 32 30 28 26 25 25 20 17 18 17 14 15 14 15 16 14 13 8 6 7 8 6 8 9 10 10 11 11 8 9 12 14 11 9 7 6 5 4 6 9 10 9 10 10 10 10 9 9
34 33 31 28 28 30 26 20 18 18 17 13 13 13 14 13 11 10 6 6 7 8 5 6 9 10 10 11 11 10 12 14 12 10 7 6 5 4 6 10 10 8 8 9 10 10 9 8 7
35 34 32 30 31 30 25 24 18 20 16 13 13 11 12 12 9 8 3 5 5 7 6 5 8 10 12 14 11 12 12 14 11 8 6 3 3 4 8 9 7 7 8 9 9 8 7 6 7
24 35 33 30 33 28 29 26 19 20 14 13 11 10 11 10 8 6 4 3 6 6 6 6 6 10 14 14 12 13 11 13 11 8 4 2 2 7 8 7 6 8 9 9 8 7 5 5 5
22 27 28 30 35 33 28 28 22 20 16 11 13 8 10 9 7 4 4 2 5 6 7 5 9 12 15 15 14 14 13 13 11 7 5 3 4 8 7 5 7 8 9 8 7 5 4 3 5
23 24 22 30 35 31 29 30 21 18 18 11 14 10 8 9 8 6 5 4 6 8 9 10 11 15 17 15 13 14 12 12 10 8 7 6 8 9 8 8 9 9 8 7 6 4 2 2 2
25 22 24 29 34 33 30 31 20 18 20 11 15 11 8 9 8 7 8 5 7 9 11 12 15 13 16 17 16 14 14 10 11 9 8 8 10 10 9 10 10 8 7 5 4 2 1 1 1
27 24 24 28 33 32 30 26 21 20 18 15 15 12 9 11 9 10 9 8 8 10 11 13 16 17 15 15 16 15 14 14 13 10 9 11 11 9 9 9 8 7 6 5 4 3 3 3 4
30 26 25 26 28 31 29 27 24 23 19 18 16 14 11 12 9 13 10 12 8 10 12 13 15 18 18 18 18 17 15 14 14 12 12 13 12 10 10 11 10 9 7 6 6 6 6 6 7
33 31 29 24 27 28 28 29 27 25 21 20 19 17 13 13 12 15 13 12 11 10 13 12 13 14 14 15 14 12 11 11 12 13 14 15 13 12 13 13 11 9 8 9 9 9 9 9 10
35 35 28 26 26 29 29 29 27 27 24 21 20 19 16 16 15 15 15 13 15 13 14 13 13 12 12 10 9 8 7 8 9 12 15 15 12 12 13 12 11 10 11 11 12 12 12 13 14
38 38 36 28 27 31 33 30 29 29 23 23 22 22 19 18 18 16 17 16 17 17 15 15 14 13 10 10 10 9 9 9 10 11 14 14 13 13 13 12 12 13 13 13 14 14 15 16 18
40 40 42 35 26 25 31 33 33 29 24 25 23 23 21 19 20 18 18 18 17 20 19 17 17 15 13 13 13 13 12 11 11 13 14 15 15 16 15 13 13 14 15 16 16 16 17 19 21
43 42 40 39 39 29 27 30 29 30 26 25 26 25 23 22 22 19 19 19 20 20 21 21 21 20 18 16 14 16 17 15 12 13 16 16 16 16 16 15 16 17 17 17 18 19 20 21 22
45 45 42 38 33 35 34 24 28 32 29 26 26 26 26 24 23 21 21 21 21 21 22 23 22 21 20 20 20 19 20 18 16 15 16 17 16 17 18 19 20 19 18 19 20 21 23 23 23
48 47 45 39 39 35 39 27 29 32 28 30 29 30 29 27 23 24 23 21 20 20 23 23 22 25 24 24 21 22 20 20 19 18 19 20 20 20 22 24 23 20 21 21 21 23 26 26 26
48 48 48 42 40 45 35 30 33 35 27 32 33 33 31 29 26 26 23 22 21 19 21 23 24 22 22 23 23 21 21 21 21 22 22 23 22 23 26 26 25 23 23 25 26 27 29 29 29
47 49 50 45 42 47 49 35 34 32 32 27 32 34 31 28 32 27 25 24 23 21 21 23 21 23 20 24 27 27 27 25 26 27 27 25 26 26 28 30 29 28 28 30 30 31 32 34 34
52 52 50 49 47 49 46 43 36 34 33 28 29 32 30 31 30 30 28 27 24 25 23 21 23 22 21 22 26 26 27 25 27 26 26 27 28 30 30 30 31 31 31 32 33 34 35 36 36
54 55 51 51 49 52 51 51 47 39 35 34 30 28 29 31 32 29 31 29 29 25 26 26 26 25 23 23 22 23 23 24 24 27 29 30 30 30 30 31 32 33 35 36 37 38 38 39 40
56 51 52 52 52 53 54 58 50 48 42 39 31 26 20 24 33 35 32 30 28 30 32 32 29 28 25 24 22 22 23 23 26 27 28 28 30 30 31 31 33 35 38 38 40 42 42 42 42
54 53 54 53 53 54 56 61 57 50 47 38 32 30 25 30 30 33 30 32 34 33 36 37 35 31 28 26 25 24 22 23 26 26 27 29 30 31 32 33 34 35 37 40 42 43 43 44 44
53 52 53 55 56 62 58 60 67 55 47 40 35 33 31 30 31 24 24 31 33 34 32 36 38 36 33 31 29 27 27 28 28 29 29 30 31 31 31 34 37 37 39 41 43 43 43 46 46
58 56 53 55 59 69 63 65 68 60 50 41 39 40 38 33 29 25 23 21 26 30 33 30 36 38 37 36 34 32 32 33 32 32 32 32 33 33 34 37 40 41 42 43 45 46 47 48 50
47 52 56 59 63 64 72 71 70 63 54 43 41 40 41 38 36 31 27 24 24 22 24 28 33 35 39 41 38 36 34 33 33 33 35 37 36 38 40 41 44 45 46 46 48 50 50 51 52
42 50 43 54 55 58 63 67 72 66 58 46 41 42 41 38 35 33 31 29 30 30 25 25 29 35 39 39 38 35 34 36 38 39 40 39 40 42 45 46 47 49 50 51 52 53 52 53 54
51 39 46 51 54 62 62 64 69 67 61 54 47 42 41 44 40 37 34 32 31 31 29 28 24 25 31 33 33 32 33 33 34 36 40 43 44 46 47 49 51 53 53 54 57 57 56 57 58
53 53 48 47 50 55 58 63 63 63 58 55 44 44 43 41 43 42 36 35 35 33 32 31 29 27 25 25 27 28 31 34 36 37 37 40 44 47 49 52 54 56 57 58 60 60 60 59 60
44 57 54 52 49 52 55 59 60 60 58 54 40 42 44 44 42 41 40 38 36 35 34 35 36 34 32 31 31 32 35 37 38 41 43 45 47 49 50 52 54 56 58 59 60 62 61 60 61

GFSSGP_500_spd_117.txt.gz
Wind_Speed
30 29 27 25 26 24 20 14 17 16 16 16 15 16 17 19 17 17 13 9 7 5 4 5 7 5 7 9 10 10 11 12 11 11 8 6 7 6 5 5 7 9 9 8 8 8 10 10 8
32 31 28 28 27 26 22 19 18 17 17 17 15 14 15 16 16 14 9 6 7 7 6 5 6 8 9 10 9 8 11 12 10 9 6 6 5 4 3 6 9 8 7 7 7 8 9 7 6
34 33 31 30 28 29 24 21 20 17 16 16 14 13 13 14 15 12 6 4 6 7 6 6 8 9 9 11 11 10 15 13 9 7 4 4 2 2 4 7 8 6 6 6 7 7 6 4 5
36 35 33 32 30 31 24 25 23 19 17 15 11 12 11 12 12 9 3 4 5 5 7 7 9 10 10 13 12 14 17 13 11 8 4 2 1 3 6 8 6 6 6 7 7 6 4 3 4
34 33 34 31 32 28 28 28 24 21 18 15 10 10 10 10 11 7 3 2 3 4 5 7 10 13 14 14 14 16 16 14 11 8 5 2 1 6 8 7 5 6 7 7 6 5 4 4 3
31 27 29 33 36 30 29 29 23 22 19 18 10 8 8 8 11 7 4 2 1 4 3 6 11 14 17 15 14 15 15 13 11 8 6 4 3 7 7 6 6 7 6 6 6 5 3 1 1
29 27 25 31 36 31 30 30 25 21 19 18 13 8 9 7 9 7 6 4 1 3 5 8 14 16 18 14 14 12 13 13 10 8 6 4 5 8 7 5 6 6 5 5 6 4 2 2 2
29 28 25 28 32 30 31 30 24 23 19 18 16 9 9 9 9 8 8 7 5 4 6 10 15 16 15 14 14 13 11 10 9 8 8 7 8 9 6 5 5 5 5 7 6 5 4 5 6
33 30 25 26 29 28 29 29 24 24 19 19 19 12 11 11 10 10 8 8 8 6 7 11 14 16 15 14 15 15 14 13 12 12 10 9 10 9 8 8 8 8 8 7 7 7 7 7 9
36 30 31 31 31 26 28 28 25 24 22 20 19 15 13 13 11 11 9 10 11 11 10 11 14 15 17 17 16 15 14 13 13 12 12 12 13 12 10 10 10 9 8 8 9 9 10 10 11
39 31 30 31 29 25 26 29 27 28 24 23 19 18 15 16 14 12 11 12 13 12 13 13 13 15 15 15 15 15 14 13 13 13 14 13 13 11 11 10 9 9 9 10 11 11 12 13 13
42 36 34 30 32 28 27 26 28 29 25 24 22 21 18 18 17 14 13 13 14 15 15 15 15 15 14 13 11 10 9 9 10 10 13 13 12 12 12 12 11 10 10 12 13 13 14 15 16
45 41 38 34 33 32 27 29 32 30 27 24 24 23 21 20 19 16 14 16 16 17 16 16 17 17 15 14 12 11 11 11 11 11 13 14 15 14 14 14 13 13 13 14 14 15 15 17 18
46 43 40 38 36 36 29 31 33 28 27 25 24 25 23 23 21 19 17 16 17 18 19 18 18 17 16 15 15 14 15 15 13 12 12 15 16 16 15 15 14 15 15 17 17 16 17 18 19
45 44 43 39 39 32 28 33 30 32 29 25 26 25 25 24 24 21 18 17 18 19 21 21 21 18 19 16 15 14 16 18 18 16 13 14 16 17 18 17 18 18 20 20 19 19 19 19 19
47 46 44 42 41 40 39 27 26 26 29 29 28 26 27 25 25 22 21 19 18 20 21 24 25 23 21 21 20 20 20 20 21 20 18 18 19 20 20 20 22 23 24 23 22 21 21 22 23
47 48 46 43 43 43 44 30 33 30 28 28 29 28 27 27 25 24 24 22 19 20 23 22 24 25 26 25 24 25 24 23 21 22 21 22 22 22 23 24 25 26 27 26 25 25 25 25 26
47 44 45 44 45 45 43 29 34 37 29 29 31 32 29 27 26 28 25 25 22 20 21 22 25 25 27 27 26 24 22 22 21 23 25 24 25 27 27 27 28 29 28 28 28 29 30 30 30
49 47 46 43 45 48 47 42 35 41 41 32 28 28 30 28 31 30 27 27 25 23 22 24 23 27 27 27 27 28 27 27 26 25 26 26 30 30 30 30 30 31 31 31 32 34 34 34 35
50 50 50 47 48 53 51 48 42 41 42 34 30 29 22 25 30 30 29 29 26 26 25 23 25 26 27 27 28 28 29 27 27 27 28 31 31 31 31 32 31 31 33 35 36 37 38 39 38
52 50 48 50 49 52 55 55 47 47 46 35 31 30 24 20 23 26 31 31 32 28 27 29 29 27 27 28 28 27 26 26 26 29 32 33 33 33 31 31 32 33 34 37 39 40 40 41 41
56 52 50 52 52 52 56 61 51 49 47 44 35 27 22 23 23 25 29 33 33 30 33 32 32 31 30 29 29 28 28 26 28 30 31 31 31 31 32 33 34 34 35 38 39 40 40 41 43
48 53 56 55 56 56 57 63 56 51 50 42 39 37 29 27 28 27 26 28 35 35 32 33 35 35 34 33 30 31 29 29 31 30 30 31 32 32 33 33 34 35 36 37 38 39 40 41 43
51 53 53 56 57 63 56 61 67 54 50 43 42 38 35 34 31 29 29 25 24 32 35 37 36 34 37 39 35 32 32 34 34 32 32 33 32 32 30 33 35 36 37 38 40 42 42 44 46
54 56 57 57 59 59 60 66 71 60 54 47 44 42 40 39 35 32 28 26 26 25 35 37 38 35 35 39 40 37 37 37 35 35 34 34 33 32 33 36 37 38 40 42 43 44 45 47 49
49 51 56 60 62 55 64 66 68 64 59 50 43 44 43 41 37 35 33 30 27 28 25 26 29 30 34 37 40 42 41 38 36 35 35 36 36 36 37 38 40 42 44 46 47 48 48 50 51
43 43 41 48 52 58 64 55 55 60 62 58 49 46 43 42 38 37 33 33 33 33 31 32 30 29 31 35 39 41 43 39 36 37 38 38 38 39 42 42 43 47 49 50 53 54 53 55 55
47 43 38 41 44 47 48 51 53 54 54 57 53 48 46 46 44 39 37 35 35 34 35 37 36 35 33 32 36 39 39 39 37 38 39 38 38 38 40 44 49 52 54 55 56 56 56 58 58
49 48 40 42 48 46 42 40 39 47 49 52 51 46 48 48 46 42 38 38 38 37 38 37 38 39 37 34 33 34 37 39 35 28 28 34 39 44 47 48 50 52 53 54 56 56 58 60 60
50 52 49 50 47 51 52 42 35 38 37 38 43 42 44 48 47 46 43 40 39 39 41 38 39 40 40 39 34 33 33 35 38 41 43 44 43 43 44 47 49 49 51 51 52 52 54 57 58

GFSSGP_500_spd_120.txt.gz
Wind_Speed
30 27 27 26 24 23 18 16 15 14 14 15 16 16 17 19 20 16 12 11 13 11 4 3 3 6 8 14 13 15 16 15 13 10 8 6 5 5 5 5 8 9 8 7 7 8 9 8 7
33 32 30 29 25 24 21 19 17 16 14 15 13 14 15 16 17 14 9 9 10 10 5 4 5 7 9 10 11 14 15 15 12 10 7 6 5 4 4 7 8 8 6 6 7 8 7 6 5
34 35 31 30 27 25 23 22 19 17 16 15 14 13 12 13 14 11 7 7 8 8 5 5 7 9 9 9 9 12 15 13 12 10 7 6 4 4 6 8 7 5 5 5 7 7 6 4 4
34 34 33 30 28 28 25 25 22 19 17 16 13 12 11 11 12 9 6 6 7 6 6 3 7 8 10 11 9 12 14 12 10 7 6 4 2 5 7 7 5 4 4 4 4 4 3 2 3
36 31 30 30 32 29 28 27 24 19 19 17 15 12 11 10 10 7 5 3 5 4 3 3 9 10 13 12 11 13 14 12 10 7 5 3 3 5 6 5 3 4 4 3 3 2 1 0 0
32 33 33 32 34 29 30 30 26 21 20 17 15 12 12 10 9 4 4 1 2 4 2 3 9 12 13 11 12 14 13 9 9 7 5 2 3 6 7 4 3 4 3 3 3 3 3 3 4
29 30 30 32 31 30 31 30 26 21 20 18 17 13 12 11 8 5 4 2 1 2 2 5 10 13 14 12 12 12 10 9 9 7 5 5 4 7 6 4 3 4 3 3 4 5 6 6 7
29 29 29 29 29 26 29 30 29 22 20 19 17 15 12 12 9 5 5 4 5 1 3 6 10 15 13 12 12 12 9 10 9 7 7 7 5 7 7 5 6 6 5 5 6 7 8 9 10
30 30 25 26 28 26 26 26 28 23 23 20 18 16 13 14 11 8 7 6 8 6 4 7 11 15 15 12 12 11 11 10 9 8 8 8 7 9 8 7 7 6 6 6 7 8 10 11 11
38 36 32 29 25 24 25 24 26 24 25 23 21 18 15 14 12 11 8 8 11 11 8 10 11 14 15 14 14 13 12 11 10 11 11 11 10 10 9 8 8 8 7 8 9 10 11 12 13
43 36 34 31 27 26 27 25 25 25 25 26 21 20 17 15 15 13 10 11 12 13 12 12 13 13 14 14 15 14 12 10 10 12 13 13 11 11 10 9 9 10 10 11 12 12 12 13 15
45 42 37 35 30 28 26 25 28 27 29 25 22 21 19 18 18 14 12 13 12 15 16 15 14 14 14 14 12 12 11 9 9 10 10 12 13 13 12 12 13 14 13 13 14 14 15 15 16
50 43 45 40 38 32 28 25 28 30 29 27 23 22 21 21 20 17 15 14 15 16 17 19 19 18 17 15 14 14 13 12 12 11 12 12 13 15 15 15 16 15 14 15 16 18 18 17 17
48 46 43 46 41 36 31 29 27 27 31 29 26 23 23 23 21 22 18 17 16 16 20 21 22 22 21 20 19 18 17 16 15 14 13 13 14 16 17 18 19 20 19 19 20 20 20 19 19
48 48 48 45 43 39 34 35 24 29 31 31 29 27 25 24 23 24 22 21 17 18 19 23 24 22 22 22 20 18 17 18 16 16 17 17 17 18 20 21 22 22 23 23 23 23 22 21 21
51 50 49 47 45 41 37 32 27 29 30 32 31 27 26 25 25 23 25 24 21 19 21 24 25 25 24 24 23 21 20 19 20 17 19 20 19 20 22 24 24 25 26 26 26 25 24 24 24
52 51 49 45 45 43 42 33 33 35 25 31 34 33 28 27 24 25 28 26 23 21 20 24 26 29 28 28 27 27 25 25 24 23 22 20 21 22 24 25 27 28 28 29 28 28 28 29 28
50 48 46 44 45 45 45 36 37 40 32 30 32 29 29 27 25 28 28 28 25 22 21 23 26 28 31 31 29 29 28 28 28 26 26 25 25 25 27 29 29 29 31 32 31 31 32 33 31
50 48 47 45 46 48 47 42 40 43 43 36 29 29 27 26 30 27 26 27 26 24 24 26 25 28 29 31 31 33 32 32 30 30 30 28 27 29 30 31 31 31 33 32 33 34 35 36 36
51 48 47 46 47 49 49 47 43 45 46 42 35 28 25 24 26 29 29 27 26 27 26 26 27 29 29 29 31 31 34 33 32 30 28 28 32 34 33 34 34 34 34 32 34 36 37 38 38
52 50 50 48 49 50 51 52 46 45 47 41 38 32 29 24 23 23 27 26 30 28 29 30 30 30 31 30 30 28 30 31 31 31 33 35 34 35 34 35 34 33 33 35 36 38 38 38 38
48 50 47 48 52 52 54 57 48 46 46 43 38 35 29 25 23 21 24 25 27 28 31 31 31 31 33 32 31 31 31 30 32 33 34 33 32 32 33 34 34 34 34 35 39 39 38 37 38
40 42 51 52 48 52 52 58 50 46 47 43 41 39 35 32 26 24 24 26 25 27 29 32 31 32 33 33 32 34 33 33 35 34 34 35 35 34 34 34 34 35 35 35 38 39 38 37 38
43 44 46 49 54 59 48 56 62 47 46 44 42 42 38 35 36 32 28 27 28 25 26 27 32 34 35 33 33 35 38 37 37 37 36 37 36 36 34 33 34 36 36 36 38 39 40 41 42
45 45 49 52 55 49 54 61 63 49 50 48 45 42 40 41 39 39 35 30 26 25 28 27 26 30 36 39 38 35 38 41 40 40 39 38 37 35 34 36 36 36 38 39 41 42 42 45 47
45 49 52 56 56 47 56 57 55 50 44 49 49 47 45 44 42 41 38 36 33 31 28 27 31 28 31 30 30 36 38 39 41 43 42 41 39 38 37 37 38 39 41 42 43 45 48 50 51
47 50 47 52 55 56 58 48 49 49 47 47 50 50 45 46 47 47 45 41 38 36 35 34 34 34 33 29 30 30 34 37 40 45 46 42 41 40 40 40 42 42 43 45 49 52 51 55 55
44 44 47 48 50 50 48 44 42 45 48 46 47 50 53 51 50 49 45 40 40 38 38 38 33 36 39 38 38 36 34 35 40 46 45 43 44 44 41 42 42 46 46 45 51 54 53 51 49
41 41 44 41 35 39 44 39 31 35 35 38 47 49 48 53 56 54 52 47 43 41 41 40 40 37 40 41 41 42 41 39 39 41 43 43 47 50 49 44 43 46 49 49 50 49 48 50 50
50 45 44 46 45 48 48 32 31 33 34 30 30 34 37 48 52 57 55 52 49 44 42 42 42 44 43 43 44 42 42 43 42 39 40 43 45 34 40 45 49 49 47 46 49 51 51 51 52

GFSSGP_500_spd_123.txt.gz
Wind_Speed
31 30 30 30 26 21 18 17 15 14 12 12 13 13 13 15 16 16 9 10 14 13 8 5 5 7 9 12 15 16 17 14 15 14 12 9 9 7 5 6 9 9 8 7 6 7 8 7 7
31 31 29 28 26 21 20 20 18 16 13 11 11 14 13 15 15 13 8 8 12 13 9 6 11 9 10 12 13 15 16 15 14 12 11 10 7 6 5 8 8 7 6 6 6 7 6 5 5
31 32 30 29 27 22 22 22 20 19 15 12 11 12 12 13 13 12 6 6 10 12 9 8 11 11 10 10 12 13 15 13 11 11 10 9 5 5 7 8 7 6 6 6 6 6 5 4 4
32 32 32 29 32 27 24 23 22 21 18 16 13 12 11 11 12 9 6 4 8 9 9 8 9 10 11 10 11 12 12 11 9 9 8 6 5 8 9 9 7 6 7 7 6 4 2 2 5
30 33 32 31 25 25 25 24 22 21 20 19 16 12 10 12 11 8 5 2 6 7 7 7 7 8 9 9 10 11 10 9 8 6 5 4 5 8 9 8 6 6 5 5 4 3 2 4 6
32 32 32 30 27 25 22 26 25 21 21 21 18 13 11 11 12 7 4 1 3 5 4 6 7 8 11 9 10 11 10 7 6 6 3 2 3 7 7 5 4 5 4 3 3 3 4 6 7
30 31 30 31 30 26 24 25 24 21 19 21 19 15 13 11 12 7 5 3 3 2 1 7 7 9 13 11 9 11 8 6 5 4 2 1 1 5 5 4 5 6 5 4 5 5 7 8 9
30 30 29 28 27 25 24 20 22 24 21 21 20 17 15 14 13 9 6 4 6 4 4 7 9 10 12 10 10 11 7 6 6 4 4 5 4 7 6 6 6 6 5 6 5 6 8 10 11
31 28 28 27 26 22 22 19 21 22 22 21 20 18 16 15 14 10 7 6 8 7 5 8 10 13 13 12 12 12 11 9 8 7 7 7 7 8 8 7 6 6 6 6 8 10 11 12 13
34 32 30 29 27 24 22 21 19 20 22 21 20 18 18 17 16 11 9 8 9 11 8 9 12 15 16 14 14 14 13 12 10 8 8 10 8 8 9 9 7 8 8 8 11 13 14 14 14
42 39 36 32 30 27 22 20 19 19 20 23 22 17 19 18 17 15 11 10 9 14 14 12 12 13 16 16 17 16 16 13 11 10 9 9 9 10 11 11 11 12 12 12 13 15 16 17 17
49 45 41 37 31 33 28 23 20 19 22 24 22 19 20 18 17 17 15 12 13 15 17 17 15 15 15 16 16 17 16 14 12 10 9 9 9 12 14 14 14 15 15 17 17 17 18 19 18
50 48 50 40 39 30 28 26 22 21 21 25 25 25 23 20 18 19 20 16 14 16 19 20 19 19 19 19 18 17 16 14 13 13 12 11 11 13 15 16 16 18 20 21 20 20 20 20 20
51 46 50 48 42 39 32 28 22 23 25 24 26 28 26 24 21 21 21 20 17 16 18 21 23 22 22 22 21 20 18 16 16 14 14 13 13 14 17 19 21 20 22 23 23 23 22 22 23
52 49 48 47 48 42 40 36 20 27 28 25 25 28 28 27 23 24 20 24 20 18 19 22 25 25 25 25 24 23 21 19 17 14 15 16 16 16 17 20 23 24 24 24 25 26 26 25 24
54 53 51 48 45 46 43 37 26 32 30 27 26 26 29 28 27 25 24 25 24 21 20 22 24 26 27 27 27 26 24 22 19 17 17 18 17 19 20 21 23 25 26 27 28 29 29 29 27
56 54 53 50 47 47 47 39 30 35 31 27 28 28 27 27 24 28 27 26 24 23 22 21 23 26 28 29 28 28 26 25 25 23 24 23 24 23 24 24 24 25 27 29 30 30 31 31 30
54 55 55 51 48 50 46 42 34 39 35 32 30 27 25 27 27 28 27 27 26 25 23 23 23 26 30 32 31 30 30 30 30 29 28 29 29 28 28 28 28 29 29 31 32 32 32 32 32
48 56 53 51 50 51 50 48 36 42 40 35 34 28 21 21 25 25 28 26 27 27 24 26 24 27 27 30 32 34 34 34 34 34 35 35 32 30 31 32 31 31 33 31 33 34 34 34 32
51 51 54 51 51 52 51 52 39 43 41 38 33 32 25 24 24 22 22 23 26 29 28 26 28 30 29 28 30 31 33 33 34 35 34 34 34 35 34 34 34 32 33 33 33 33 36 35 33
53 49 50 55 51 53 52 55 43 42 45 41 36 30 28 26 28 24 23 23 25 27 30 30 31 31 30 30 30 27 28 30 32 34 36 37 38 38 37 35 35 35 33 33 34 35 35 35 34
49 53 49 54 54 53 53 57 45 44 44 41 39 33 29 28 26 27 24 25 24 25 31 29 31 32 31 32 30 29 28 28 31 32 33 34 35 35 36 35 35 35 34 33 35 36 35 35 34
48 46 50 51 54 55 51 55 44 43 43 40 39 37 35 33 32 31 27 27 25 26 26 25 28 30 32 34 32 30 31 31 32 34 34 34 35 35 36 36 36 36 36 35 36 37 36 34 34
41 40 42 46 49 53 45 50 49 37 41 40 41 40 40 37 35 33 34 33 28 26 26 27 24 24 25 30 34 33 32 34 34 36 37 37 37 37 36 36 36 38 37 37 38 37 36 37 37
37 37 38 41 42 46 51 56 56 38 37 38 42 42 42 41 40 40 38 39 39 34 33 29 29 26 26 25 28 32 35 39 37 37 38 40 40 39 38 38 38 37 38 38 39 39 39 39 41
41 42 42 41 41 38 43 46 50 45 43 44 42 46 46 45 45 43 42 41 40 39 37 35 31 30 31 28 28 29 30 36 37 37 37 42 43 44 43 42 40 39 40 41 41 41 40 41 47
42 42 39 41 43 45 44 36 39 40 35 42 45 45 47 48 55 54 50 47 44 42 41 39 39 37 36 33 32 33 32 29 25 29 29 30 36 45 46 44 44 43 43 42 42 39 43 50 49
41 39 40 40 44 45 42 40 32 36 37 38 43 47 50 51 52 51 54 54 50 47 45 44 43 43 42 40 38 34 33 36 36 37 35 37 38 41 45 47 48 47 48 48 49 48 49 49 48
41 39 39 37 40 42 43 35 31 35 35 32 35 42 49 51 52 57 57 55 53 52 50 48 47 46 46 45 41 40 40 39 38 38 40 40 42 40 42 44 47 49 52 54 55 51 48 48 52
44 40 39 35 38 39 42 30 32 35 34 34 33 34 34 42 51 54 58 64 62 59 54 52 51 49 48 48 48 46 46 45 45 45 45 44 44 43 42 43 43 44 43 47 45 48 52 54 50

GFSSGP_500_spd_129.txt.gz
Wind_Speed
23 26 27 24 20 19 21 23 20 17 16 15 15 15 15 16 17 16 14 10 12 11 6 7 9 10 10 11 13 15 13 12 12 11 9 10 7 7 6 9 11 10 8 7 7 8 6 6 5
26 25 25 25 23 20 17 22 23 21 18 17 15 15 16 16 16 16 12 9 10 10 6 8 8 8 8 9 10 12 13 11 10 8 7 6 5 5 6 9 9 8 8 6 7 7 6 5 4
29 27 26 24 24 22 27 24 26 26 21 20 17 16 16 16 15 15 12 7 7 8 7 9 8 8 7 8 8 11 11 10 8 7 6 5 4 4 6 7 8 8 7 7 7 6 5 3 5
29 31 31 28 25 28 29 26 25 24 23 20 18 17 16 16 15 14 13 7 5 4 4 6 6 7 6 7 9 9 8 7 7 6 4 2 2 4 6 7 6 6 6 6 8 7 5 4 6
29 31 33 29 30 29 29 26 24 26 25 21 21 19 17 15 15 13 12 9 5 1 6 6 5 7 7 7 9 8 7 7 5 3 2 1 4 5 7 6 5 6 6 8 7 6 5 5 6
36 35 33 29 30 33 31 28 26 25 29 24 23 21 17 15 15 13 12 10 7 5 7 9 7 6 9 9 10 11 9 7 6 4 3 1 3 5 6 5 5 6 8 8 7 7 5 6 8
43 36 37 32 29 33 36 28 27 23 27 27 25 23 19 15 15 13 12 11 8 8 8 12 11 8 10 11 11 12 12 9 9 8 5 3 2 4 7 7 7 8 9 9 7 6 6 8 9
48 44 37 31 31 31 37 30 27 24 25 24 22 21 19 17 16 14 13 12 11 11 11 11 14 12 12 11 12 13 13 11 10 10 7 6 4 5 8 9 8 8 8 9 8 8 9 10 11
46 51 45 39 32 33 31 32 28 27 26 24 23 23 21 19 18 16 13 13 13 13 13 12 14 14 13 13 12 13 14 13 10 9 9 8 8 10 10 12 11 10 10 10 10 11 11 13 14
48 51 48 45 38 33 31 31 29 27 27 24 24 24 21 22 21 18 16 14 13 14 15 15 15 16 15 15 13 14 15 13 12 11 11 11 12 14 15 15 14 12 11 12 13 14 15 17 17
50 49 48 44 45 41 34 31 28 28 26 27 25 22 23 24 23 21 18 17 15 14 18 17 17 18 18 17 17 16 16 16 16 15 14 13 15 15 15 15 16 15 15 15 17 18 19 19 18
49 50 52 48 42 47 40 31 29 28 30 26 24 21 25 26 25 25 21 19 19 16 16 19 20 20 21 21 20 20 20 19 19 18 17 16 15 14 14 15 18 19 19 19 20 21 22 21 21
46 47 51 52 45 43 44 35 30 30 31 27 24 23 25 26 27 26 25 23 21 19 16 18 22 23 23 23 24 24 25 24 23 21 19 17 16 16 15 14 16 19 22 22 23 24 25 24 24
53 49 47 51 51 45 47 45 36 34 32 29 25 25 24 25 26 26 29 26 24 22 21 18 21 26 26 25 25 25 24 24 24 23 21 19 18 18 15 15 15 16 20 24 25 26 25 26 26
47 48 51 49 51 51 48 45 45 42 36 33 27 27 25 25 28 30 28 29 26 26 23 23 20 23 26 29 28 27 26 25 25 26 24 22 21 21 19 18 18 19 19 21 23 26 27 28 29
49 50 47 46 51 53 51 48 45 49 45 33 31 29 26 26 28 31 32 32 30 27 26 25 24 23 25 28 31 31 29 28 28 27 26 26 25 23 22 21 21 22 24 25 24 25 27 28 29
50 48 48 48 49 52 54 53 47 46 38 42 33 32 27 26 26 29 31 32 32 29 27 26 26 27 27 27 28 31 32 31 30 30 30 30 30 29 28 27 27 28 28 29 30 30 29 30 31
52 53 51 52 53 51 49 51 50 46 44 43 45 35 30 27 27 29 31 32 33 33 31 28 28 29 31 29 27 28 31 33 35 34 34 34 33 33 32 33 33 32 33 34 33 33 33 34 34
52 52 50 52 58 52 51 54 50 50 49 47 47 48 36 30 31 32 30 32 33 35 33 33 32 32 32 30 29 29 29 31 33 34 35 35 35 36 36 35 35 35 36 37 35 35 35 35 36
53 54 51 51 51 50 52 55 56 47 51 49 45 43 40 36 34 35 32 30 32 31 32 33 33 36 34 33 33 32 30 29 31 33 36 39 39 40 39 38 38 37 36 36 36 36 36 36 37
54 52 51 53 52 48 52 52 56 46 49 52 46 44 40 39 39 38 37 35 29 29 27 27 27 29 32 30 32 33 31 29 30 32 34 35 35 35 35 35 35 35 34 34 35 37 38 37 37
53 53 58 56 55 52 55 53 52 51 49 48 48 46 43 42 40 41 40 41 39 32 31 30 30 25 27 28 27 27 33 36 33 32 32 32 33 33 33 33 33 34 33 33 34 36 36 36 35
43 46 48 48 49 55 54 58 43 50 46 52 49 48 49 48 46 44 43 43 43 38 36 36 35 32 29 28 25 25 26 25 30 35 38 39 37 37 36 36 35 35 36 37 37 37 38 38 36
44 44 43 44 50 51 43 55 50 48 45 48 51 47 51 52 51 48 47 47 45 43 40 40 38 35 33 32 29 27 27 27 31 31 34 34 37 40 40 41 42 42 41 42 42 42 41 39 38
58 51 44 45 47 45 46 50 47 48 47 45 45 49 51 54 53 52 50 50 49 48 45 42 39 36 35 34 33 31 27 28 30 31 31 33 35 35 36 40 40 41 41 41 41 42 42 43 43
43 46 43 41 43 38 48 45 46 49 51 50 44 47 52 53 54 54 54 53 52 51 51 48 46 43 42 41 39 36 35 34 35 34 32 33 31 28 28 27 29 28 31 33 33 34 36 40 43
42 41 39 43 41 39 39 35 38 47 46 48 51 46 47 55 55 56 56 55 55 55 54 53 51 49 47 47 46 44 41 41 41 40 39 37 38 36 35 35 34 32 32 34 37 39 39 41 42
34 30 33 36 38 41 38 39 38 38 37 43 43 50 50 50 51 52 56 59 59 59 58 57 56 56 54 53 53 53 51 49 48 46 45 44 45 44 44 43 41 41 42 43 43 42 42 42 44
43 41 40 40 41 40 36 33 34 33 34 34 37 41 42 46 50 54 55 57 59 62 64 62 60 59 59 58 58 56 55 55 53 52 52 51 51 51 51 51 51 52 52 51 50 50 50 49 49
54 37 42 48 46 44 43 37 38 35 36 39 37 38 39 42 43 47 52 56 60 63 64 66 66 65 63 61 60 61 60 59 58 58 58 59 59 59 58 57 58 58 57 58 58 57 56 56 55

GFSSGP_500_spd_132.txt.gz
Wind_Speed
23 22 24 20 20 19 20 26 21 17 17 17 17 20 19 19 20 19 18 14 13 12 4 5 7 6 5 4 6 9 10 10 10 9 8 10 9 6 7 8 9 10 8 7 7 7 6 6 5
23 23 24 22 19 19 29 26 24 18 18 19 18 21 20 18 18 18 17 14 11 10 5 5 7 6 6 5 6 8 9 9 8 7 5 5 3 3 4 8 9 8 8 7 8 8 7 5 4
26 25 25 21 21 21 27 29 24 22 24 22 19 18 20 17 16 17 15 14 9 6 4 3 7 6 6 5 6 7 8 7 5 4 4 3 2 1 4 7 7 7 7 6 8 7 6 4 5
33 29 25 22 24 27 25 30 23 26 26 23 18 17 20 19 15 16 13 13 9 5 1 2 5 6 6 6 5 5 4 4 5 5 3 3 2 3 4 6 6 6 6 6 7 7 5 5 5
33 35 32 25 24 28 31 30 26 28 31 24 23 18 21 21 17 15 13 11 10 7 5 5 4 5 6 7 6 5 4 4 3 3 3 2 5 6 6 5 5 6 6 7 7 7 6 5 5
31 33 34 33 31 32 31 37 26 31 30 26 27 23 20 21 18 15 14 10 11 10 7 10 7 7 7 7 7 6 6 5 5 4 4 2 4 7 7 7 6 7 7 7 7 7 6 6 7
34 36 31 35 33 33 38 36 30 32 33 32 28 30 22 23 21 16 15 12 10 11 11 11 11 9 9 10 8 8 8 7 7 7 5 4 2 5 6 6 5 6 6 7 7 6 6 7 9
41 42 39 33 35 36 40 33 35 31 32 32 26 27 20 23 20 19 16 14 11 11 13 12 14 13 10 12 11 10 11 11 9 8 9 7 6 6 6 8 8 7 8 8 8 8 8 10 12
44 44 45 39 38 40 42 37 37 32 29 32 32 29 27 24 22 20 19 16 13 12 15 15 14 16 14 12 13 12 12 11 11 9 9 9 9 10 11 12 12 10 10 10 11 11 11 12 15
46 46 46 43 43 40 40 37 42 32 31 29 33 32 29 26 26 22 20 19 16 14 14 18 16 17 17 14 13 13 13 13 11 10 10 11 11 12 14 14 13 13 12 12 13 13 15 17 17
47 50 48 46 51 41 40 40 40 33 30 31 29 31 28 29 28 24 22 21 20 17 17 18 19 18 19 18 16 16 15 15 14 13 12 13 13 13 13 13 13 14 15 15 15 16 18 20 21
51 51 50 48 50 40 43 43 40 37 31 32 30 32 26 31 30 27 24 23 22 20 20 17 20 21 21 21 21 19 19 18 17 16 16 16 15 13 14 15 14 14 15 17 19 19 20 22 23
55 51 55 56 49 42 45 45 42 43 36 33 31 33 30 31 30 28 26 26 24 23 20 21 19 23 23 23 23 23 23 22 22 21 21 20 18 16 16 15 14 14 15 17 20 22 23 23 23
55 54 53 54 48 46 44 45 48 41 39 37 31 35 33 30 31 27 27 27 24 24 23 22 23 21 24 25 26 27 27 27 26 25 23 20 20 18 18 18 17 17 17 17 18 20 22 24 24
57 57 57 58 53 50 49 43 46 45 43 38 35 38 35 30 30 29 28 28 27 26 25 25 24 24 23 26 27 28 29 28 27 26 24 23 22 21 20 20 19 19 19 20 21 22 22 23 24
57 58 57 54 54 53 50 43 44 49 48 43 43 42 41 34 32 32 29 29 29 30 29 27 26 26 26 26 27 28 29 30 29 29 27 26 26 25 24 23 23 22 23 24 25 26 26 27 27
59 56 53 51 53 51 53 43 43 50 51 47 44 46 45 39 31 26 27 29 28 29 30 30 29 28 28 28 27 26 28 29 32 31 31 30 31 31 29 28 27 27 27 29 30 30 31 31 31
54 53 52 51 52 52 51 42 43 50 49 50 46 46 43 40 33 26 27 30 31 31 32 33 32 31 31 31 29 28 27 29 31 33 33 34 33 34 33 32 31 31 31 33 34 34 34 35 34
53 53 55 54 54 57 53 47 46 47 50 45 51 48 45 39 50 36 31 30 33 33 33 34 35 37 36 33 33 32 31 31 30 30 32 32 33 35 34 34 34 35 36 38 37 37 36 35 36
53 54 52 52 56 55 55 49 51 48 46 46 43 49 49 42 41 41 43 37 33 35 34 34 37 37 38 37 36 35 35 33 30 28 30 33 35 35 35 35 36 37 37 36 37 38 37 36 36
56 56 52 54 57 55 56 51 49 47 47 49 47 45 49 49 43 42 44 40 38 37 37 36 38 35 35 33 34 34 32 35 31 31 33 34 33 32 33 32 32 33 33 32 35 35 35 36 35
55 52 53 51 55 54 58 56 48 46 43 45 46 46 43 45 49 47 47 45 43 41 41 41 37 34 31 28 26 26 29 27 30 36 38 34 35 35 33 31 31 31 33 33 33 36 37 38 36
42 49 51 53 56 56 56 59 46 48 44 45 47 46 47 49 51 50 48 47 46 45 43 43 43 38 34 31 28 27 26 26 31 34 33 28 39 42 37 36 36 37 36 35 37 38 40 41 40
42 42 43 45 48 55 51 55 50 43 44 48 47 47 51 51 52 51 52 51 50 47 46 46 44 41 40 39 37 32 29 29 29 30 31 32 33 32 35 34 37 41 41 40 39 38 37 36 36
40 38 38 40 45 50 49 46 45 41 44 46 45 49 51 50 47 52 50 52 55 53 50 49 47 44 44 44 43 40 36 34 33 33 32 32 33 32 31 34 34 35 37 37 38 39 36 35 34
39 42 46 51 55 48 50 46 45 45 39 40 42 47 48 50 50 48 52 52 55 57 56 52 51 50 47 46 44 44 40 38 37 37 37 36 35 36 36 34 34 33 31 32 32 29 30 33 34
49 47 48 61 61 62 57 50 46 46 43 45 42 47 46 47 49 47 48 54 54 56 58 56 54 55 54 52 49 48 47 46 44 42 42 43 41 41 43 42 42 41 39 38 37 37 37 38 39
43 44 46 52 51 43 43 45 39 37 36 37 34 31 37 40 45 51 49 48 56 56 58 59 59 57 57 57 56 55 53 52 52 50 49 48 48 48 48 48 48 48 47 47 47 46 46 45 44
46 47 52 33 35 35 34 32 32 35 35 31 33 29 33 36 40 44 49 50 50 55 58 60 61 61 60 59 59 59 58 58 56 57 57 58 57 56 55 54 53 52 53 53 54 55 55 55 53
43 47 43 32 29 25 29 29 35 36 39 36 33 26 27 32 35 41 43 44 47 51 55 58 62 64 65 64 62 62 62 63 63 63 63 63 62 62 61 60 60 59 59 59 59 60 61 61 60